Wetterdaten: Mittwoch, 18.05.2016
Datum Zeit Temp. A. Feuchte A. Luftdruck Regen Wind Richtung Richtung Sonnenschein ET UV Solar Taupunkt Windchill Windben Empfang
18.05.2016 00:00 9,2 C 82 % 1017,4 hPa 0,0 l/m 5,2 km/h (1 Bft) S-SW 196 0 min 0,000 mm 0,0 UV-I 0 W/m 6,3 C 9,2 C 8,0 km/h (2 Bft) 92,59 %
18.05.2016 00:02 9,2 C 82 % 1017,3 hPa 0,0 l/m 4,9 km/h (1 Bft) S 180 0 min 0,000 mm 0,0 UV-I 0 W/m 6,3 C 9,2 C 6,4 km/h (2 Bft) 97,83 %
18.05.2016 00:03 9,2 C 82 % 1017,3 hPa 0,0 l/m 7,0 km/h (2 Bft) S 185 0 min 0,000 mm 0,0 UV-I 0 W/m 6,3 C 8,8 C 8,0 km/h (2 Bft) 100,00 %
18.05.2016 00:04 9,2 C 82 % 1017,3 hPa 0,0 l/m 6,7 km/h (2 Bft) SW 229 0 min 0,000 mm 0,0 UV-I 0 W/m 6,3 C 9,0 C 8,0 km/h (2 Bft) 100,00 %
18.05.2016 00:05 9,2 C 82 % 1017,4 hPa 0,0 l/m 5,9 km/h (2 Bft) S-SW 193 0 min 0,000 mm 0,0 UV-I 0 W/m 6,3 C 9,2 C 6,4 km/h (2 Bft) 95,45 %
18.05.2016 00:06 9,2 C 82 % 1017,4 hPa 0,0 l/m 6,0 km/h (2 Bft) S-SW 209 0 min 0,000 mm 0,0 UV-I 0 W/m 6,3 C 9,2 C 8,0 km/h (2 Bft) 91,67 %
18.05.2016 00:07 9,2 C 82 % 1017,3 hPa 0,0 l/m 4,9 km/h (1 Bft) S-SW 211 0 min 0,000 mm 0,0 UV-I 0 W/m 6,3 C 9,2 C 8,0 km/h (2 Bft) 100,00 %
18.05.2016 00:08 9,2 C 82 % 1017,3 hPa 0,0 l/m 5,1 km/h (1 Bft) S-SW 207 0 min 0,000 mm 0,0 UV-I 0 W/m 6,3 C 9,2 C 8,0 km/h (2 Bft) 95,83 %
18.05.2016 00:09 9,2 C 82 % 1017,3 hPa 0,0 l/m 4,8 km/h (1 Bft) S-SW 192 0 min 0,000 mm 0,0 UV-I 0 W/m 6,3 C 9,2 C 8,0 km/h (2 Bft) 95,65 %
18.05.2016 00:10 9,2 C 82 % 1017,4 hPa 0,0 l/m 5,8 km/h (2 Bft) S-SW 193 0 min 0,000 mm 0,0 UV-I 0 W/m 6,3 C 9,2 C 8,0 km/h (2 Bft) 100,00 %
18.05.2016 00:11 9,2 C 82 % 1017,4 hPa 0,0 l/m 4,3 km/h (1 Bft) SW 219 0 min 0,000 mm 0,0 UV-I 0 W/m 6,3 C 9,2 C 6,4 km/h (2 Bft) 95,65 %
18.05.2016 00:12 9,2 C 82 % 1017,3 hPa 0,0 l/m 3,4 km/h (1 Bft) S 176 0 min 0,000 mm 0,0 UV-I 0 W/m 6,3 C 9,2 C 8,0 km/h (2 Bft) 100,00 %
18.05.2016 00:13 9,2 C 82 % 1017,4 hPa 0,0 l/m 5,8 km/h (2 Bft) S-SW 199 0 min 0,000 mm 0,0 UV-I 0 W/m 6,3 C 9,2 C 8,0 km/h (2 Bft) 91,30 %
18.05.2016 00:14 9,2 C 82 % 1017,3 hPa 0,0 l/m 4,5 km/h (1 Bft) S-SW 202 0 min 0,000 mm 0,0 UV-I 0 W/m 6,3 C 9,2 C 8,0 km/h (2 Bft) 100,00 %
18.05.2016 00:15 9,2 C 82 % 1017,3 hPa 0,0 l/m 3,0 km/h (1 Bft) S-SW 194 0 min 0,000 mm 0,0 UV-I 0 W/m 6,3 C 9,2 C 4,8 km/h (1 Bft) 96,30 %
18.05.2016 00:16 9,2 C 82 % 1017,3 hPa 0,0 l/m 3,2 km/h (1 Bft) S-SW 213 0 min 0,000 mm 0,0 UV-I 0 W/m 6,3 C 9,2 C 4,8 km/h (1 Bft) 100,00 %
18.05.2016 00:17 9,2 C 82 % 1017,3 hPa 0,0 l/m 4,5 km/h (1 Bft) S-SO 161 0 min 0,000 mm 0,0 UV-I 0 W/m 6,3 C 9,2 C 8,0 km/h (2 Bft) 96,30 %
18.05.2016 00:18 9,3 C 82 % 1017,4 hPa 0,0 l/m 4,1 km/h (1 Bft) SW 219 0 min 0,000 mm 0,0 UV-I 0 W/m 6,4 C 9,3 C 6,4 km/h (2 Bft) 96,15 %
18.05.2016 00:19 9,2 C 82 % 1017,4 hPa 0,0 l/m 2,0 km/h (1 Bft) SW 219 0 min 0,000 mm 0,0 UV-I 0 W/m 6,3 C 9,2 C 3,2 km/h (1 Bft) 100,00 %
18.05.2016 00:20 9,2 C 82 % 1017,4 hPa 0,0 l/m 4,3 km/h (1 Bft) SW 219 0 min 0,000 mm 0,0 UV-I 0 W/m 6,3 C 9,2 C 6,4 km/h (2 Bft) 96,15 %
18.05.2016 00:21 9,2 C 82 % 1017,4 hPa 0,0 l/m 3,4 km/h (1 Bft) SW 219 0 min 0,000 mm 0,0 UV-I 0 W/m 6,3 C 9,2 C 4,8 km/h (1 Bft) 100,00 %
18.05.2016 00:22 9,2 C 82 % 1017,4 hPa 0,0 l/m 3,7 km/h (1 Bft) SW 224 0 min 0,000 mm 0,0 UV-I 0 W/m 6,3 C 9,2 C 6,4 km/h (2 Bft) 95,65 %
18.05.2016 00:23 9,2 C 82 % 1017,3 hPa 0,0 l/m 3,7 km/h (1 Bft) SW 227 0 min 0,000 mm 0,0 UV-I 0 W/m 6,3 C 9,2 C 4,8 km/h (1 Bft) 100,00 %
18.05.2016 00:24 9,2 C 82 % 1017,4 hPa 0,0 l/m 3,9 km/h (1 Bft) S-SW 201 0 min 0,000 mm 0,0 UV-I 0 W/m 6,3 C 9,2 C 6,4 km/h (2 Bft) 96,55 %
18.05.2016 00:25 9,2 C 82 % 1017,4 hPa 0,0 l/m 3,7 km/h (1 Bft) S-SW 203 0 min 0,000 mm 0,0 UV-I 0 W/m 6,3 C 9,2 C 6,4 km/h (2 Bft) 100,00 %
18.05.2016 00:26 9,2 C 82 % 1017,4 hPa 0,0 l/m 2,4 km/h (1 Bft) S-SW 203 0 min 0,000 mm 0,0 UV-I 0 W/m 6,3 C 9,2 C 4,8 km/h (1 Bft) 95,65 %
18.05.2016 00:27 9,2 C 82 % 1017,3 hPa 0,0 l/m 2,3 km/h (1 Bft) S-SW 203 0 min 0,000 mm 0,0 UV-I 0 W/m 6,3 C 9,2 C 3,2 km/h (1 Bft) 100,00 %
18.05.2016 00:28 9,2 C 83 % 1017,3 hPa 0,0 l/m 4,6 km/h (1 Bft) S-SW 209 0 min 0,000 mm 0,0 UV-I 0 W/m 6,5 C 9,2 C 6,4 km/h (2 Bft) 97,43 %
18.05.2016 00:29 9,1 C 83 % 1017,3 hPa 0,0 l/m 3,8 km/h (1 Bft) S-SW 209 0 min 0,000 mm 0,0 UV-I 0 W/m 6,4 C 9,1 C 4,8 km/h (1 Bft) 100,00 %
18.05.2016 00:30 9,1 C 83 % 1017,3 hPa 0,0 l/m 4,1 km/h (1 Bft) S-SW 203 0 min 0,000 mm 0,0 UV-I 0 W/m 6,4 C 9,1 C 6,4 km/h (2 Bft) 92,31 %
18.05.2016 00:31 9,1 C 83 % 1017,2 hPa 0,0 l/m 3,4 km/h (1 Bft) S-SW 195 0 min 0,000 mm 0,0 UV-I 0 W/m 6,4 C 9,1 C 4,8 km/h (1 Bft) 93,33 %
18.05.2016 00:32 9,1 C 83 % 1017,2 hPa 0,0 l/m 2,3 km/h (1 Bft) S-SW 195 0 min 0,000 mm 0,0 UV-I 0 W/m 6,4 C 9,1 C 3,2 km/h (1 Bft) 100,00 %
18.05.2016 00:33 9,1 C 83 % 1017,2 hPa 0,0 l/m 2,9 km/h (1 Bft) S-SW 200 0 min 0,000 mm 0,0 UV-I 0 W/m 6,4 C 9,1 C 4,8 km/h (1 Bft) 91,30 %
18.05.2016 00:34 9,1 C 83 % 1017,2 hPa 0,0 l/m 3,3 km/h (1 Bft) S-SW 200 0 min 0,000 mm 0,0 UV-I 0 W/m 6,4 C 9,1 C 4,8 km/h (1 Bft) 100,00 %
18.05.2016 00:35 9,1 C 83 % 1017,2 hPa 0,0 l/m 3,7 km/h (1 Bft) S-SW 211 0 min 0,000 mm 0,0 UV-I 0 W/m 6,4 C 9,1 C 6,4 km/h (2 Bft) 100,00 %
18.05.2016 00:36 9,1 C 83 % 1017,2 hPa 0,0 l/m 3,6 km/h (1 Bft) S-SW 213 0 min 0,000 mm 0,0 UV-I 0 W/m 6,4 C 9,1 C 4,8 km/h (1 Bft) 100,00 %
18.05.2016 00:37 9,1 C 83 % 1017,2 hPa 0,0 l/m 4,7 km/h (1 Bft) SW 232 0 min 0,000 mm 0,0 UV-I 0 W/m 6,4 C 9,1 C 6,4 km/h (2 Bft) 100,00 %
18.05.2016 00:38 9,1 C 83 % 1017,3 hPa 0,0 l/m 4,8 km/h (1 Bft) SW 232 0 min 0,000 mm 0,0 UV-I 0 W/m 6,4 C 9,1 C 6,4 km/h (2 Bft) 100,00 %
18.05.2016 00:39 9,1 C 84 % 1017,2 hPa 0,0 l/m 4,3 km/h (1 Bft) SW 233 0 min 0,000 mm 0,0 UV-I 0 W/m 6,5 C 9,1 C 6,4 km/h (2 Bft) 100,00 %
18.05.2016 00:40 9,1 C 84 % 1017,2 hPa 0,0 l/m 5,1 km/h (1 Bft) SW 233 0 min 0,000 mm 0,0 UV-I 0 W/m 6,5 C 9,1 C 6,4 km/h (2 Bft) 100,00 %
18.05.2016 00:41 9,0 C 84 % 1017,2 hPa 0,0 l/m 4,1 km/h (1 Bft) SW 232 0 min 0,000 mm 0,0 UV-I 0 W/m 6,4 C 9,0 C 4,8 km/h (1 Bft) 100,00 %
18.05.2016 00:42 9,0 C 84 % 1017,2 hPa 0,0 l/m 3,6 km/h (1 Bft) SW 217 0 min 0,000 mm 0,0 UV-I 0 W/m 6,4 C 9,0 C 4,8 km/h (1 Bft) 100,00 %
18.05.2016 00:43 9,0 C 84 % 1017,2 hPa 0,0 l/m 3,2 km/h (1 Bft) SW 217 0 min 0,000 mm 0,0 UV-I 0 W/m 6,4 C 9,0 C 4,8 km/h (1 Bft) 100,00 %
18.05.2016 00:44 8,9 C 85 % 1017,2 hPa 0,0 l/m 3,1 km/h (1 Bft) SW 217 0 min 0,000 mm 0,0 UV-I 0 W/m 6,5 C 8,9 C 4,8 km/h (1 Bft) 97,91 %
18.05.2016 00:45 8,9 C 85 % 1017,2 hPa 0,0 l/m 3,4 km/h (1 Bft) SW 217 0 min 0,000 mm 0,0 UV-I 0 W/m 6,5 C 8,9 C 4,8 km/h (1 Bft) 100,00 %
18.05.2016 00:46 8,9 C 85 % 1017,2 hPa 0,0 l/m 3,0 km/h (1 Bft) SW 217 0 min 0,000 mm 0,0 UV-I 0 W/m 6,5 C 8,9 C 4,8 km/h (1 Bft) 100,00 %
18.05.2016 00:47 8,9 C 85 % 1017,2 hPa 0,0 l/m 3,1 km/h (1 Bft) SW 217 0 min 0,000 mm 0,0 UV-I 0 W/m 6,5 C 8,9 C 4,8 km/h (1 Bft) 100,00 %
18.05.2016 00:48 8,8 C 86 % 1017,2 hPa 0,0 l/m 2,7 km/h (1 Bft) SW 217 0 min 0,000 mm 0,0 UV-I 0 W/m 6,6 C 8,8 C 4,8 km/h (1 Bft) 100,00 %
18.05.2016 00:49 8,8 C 86 % 1017,2 hPa 0,0 l/m 4,0 km/h (1 Bft) SW 223 0 min 0,000 mm 0,0 UV-I 0 W/m 6,6 C 8,8 C 6,4 km/h (2 Bft) 100,00 %
18.05.2016 00:50 8,8 C 86 % 1017,2 hPa 0,0 l/m 3,4 km/h (1 Bft) SW 225 0 min 0,000 mm 0,0 UV-I 0 W/m 6,6 C 8,8 C 4,8 km/h (1 Bft) 95,65 %
18.05.2016 00:51 8,8 C 86 % 1017,2 hPa 0,0 l/m 4,5 km/h (1 Bft) SW 225 0 min 0,000 mm 0,0 UV-I 0 W/m 6,6 C 8,8 C 6,4 km/h (2 Bft) 100,00 %
18.05.2016 00:52 8,8 C 86 % 1017,2 hPa 0,0 l/m 4,7 km/h (1 Bft) SW 225 0 min 0,000 mm 0,0 UV-I 0 W/m 6,6 C 8,8 C 6,4 km/h (2 Bft) 97,37 %
18.05.2016 00:53 8,8 C 86 % 1017,2 hPa 0,0 l/m 3,1 km/h (1 Bft) SW 225 0 min 0,000 mm 0,0 UV-I 0 W/m 6,6 C 8,8 C 3,2 km/h (1 Bft) 100,00 %
18.05.2016 00:54 8,8 C 86 % 1017,2 hPa 0,0 l/m 2,5 km/h (1 Bft) SW 225 0 min 0,000 mm 0,0 UV-I 0 W/m 6,6 C 8,8 C 3,2 km/h (1 Bft) 100,00 %
18.05.2016 00:55 8,8 C 86 % 1017,2 hPa 0,0 l/m 3,1 km/h (1 Bft) SW 225 0 min 0,000 mm 0,0 UV-I 0 W/m 6,6 C 8,8 C 4,8 km/h (1 Bft) 100,00 %
18.05.2016 00:56 8,8 C 86 % 1017,2 hPa 0,0 l/m 3,4 km/h (1 Bft) SW 225 0 min 0,000 mm 0,0 UV-I 0 W/m 6,6 C 8,8 C 4,8 km/h (1 Bft) 100,00 %
18.05.2016 00:57 8,8 C 86 % 1017,1 hPa 0,0 l/m 3,9 km/h (1 Bft) SW 225 0 min 0,000 mm 0,0 UV-I 0 W/m 6,6 C 8,8 C 4,8 km/h (1 Bft) 100,00 %
18.05.2016 00:58 8,8 C 86 % 1017,1 hPa 0,0 l/m 3,2 km/h (1 Bft) SW 225 0 min 0,000 mm 0,0 UV-I 0 W/m 6,6 C 8,8 C 4,8 km/h (1 Bft) 100,00 %
18.05.2016 00:59 8,8 C 86 % 1017,1 hPa 0,0 l/m 3,9 km/h (1 Bft) SW 225 0 min 0,000 mm 0,0 UV-I 0 W/m 6,6 C 8,8 C 4,8 km/h (1 Bft) 100,00 %
18.05.2016 01:00 8,8 C 86 % 1017,1 hPa 0,0 l/m 3,1 km/h (1 Bft) SW 225 0 min 0,000 mm 0,0 UV-I 0 W/m 6,6 C 8,8 C 4,8 km/h (1 Bft) 100,00 %
18.05.2016 01:01 8,7 C 86 % 1017,1 hPa 0,0 l/m 3,7 km/h (1 Bft) SW 225 0 min 0,000 mm 0,0 UV-I 0 W/m 6,5 C 8,7 C 4,8 km/h (1 Bft) 100,00 %
18.05.2016 01:02 8,7 C 86 % 1017,1 hPa 0,0 l/m 4,0 km/h (1 Bft) SW 215 0 min 0,000 mm 0,0 UV-I 0 W/m 6,5 C 8,7 C 4,8 km/h (1 Bft) 100,00 %
18.05.2016 01:03 8,8 C 86 % 1017,1 hPa 0,0 l/m 3,0 km/h (1 Bft) SW 215 0 min 0,000 mm 0,0 UV-I 0 W/m 6,6 C 8,8 C 4,8 km/h (1 Bft) 100,00 %
18.05.2016 01:04 8,8 C 86 % 1017,1 hPa 0,0 l/m 4,3 km/h (1 Bft) SW 217 0 min 0,000 mm 0,0 UV-I 0 W/m 6,6 C 8,8 C 6,4 km/h (2 Bft) 100,00 %
18.05.2016 01:05 8,8 C 86 % 1017,2 hPa 0,0 l/m 4,5 km/h (1 Bft) S-SW 213 0 min 0,000 mm 0,0 UV-I 0 W/m 6,6 C 8,8 C 6,4 km/h (2 Bft) 100,00 %
18.05.2016 01:06 8,7 C 86 % 1017,1 hPa 0,0 l/m 4,6 km/h (1 Bft) SW 219 0 min 0,000 mm 0,0 UV-I 0 W/m 6,5 C 8,7 C 6,4 km/h (2 Bft) 100,00 %
18.05.2016 01:07 8,7 C 86 % 1017,2 hPa 0,0 l/m 4,3 km/h (1 Bft) SW 214 0 min 0,000 mm 0,0 UV-I 0 W/m 6,5 C 8,7 C 6,4 km/h (2 Bft) 100,00 %
18.05.2016 01:08 8,7 C 86 % 1017,2 hPa 0,0 l/m 4,0 km/h (1 Bft) SW 222 0 min 0,000 mm 0,0 UV-I 0 W/m 6,5 C 8,7 C 6,4 km/h (2 Bft) 100,00 %
18.05.2016 01:09 8,7 C 86 % 1017,2 hPa 0,0 l/m 3,8 km/h (1 Bft) SW 223 0 min 0,000 mm 0,0 UV-I 0 W/m 6,5 C 8,7 C 4,8 km/h (1 Bft) 100,00 %
18.05.2016 01:10 8,7 C 86 % 1017,2 hPa 0,0 l/m 3,2 km/h (1 Bft) SW 223 0 min 0,000 mm 0,0 UV-I 0 W/m 6,5 C 8,7 C 4,8 km/h (1 Bft) 100,00 %
18.05.2016 01:11 8,7 C 86 % 1017,2 hPa 0,0 l/m 3,8 km/h (1 Bft) SW 228 0 min 0,000 mm 0,0 UV-I 0 W/m 6,5 C 8,7 C 6,4 km/h (2 Bft) 100,00 %
18.05.2016 01:12 8,7 C 86 % 1017,1 hPa 0,0 l/m 4,2 km/h (1 Bft) SW 228 0 min 0,000 mm 0,0 UV-I 0 W/m 6,5 C 8,7 C 6,4 km/h (2 Bft) 100,00 %
18.05.2016 01:13 8,7 C 87 % 1017,1 hPa 0,0 l/m 4,1 km/h (1 Bft) SW 228 0 min 0,000 mm 0,0 UV-I 0 W/m 6,7 C 8,7 C 4,8 km/h (1 Bft) 100,00 %
18.05.2016 01:14 8,7 C 87 % 1017,1 hPa 0,0 l/m 3,0 km/h (1 Bft) SW 228 0 min 0,000 mm 0,0 UV-I 0 W/m 6,7 C 8,7 C 4,8 km/h (1 Bft) 100,00 %
18.05.2016 01:15 8,7 C 86 % 1017,1 hPa 0,0 l/m 3,3 km/h (1 Bft) SW 228 0 min 0,000 mm 0,0 UV-I 0 W/m 6,5 C 8,7 C 4,8 km/h (1 Bft) 100,00 %
18.05.2016 01:16 8,7 C 86 % 1017,1 hPa 0,0 l/m 3,2 km/h (1 Bft) SW 228 0 min 0,000 mm 0,0 UV-I 0 W/m 6,5 C 8,7 C 4,8 km/h (1 Bft) 100,00 %
18.05.2016 01:17 8,7 C 86 % 1017,0 hPa 0,0 l/m 2,6 km/h (1 Bft) SW 228 0 min 0,000 mm 0,0 UV-I 0 W/m 6,5 C 8,7 C 3,2 km/h (1 Bft) 95,65 %
18.05.2016 01:18 8,7 C 86 % 1017,0 hPa 0,0 l/m 3,9 km/h (1 Bft) SW 219 0 min 0,000 mm 0,0 UV-I 0 W/m 6,5 C 8,7 C 4,8 km/h (1 Bft) 96,30 %
18.05.2016 01:19 8,7 C 86 % 1017,1 hPa 0,0 l/m 5,5 km/h (1 Bft) S-SW 205 0 min 0,000 mm 0,0 UV-I 0 W/m 6,5 C 8,7 C 6,4 km/h (2 Bft) 100,00 %
18.05.2016 01:20 8,7 C 87 % 1017,0 hPa 0,0 l/m 4,4 km/h (1 Bft) S-SW 205 0 min 0,000 mm 0,0 UV-I 0 W/m 6,7 C 8,7 C 4,8 km/h (1 Bft) 100,00 %
18.05.2016 01:21 8,7 C 86 % 1017,0 hPa 0,0 l/m 5,1 km/h (1 Bft) S-SW 193 0 min 0,000 mm 0,0 UV-I 0 W/m 6,5 C 8,7 C 8,0 km/h (2 Bft) 100,00 %
18.05.2016 01:22 8,7 C 86 % 1017,1 hPa 0,0 l/m 5,6 km/h (1 Bft) S-SW 192 0 min 0,000 mm 0,0 UV-I 0 W/m 6,5 C 8,7 C 8,0 km/h (2 Bft) 100,00 %
18.05.2016 01:23 8,7 C 87 % 1017,0 hPa 0,0 l/m 4,3 km/h (1 Bft) S-SW 192 0 min 0,000 mm 0,0 UV-I 0 W/m 6,7 C 8,7 C 6,4 km/h (2 Bft) 96,15 %
18.05.2016 01:24 8,7 C 87 % 1017,0 hPa 0,0 l/m 4,7 km/h (1 Bft) SW 215 0 min 0,000 mm 0,0 UV-I 0 W/m 6,7 C 8,7 C 8,0 km/h (2 Bft) 100,00 %
18.05.2016 01:25 8,7 C 86 % 1017,1 hPa 0,0 l/m 4,8 km/h (1 Bft) SW 227 0 min 0,000 mm 0,0 UV-I 0 W/m 6,5 C 8,7 C 6,4 km/h (2 Bft) 100,00 %
18.05.2016 01:26 8,7 C 86 % 1017,0 hPa 0,0 l/m 4,7 km/h (1 Bft) W-SW 241 0 min 0,000 mm 0,0 UV-I 0 W/m 6,5 C 8,7 C 8,0 km/h (2 Bft) 100,00 %
18.05.2016 01:27 8,7 C 86 % 1017,0 hPa 0,0 l/m 3,1 km/h (1 Bft) SW 234 0 min 0,000 mm 0,0 UV-I 0 W/m 6,5 C 8,7 C 3,2 km/h (1 Bft) 96,15 %
18.05.2016 01:28 8,7 C 85 % 1017,0 hPa 0,0 l/m 3,7 km/h (1 Bft) SW 234 0 min 0,000 mm 0,0 UV-I 0 W/m 6,3 C 8,7 C 4,8 km/h (1 Bft) 100,00 %
18.05.2016 01:29 8,7 C 85 % 1017,0 hPa 0,0 l/m 3,6 km/h (1 Bft) SW 219 0 min 0,000 mm 0,0 UV-I 0 W/m 6,3 C 8,7 C 4,8 km/h (1 Bft) 95,65 %
18.05.2016 01:30 8,7 C 85 % 1017,0 hPa 0,0 l/m 3,4 km/h (1 Bft) SW 221 0 min 0,000 mm 0,0 UV-I 0 W/m 6,3 C 8,7 C 6,4 km/h (2 Bft) 95,83 %
18.05.2016 01:31 8,8 C 85 % 1017,0 hPa 0,0 l/m 5,3 km/h (1 Bft) S-SW 198 0 min 0,000 mm 0,0 UV-I 0 W/m 6,4 C 8,8 C 6,4 km/h (2 Bft) 100,00 %
18.05.2016 01:32 8,7 C 86 % 1017,0 hPa 0,0 l/m 4,2 km/h (1 Bft) S-SW 195 0 min 0,000 mm 0,0 UV-I 0 W/m 6,5 C 8,7 C 6,4 km/h (2 Bft) 100,00 %
18.05.2016 01:33 8,7 C 85 % 1016,9 hPa 0,0 l/m 4,0 km/h (1 Bft) S-SW 195 0 min 0,000 mm 0,0 UV-I 0 W/m 6,3 C 8,7 C 4,8 km/h (1 Bft) 100,00 %
18.05.2016 01:34 8,7 C 86 % 1017,0 hPa 0,0 l/m 3,8 km/h (1 Bft) S-SW 196 0 min 0,000 mm 0,0 UV-I 0 W/m 6,5 C 8,7 C 4,8 km/h (1 Bft) 100,00 %
18.05.2016 01:35 8,7 C 86 % 1017,0 hPa 0,0 l/m 2,9 km/h (1 Bft) S-SW 195 0 min 0,000 mm 0,0 UV-I 0 W/m 6,5 C 8,7 C 4,8 km/h (1 Bft) 100,00 %
18.05.2016 01:36 8,7 C 86 % 1017,0 hPa 0,0 l/m 3,2 km/h (1 Bft) S-SW 195 0 min 0,000 mm 0,0 UV-I 0 W/m 6,5 C 8,7 C 4,8 km/h (1 Bft) 95,65 %
18.05.2016 01:37 8,7 C 86 % 1017,0 hPa 0,0 l/m 4,0 km/h (1 Bft) S-SW 195 0 min 0,000 mm 0,0 UV-I 0 W/m 6,5 C 8,7 C 4,8 km/h (1 Bft) 100,00 %
18.05.2016 01:38 8,7 C 86 % 1017,0 hPa 0,0 l/m 3,0 km/h (1 Bft) S-SW 196 0 min 0,000 mm 0,0 UV-I 0 W/m 6,5 C 8,7 C 4,8 km/h (1 Bft) 100,00 %
18.05.2016 01:39 8,7 C 86 % 1016,9 hPa 0,0 l/m 4,2 km/h (1 Bft) S-SW 193 0 min 0,000 mm 0,0 UV-I 0 W/m 6,5 C 8,7 C 6,4 km/h (2 Bft) 100,00 %
18.05.2016 01:40 8,7 C 86 % 1016,9 hPa 0,0 l/m 4,6 km/h (1 Bft) S-SW 192 0 min 0,000 mm 0,0 UV-I 0 W/m 6,5 C 8,7 C 6,4 km/h (2 Bft) 100,00 %
18.05.2016 01:41 8,7 C 86 % 1016,9 hPa 0,0 l/m 4,2 km/h (1 Bft) S 191 0 min 0,000 mm 0,0 UV-I 0 W/m 6,5 C 8,7 C 6,4 km/h (2 Bft) 100,00 %
18.05.2016 01:42 8,7 C 86 % 1016,9 hPa 0,0 l/m 5,0 km/h (1 Bft) S 191 0 min 0,000 mm 0,0 UV-I 0 W/m 6,5 C 8,7 C 6,4 km/h (2 Bft) 100,00 %
18.05.2016 01:43 8,7 C 86 % 1016,8 hPa 0,0 l/m 3,9 km/h (1 Bft) S 189 0 min 0,000 mm 0,0 UV-I 0 W/m 6,5 C 8,7 C 4,8 km/h (1 Bft) 100,00 %
18.05.2016 01:44 8,7 C 86 % 1016,8 hPa 0,0 l/m 5,0 km/h (1 Bft) S-SW 196 0 min 0,000 mm 0,0 UV-I 0 W/m 6,5 C 8,7 C 6,4 km/h (2 Bft) 100,00 %
18.05.2016 01:45 8,7 C 86 % 1016,8 hPa 0,0 l/m 5,1 km/h (1 Bft) S 190 0 min 0,000 mm 0,0 UV-I 0 W/m 6,5 C 8,7 C 6,4 km/h (2 Bft) 100,00 %
18.05.2016 01:46 8,7 C 87 % 1016,9 hPa 0,0 l/m 5,6 km/h (1 Bft) S-SW 193 0 min 0,000 mm 0,0 UV-I 0 W/m 6,7 C 8,7 C 6,4 km/h (2 Bft) 100,00 %
18.05.2016 01:47 8,7 C 87 % 1016,8 hPa 0,0 l/m 4,3 km/h (1 Bft) S-SW 194 0 min 0,000 mm 0,0 UV-I 0 W/m 6,7 C 8,7 C 6,4 km/h (2 Bft) 100,00 %
18.05.2016 01:48 8,7 C 87 % 1016,8 hPa 0,0 l/m 5,4 km/h (1 Bft) S-SW 213 0 min 0,000 mm 0,0 UV-I 0 W/m 6,7 C 8,7 C 6,4 km/h (2 Bft) 100,00 %
18.05.2016 01:49 8,6 C 87 % 1016,8 hPa 0,0 l/m 5,0 km/h (1 Bft) S 186 0 min 0,000 mm 0,0 UV-I 0 W/m 6,6 C 8,6 C 6,4 km/h (2 Bft) 100,00 %
18.05.2016 01:50 8,6 C 87 % 1016,8 hPa 0,0 l/m 4,5 km/h (1 Bft) S 188 0 min 0,000 mm 0,0 UV-I 0 W/m 6,6 C 8,6 C 6,4 km/h (2 Bft) 100,00 %
18.05.2016 01:51 8,6 C 87 % 1016,8 hPa 0,0 l/m 4,3 km/h (1 Bft) S 189 0 min 0,000 mm 0,0 UV-I 0 W/m 6,6 C 8,6 C 6,4 km/h (2 Bft) 100,00 %
18.05.2016 01:52 8,6 C 87 % 1016,7 hPa 0,0 l/m 4,1 km/h (1 Bft) S 190 0 min 0,000 mm 0,0 UV-I 0 W/m 6,6 C 8,6 C 4,8 km/h (1 Bft) 100,00 %
18.05.2016 01:53 8,6 C 87 % 1016,8 hPa 0,0 l/m 3,8 km/h (1 Bft) S 190 0 min 0,000 mm 0,0 UV-I 0 W/m 6,6 C 8,6 C 4,8 km/h (1 Bft) 96,15 %
18.05.2016 01:54 8,6 C 87 % 1016,8 hPa 0,0 l/m 4,5 km/h (1 Bft) S-SO 158 0 min 0,000 mm 0,0 UV-I 0 W/m 6,6 C 8,6 C 6,4 km/h (2 Bft) 100,00 %
18.05.2016 01:55 8,6 C 87 % 1016,8 hPa 0,0 l/m 5,7 km/h (1 Bft) S-SW 200 0 min 0,000 mm 0,0 UV-I 0 W/m 6,6 C 8,6 C 8,0 km/h (2 Bft) 95,65 %
18.05.2016 01:56 8,6 C 87 % 1016,8 hPa 0,0 l/m 4,2 km/h (1 Bft) S-SW 202 0 min 0,000 mm 0,0 UV-I 0 W/m 6,6 C 8,6 C 8,0 km/h (2 Bft) 100,00 %
18.05.2016 01:57 8,6 C 87 % 1016,7 hPa 0,0 l/m 4,7 km/h (1 Bft) S 176 0 min 0,000 mm 0,0 UV-I 0 W/m 6,6 C 8,6 C 6,4 km/h (2 Bft) 92,86 %
18.05.2016 01:58 8,6 C 87 % 1016,7 hPa 0,0 l/m 3,5 km/h (1 Bft) S 174 0 min 0,000 mm 0,0 UV-I 0 W/m 6,6 C 8,6 C 4,8 km/h (1 Bft) 100,00 %
18.05.2016 01:59 8,6 C 87 % 1016,7 hPa 0,0 l/m 5,5 km/h (1 Bft) S-SW 195 0 min 0,000 mm 0,0 UV-I 0 W/m 6,6 C 8,6 C 6,4 km/h (2 Bft) 96,15 %
18.05.2016 02:00 8,6 C 87 % 1016,7 hPa 0,0 l/m 4,1 km/h (1 Bft) S 189 0 min 0,000 mm 0,0 UV-I 0 W/m 6,6 C 8,6 C 4,8 km/h (1 Bft) 96,30 %
18.05.2016 02:01 8,6 C 87 % 1016,7 hPa 0,0 l/m 2,8 km/h (1 Bft) S-SW 192 0 min 0,000 mm 0,0 UV-I 0 W/m 6,6 C 8,6 C 4,8 km/h (1 Bft) 100,00 %
18.05.2016 02:02 8,6 C 87 % 1016,6 hPa 0,0 l/m 3,9 km/h (1 Bft) S 185 0 min 0,000 mm 0,0 UV-I 0 W/m 6,6 C 8,6 C 4,8 km/h (1 Bft) 100,00 %
18.05.2016 02:03 8,6 C 87 % 1016,6 hPa 0,0 l/m 4,1 km/h (1 Bft) S 184 0 min 0,000 mm 0,0 UV-I 0 W/m 6,6 C 8,6 C 4,8 km/h (1 Bft) 95,65 %
18.05.2016 02:04 8,6 C 86 % 1016,6 hPa 0,0 l/m 4,8 km/h (1 Bft) S 177 0 min 0,000 mm 0,0 UV-I 0 W/m 6,4 C 8,6 C 6,4 km/h (2 Bft) 96,67 %
18.05.2016 02:05 8,6 C 86 % 1016,6 hPa 0,0 l/m 4,1 km/h (1 Bft) S 182 0 min 0,000 mm 0,0 UV-I 0 W/m 6,4 C 8,6 C 4,8 km/h (1 Bft) 100,00 %
18.05.2016 02:06 8,6 C 86 % 1016,6 hPa 0,0 l/m 5,0 km/h (1 Bft) S 170 0 min 0,000 mm 0,0 UV-I 0 W/m 6,4 C 8,6 C 6,4 km/h (2 Bft) 95,83 %
18.05.2016 02:07 8,6 C 86 % 1016,6 hPa 0,0 l/m 5,3 km/h (1 Bft) S 188 0 min 0,000 mm 0,0 UV-I 0 W/m 6,4 C 8,6 C 8,0 km/h (2 Bft) 100,00 %
18.05.2016 02:08 8,6 C 86 % 1016,6 hPa 0,0 l/m 4,4 km/h (1 Bft) S 188 0 min 0,000 mm 0,0 UV-I 0 W/m 6,4 C 8,6 C 6,4 km/h (2 Bft) 91,67 %
18.05.2016 02:09 8,6 C 86 % 1016,6 hPa 0,0 l/m 4,1 km/h (1 Bft) S 188 0 min 0,000 mm 0,0 UV-I 0 W/m 6,4 C 8,6 C 4,8 km/h (1 Bft) 95,65 %
18.05.2016 02:10 8,6 C 86 % 1016,6 hPa 0,0 l/m 4,0 km/h (1 Bft) S 188 0 min 0,000 mm 0,0 UV-I 0 W/m 6,4 C 8,6 C 4,8 km/h (1 Bft) 100,00 %
18.05.2016 02:11 8,6 C 87 % 1016,6 hPa 0,0 l/m 4,2 km/h (1 Bft) S-SW 206 0 min 0,000 mm 0,0 UV-I 0 W/m 6,6 C 8,6 C 4,8 km/h (1 Bft) 95,65 %
18.05.2016 02:12 8,6 C 87 % 1016,6 hPa 0,0 l/m 3,7 km/h (1 Bft) S-SW 206 0 min 0,000 mm 0,0 UV-I 0 W/m 6,6 C 8,6 C 4,8 km/h (1 Bft) 100,00 %
18.05.2016 02:13 8,6 C 87 % 1016,7 hPa 0,0 l/m 4,0 km/h (1 Bft) SW 216 0 min 0,000 mm 0,0 UV-I 0 W/m 6,6 C 8,6 C 4,8 km/h (1 Bft) 96,67 %
18.05.2016 02:14 8,6 C 87 % 1016,7 hPa 0,0 l/m 3,4 km/h (1 Bft) SW 215 0 min 0,000 mm 0,0 UV-I 0 W/m 6,6 C 8,6 C 4,8 km/h (1 Bft) 100,00 %
18.05.2016 02:15 8,6 C 87 % 1016,7 hPa 0,0 l/m 4,4 km/h (1 Bft) S-SW 200 0 min 0,000 mm 0,0 UV-I 0 W/m 6,6 C 8,6 C 6,4 km/h (2 Bft) 91,67 %
18.05.2016 02:16 8,6 C 87 % 1016,7 hPa 0,0 l/m 3,4 km/h (1 Bft) S-SW 202 0 min 0,000 mm 0,0 UV-I 0 W/m 6,6 C 8,6 C 4,8 km/h (1 Bft) 100,00 %
18.05.2016 02:17 8,6 C 87 % 1016,7 hPa 0,0 l/m 4,5 km/h (1 Bft) S-SW 207 0 min 0,000 mm 0,0 UV-I 0 W/m 6,6 C 8,6 C 6,4 km/h (2 Bft) 92,59 %
18.05.2016 02:18 8,5 C 87 % 1016,7 hPa 0,0 l/m 5,0 km/h (1 Bft) S 183 0 min 0,000 mm 0,0 UV-I 0 W/m 6,5 C 8,5 C 6,4 km/h (2 Bft) 92,86 %
18.05.2016 02:19 8,5 C 88 % 1016,7 hPa 0,0 l/m 5,9 km/h (2 Bft) S-SW 195 0 min 0,000 mm 0,0 UV-I 0 W/m 6,6 C 8,5 C 6,4 km/h (2 Bft) 96,67 %
18.05.2016 02:20 8,5 C 88 % 1016,6 hPa 0,0 l/m 4,8 km/h (1 Bft) S 188 0 min 0,000 mm 0,0 UV-I 0 W/m 6,6 C 8,5 C 6,4 km/h (2 Bft) 91,30 %
18.05.2016 02:21 8,5 C 88 % 1016,6 hPa 0,0 l/m 5,1 km/h (1 Bft) S-SW 196 0 min 0,000 mm 0,0 UV-I 0 W/m 6,6 C 8,5 C 6,4 km/h (2 Bft) 100,00 %
18.05.2016 02:22 8,5 C 88 % 1016,6 hPa 0,0 l/m 4,1 km/h (1 Bft) S-SW 196 0 min 0,000 mm 0,0 UV-I 0 W/m 6,6 C 8,5 C 4,8 km/h (1 Bft) 95,65 %
18.05.2016 02:23 8,5 C 88 % 1016,6 hPa 0,0 l/m 4,0 km/h (1 Bft) S-SW 192 0 min 0,000 mm 0,0 UV-I 0 W/m 6,6 C 8,5 C 4,8 km/h (1 Bft) 100,00 %
18.05.2016 02:24 8,5 C 88 % 1016,5 hPa 0,0 l/m 4,0 km/h (1 Bft) S-SW 192 0 min 0,000 mm 0,0 UV-I 0 W/m 6,6 C 8,5 C 4,8 km/h (1 Bft) 92,86 %
18.05.2016 02:25 8,5 C 88 % 1016,5 hPa 0,0 l/m 3,7 km/h (1 Bft) S 178 0 min 0,000 mm 0,0 UV-I 0 W/m 6,6 C 8,5 C 6,4 km/h (2 Bft) 100,00 %
18.05.2016 02:26 8,5 C 88 % 1016,5 hPa 0,0 l/m 3,2 km/h (1 Bft) S 178 0 min 0,000 mm 0,0 UV-I 0 W/m 6,6 C 8,5 C 4,8 km/h (1 Bft) 100,00 %
18.05.2016 02:27 8,5 C 88 % 1016,5 hPa 0,0 l/m 3,4 km/h (1 Bft) S 178 0 min 0,000 mm 0,0 UV-I 0 W/m 6,6 C 8,5 C 4,8 km/h (1 Bft) 95,83 %
18.05.2016 02:28 8,5 C 88 % 1016,5 hPa 0,0 l/m 3,6 km/h (1 Bft) S 182 0 min 0,000 mm 0,0 UV-I 0 W/m 6,6 C 8,5 C 6,4 km/h (2 Bft) 95,83 %
18.05.2016 02:29 8,5 C 88 % 1016,5 hPa 0,0 l/m 4,3 km/h (1 Bft) S 188 0 min 0,000 mm 0,0 UV-I 0 W/m 6,6 C 8,5 C 6,4 km/h (2 Bft) 100,00 %
18.05.2016 02:30 8,5 C 88 % 1016,5 hPa 0,0 l/m 3,6 km/h (1 Bft) S 188 0 min 0,000 mm 0,0 UV-I 0 W/m 6,6 C 8,5 C 4,8 km/h (1 Bft) 100,00 %
18.05.2016 02:31 8,4 C 88 % 1016,5 hPa 0,0 l/m 2,7 km/h (1 Bft) S 188 0 min 0,000 mm 0,0 UV-I 0 W/m 6,5 C 8,4 C 3,2 km/h (1 Bft) 100,00 %
18.05.2016 02:32 8,5 C 88 % 1016,5 hPa 0,0 l/m 3,8 km/h (1 Bft) S 188 0 min 0,000 mm 0,0 UV-I 0 W/m 6,6 C 8,5 C 4,8 km/h (1 Bft) 100,00 %
18.05.2016 02:33 8,5 C 88 % 1016,5 hPa 0,0 l/m 4,8 km/h (1 Bft) S-SW 207 0 min 0,000 mm 0,0 UV-I 0 W/m 6,6 C 8,5 C 6,4 km/h (2 Bft) 100,00 %
18.05.2016 02:34 8,5 C 88 % 1016,5 hPa 0,0 l/m 3,3 km/h (1 Bft) S-SW 206 0 min 0,000 mm 0,0 UV-I 0 W/m 6,6 C 8,5 C 4,8 km/h (1 Bft) 100,00 %
18.05.2016 02:35 8,4 C 88 % 1016,5 hPa 0,0 l/m 4,3 km/h (1 Bft) S 176 0 min 0,000 mm 0,0 UV-I 0 W/m 6,5 C 8,4 C 6,4 km/h (2 Bft) 100,00 %
18.05.2016 02:36 8,4 C 88 % 1016,5 hPa 0,0 l/m 3,9 km/h (1 Bft) S 186 0 min 0,000 mm 0,0 UV-I 0 W/m 6,5 C 8,4 C 4,8 km/h (1 Bft) 100,00 %
18.05.2016 02:37 8,4 C 88 % 1016,5 hPa 0,0 l/m 3,9 km/h (1 Bft) S-SW 192 0 min 0,000 mm 0,0 UV-I 0 W/m 6,5 C 8,4 C 6,4 km/h (2 Bft) 95,65 %
18.05.2016 02:38 8,4 C 88 % 1016,5 hPa 0,0 l/m 3,3 km/h (1 Bft) S-SW 192 0 min 0,000 mm 0,0 UV-I 0 W/m 6,5 C 8,4 C 4,8 km/h (1 Bft) 100,00 %
18.05.2016 02:39 8,4 C 88 % 1016,5 hPa 0,0 l/m 3,5 km/h (1 Bft) S-SW 192 0 min 0,000 mm 0,0 UV-I 0 W/m 6,5 C 8,4 C 4,8 km/h (1 Bft) 100,00 %
18.05.2016 02:40 8,4 C 88 % 1016,5 hPa 0,0 l/m 3,5 km/h (1 Bft) S-SW 192 0 min 0,000 mm 0,0 UV-I 0 W/m 6,5 C 8,4 C 4,8 km/h (1 Bft) 100,00 %
18.05.2016 02:41 8,4 C 88 % 1016,4 hPa 0,0 l/m 4,1 km/h (1 Bft) S-SW 192 0 min 0,000 mm 0,0 UV-I 0 W/m 6,5 C 8,4 C 4,8 km/h (1 Bft) 100,00 %
18.05.2016 02:42 8,4 C 88 % 1016,5 hPa 0,0 l/m 4,1 km/h (1 Bft) S-SW 193 0 min 0,000 mm 0,0 UV-I 0 W/m 6,5 C 8,4 C 6,4 km/h (2 Bft) 100,00 %
18.05.2016 02:43 8,4 C 88 % 1016,4 hPa 0,0 l/m 5,7 km/h (1 Bft) S-SW 197 0 min 0,000 mm 0,0 UV-I 0 W/m 6,5 C 8,4 C 8,0 km/h (2 Bft) 100,00 %
18.05.2016 02:44 8,4 C 88 % 1016,4 hPa 0,0 l/m 6,4 km/h (2 Bft) S-SW 196 0 min 0,000 mm 0,0 UV-I 0 W/m 6,5 C 8,4 C 8,0 km/h (2 Bft) 94,44 %
18.05.2016 02:45 8,4 C 88 % 1016,4 hPa 0,0 l/m 6,3 km/h (2 Bft) S-SW 198 0 min 0,000 mm 0,0 UV-I 0 W/m 6,5 C 8,4 C 8,0 km/h (2 Bft) 98,52 %
18.05.2016 02:46 8,4 C 88 % 1016,4 hPa 0,0 l/m 5,4 km/h (1 Bft) SW 218 0 min 0,000 mm 0,0 UV-I 0 W/m 6,5 C 8,4 C 8,0 km/h (2 Bft) 100,00 %
18.05.2016 02:47 8,4 C 88 % 1016,4 hPa 0,0 l/m 5,9 km/h (2 Bft) S-SW 202 0 min 0,000 mm 0,0 UV-I 0 W/m 6,5 C 8,4 C 8,0 km/h (2 Bft) 100,00 %
18.05.2016 02:48 8,4 C 88 % 1016,5 hPa 0,0 l/m 4,6 km/h (1 Bft) S-SW 198 0 min 0,000 mm 0,0 UV-I 0 W/m 6,5 C 8,4 C 6,4 km/h (2 Bft) 93,33 %
18.05.2016 02:49 8,4 C 88 % 1016,4 hPa 0,0 l/m 4,6 km/h (1 Bft) S-SW 212 0 min 0,000 mm 0,0 UV-I 0 W/m 6,5 C 8,4 C 8,0 km/h (2 Bft) 100,00 %
18.05.2016 02:50 8,4 C 88 % 1016,4 hPa 0,0 l/m 5,7 km/h (1 Bft) S 188 0 min 0,000 mm 0,0 UV-I 0 W/m 6,5 C 8,4 C 8,0 km/h (2 Bft) 100,00 %
18.05.2016 02:51 8,4 C 88 % 1016,4 hPa 0,0 l/m 4,1 km/h (1 Bft) S-SW 200 0 min 0,000 mm 0,0 UV-I 0 W/m 6,5 C 8,4 C 6,4 km/h (2 Bft) 100,00 %
18.05.2016 02:52 8,4 C 88 % 1016,4 hPa 0,0 l/m 6,2 km/h (2 Bft) S 178 0 min 0,000 mm 0,0 UV-I 0 W/m 6,5 C 8,4 C 8,0 km/h (2 Bft) 100,00 %
18.05.2016 02:53 8,4 C 88 % 1016,4 hPa 0,0 l/m 5,7 km/h (1 Bft) S-SW 196 0 min 0,000 mm 0,0 UV-I 0 W/m 6,5 C 8,4 C 8,0 km/h (2 Bft) 100,00 %
18.05.2016 02:54 8,4 C 87 % 1016,3 hPa 0,0 l/m 5,9 km/h (2 Bft) S-SW 205 0 min 0,000 mm 0,0 UV-I 0 W/m 6,4 C 8,4 C 8,0 km/h (2 Bft) 100,00 %
18.05.2016 02:55 8,4 C 87 % 1016,4 hPa 0,0 l/m 3,5 km/h (1 Bft) S-SW 211 0 min 0,000 mm 0,0 UV-I 0 W/m 6,4 C 8,4 C 6,4 km/h (2 Bft) 95,83 %
18.05.2016 02:56 8,4 C 87 % 1016,4 hPa 0,0 l/m 5,1 km/h (1 Bft) S-SW 207 0 min 0,000 mm 0,0 UV-I 0 W/m 6,4 C 8,4 C 8,0 km/h (2 Bft) 100,00 %
18.05.2016 02:57 8,4 C 87 % 1016,4 hPa 0,0 l/m 5,7 km/h (1 Bft) S 180 0 min 0,000 mm 0,0 UV-I 0 W/m 6,4 C 8,4 C 8,0 km/h (2 Bft) 100,00 %
18.05.2016 02:58 8,4 C 87 % 1016,4 hPa 0,0 l/m 7,7 km/h (2 Bft) S-SW 197 0 min 0,000 mm 0,0 UV-I 0 W/m 6,4 C 7,4 C 9,7 km/h (2 Bft) 100,00 %
18.05.2016 02:59 8,4 C 88 % 1016,3 hPa 0,0 l/m 6,9 km/h (2 Bft) S-SW 200 0 min 0,000 mm 0,0 UV-I 0 W/m 6,5 C 8,0 C 9,7 km/h (2 Bft) 100,00 %
18.05.2016 03:00 8,4 C 88 % 1016,3 hPa 0,0 l/m 6,0 km/h (2 Bft) S-SW 207 0 min 0,000 mm 0,0 UV-I 0 W/m 6,5 C 8,4 C 8,0 km/h (2 Bft) 100,00 %
18.05.2016 03:01 8,3 C 88 % 1016,3 hPa 0,0 l/m 6,0 km/h (2 Bft) S 175 0 min 0,000 mm 0,0 UV-I 0 W/m 6,4 C 8,3 C 9,7 km/h (2 Bft) 100,00 %
18.05.2016 03:02 8,3 C 88 % 1016,3 hPa 0,0 l/m 4,0 km/h (1 Bft) SW 215 0 min 0,000 mm 0,0 UV-I 0 W/m 6,4 C 8,3 C 6,4 km/h (2 Bft) 100,00 %
18.05.2016 03:03 8,3 C 88 % 1016,2 hPa 0,0 l/m 3,3 km/h (1 Bft) S-SW 202 0 min 0,000 mm 0,0 UV-I 0 W/m 6,4 C 8,3 C 4,8 km/h (1 Bft) 100,00 %
18.05.2016 03:04 8,3 C 88 % 1016,2 hPa 0,0 l/m 3,2 km/h (1 Bft) S-SW 202 0 min 0,000 mm 0,0 UV-I 0 W/m 6,4 C 8,3 C 4,8 km/h (1 Bft) 100,00 %
18.05.2016 03:05 8,3 C 88 % 1016,3 hPa 0,0 l/m 5,3 km/h (1 Bft) S-SW 205 0 min 0,000 mm 0,0 UV-I 0 W/m 6,4 C 8,3 C 8,0 km/h (2 Bft) 95,83 %
18.05.2016 03:06 8,3 C 88 % 1016,2 hPa 0,0 l/m 5,2 km/h (1 Bft) S 181 0 min 0,000 mm 0,0 UV-I 0 W/m 6,4 C 8,3 C 6,4 km/h (2 Bft) 100,00 %
18.05.2016 03:07 8,3 C 88 % 1016,2 hPa 0,0 l/m 4,2 km/h (1 Bft) S-SW 198 0 min 0,000 mm 0,0 UV-I 0 W/m 6,4 C 8,3 C 6,4 km/h (2 Bft) 100,00 %
18.05.2016 03:08 8,3 C 88 % 1016,2 hPa 0,0 l/m 3,4 km/h (1 Bft) S-SW 197 0 min 0,000 mm 0,0 UV-I 0 W/m 6,4 C 8,3 C 4,8 km/h (1 Bft) 100,00 %
18.05.2016 03:09 8,3 C 88 % 1016,2 hPa 0,0 l/m 4,7 km/h (1 Bft) S-SW 209 0 min 0,000 mm 0,0 UV-I 0 W/m 6,4 C 8,3 C 6,4 km/h (2 Bft) 100,00 %
18.05.2016 03:10 8,3 C 88 % 1016,2 hPa 0,0 l/m 4,1 km/h (1 Bft) S-SW 207 0 min 0,000 mm 0,0 UV-I 0 W/m 6,4 C 8,3 C 6,4 km/h (2 Bft) 100,00 %
18.05.2016 03:11 8,3 C 88 % 1016,2 hPa 0,0 l/m 4,6 km/h (1 Bft) SW 223 0 min 0,000 mm 0,0 UV-I 0 W/m 6,4 C 8,3 C 6,4 km/h (2 Bft) 100,00 %
18.05.2016 03:12 8,3 C 88 % 1016,2 hPa 0,0 l/m 4,2 km/h (1 Bft) SW 224 0 min 0,000 mm 0,0 UV-I 0 W/m 6,4 C 8,3 C 4,8 km/h (1 Bft) 100,00 %
18.05.2016 03:13 8,3 C 88 % 1016,2 hPa 0,0 l/m 4,0 km/h (1 Bft) SW 224 0 min 0,000 mm 0,0 UV-I 0 W/m 6,4 C 8,3 C 4,8 km/h (1 Bft) 96,88 %
18.05.2016 03:14 8,3 C 88 % 1016,3 hPa 0,0 l/m 2,7 km/h (1 Bft) SW 222 0 min 0,000 mm 0,0 UV-I 0 W/m 6,4 C 8,3 C 3,2 km/h (1 Bft) 100,00 %
18.05.2016 03:15 8,3 C 88 % 1016,2 hPa 0,0 l/m 3,4 km/h (1 Bft) SW 222 0 min 0,000 mm 0,0 UV-I 0 W/m 6,4 C 8,3 C 4,8 km/h (1 Bft) 100,00 %
18.05.2016 03:16 8,2 C 88 % 1016,2 hPa 0,0 l/m 3,4 km/h (1 Bft) SW 227 0 min 0,000 mm 0,0 UV-I 0 W/m 6,3 C 8,2 C 4,8 km/h (1 Bft) 100,00 %
18.05.2016 03:17 8,2 C 88 % 1016,2 hPa 0,0 l/m 3,7 km/h (1 Bft) SW 227 0 min 0,000 mm 0,0 UV-I 0 W/m 6,3 C 8,2 C 4,8 km/h (1 Bft) 97,56 %
18.05.2016 03:18 8,2 C 88 % 1016,2 hPa 0,0 l/m 4,3 km/h (1 Bft) SW 227 0 min 0,000 mm 0,0 UV-I 0 W/m 6,3 C 8,2 C 4,8 km/h (1 Bft) 100,00 %
18.05.2016 03:19 8,2 C 88 % 1016,1 hPa 0,0 l/m 4,4 km/h (1 Bft) SW 227 0 min 0,000 mm 0,0 UV-I 0 W/m 6,3 C 8,2 C 4,8 km/h (1 Bft) 100,00 %
18.05.2016 03:20 8,2 C 88 % 1016,1 hPa 0,0 l/m 3,9 km/h (1 Bft) SW 227 0 min 0,000 mm 0,0 UV-I 0 W/m 6,3 C 8,2 C 4,8 km/h (1 Bft) 100,00 %
18.05.2016 03:21 8,2 C 88 % 1016,1 hPa 0,0 l/m 3,0 km/h (1 Bft) SW 227 0 min 0,000 mm 0,0 UV-I 0 W/m 6,3 C 8,2 C 4,8 km/h (1 Bft) 100,00 %
18.05.2016 03:22 8,2 C 89 % 1016,1 hPa 0,0 l/m 3,1 km/h (1 Bft) SW 227 0 min 0,000 mm 0,0 UV-I 0 W/m 6,5 C 8,2 C 3,2 km/h (1 Bft) 100,00 %
18.05.2016 03:23 8,2 C 89 % 1016,1 hPa 0,0 l/m 3,4 km/h (1 Bft) SW 227 0 min 0,000 mm 0,0 UV-I 0 W/m 6,5 C 8,2 C 4,8 km/h (1 Bft) 100,00 %
18.05.2016 03:24 8,1 C 89 % 1016,1 hPa 0,0 l/m 3,7 km/h (1 Bft) SW 227 0 min 0,000 mm 0,0 UV-I 0 W/m 6,4 C 8,1 C 4,8 km/h (1 Bft) 100,00 %
18.05.2016 03:25 8,1 C 89 % 1016,1 hPa 0,0 l/m 3,8 km/h (1 Bft) SW 227 0 min 0,000 mm 0,0 UV-I 0 W/m 6,4 C 8,1 C 4,8 km/h (1 Bft) 100,00 %
18.05.2016 03:26 8,1 C 89 % 1016,2 hPa 0,0 l/m 4,6 km/h (1 Bft) SW 227 0 min 0,000 mm 0,0 UV-I 0 W/m 6,4 C 8,1 C 6,4 km/h (2 Bft) 100,00 %
18.05.2016 03:27 8,1 C 89 % 1016,2 hPa 0,0 l/m 3,8 km/h (1 Bft) SW 227 0 min 0,000 mm 0,0 UV-I 0 W/m 6,4 C 8,1 C 4,8 km/h (1 Bft) 98,71 %
18.05.2016 03:28 8,1 C 89 % 1016,1 hPa 0,0 l/m 3,3 km/h (1 Bft) SW 227 0 min 0,000 mm 0,0 UV-I 0 W/m 6,4 C 8,1 C 4,8 km/h (1 Bft) 100,00 %
18.05.2016 03:29 8,1 C 89 % 1016,1 hPa 0,0 l/m 3,7 km/h (1 Bft) S-SW 204 0 min 0,000 mm 0,0 UV-I 0 W/m 6,4 C 8,1 C 4,8 km/h (1 Bft) 100,00 %
18.05.2016 03:30 8,0 C 90 % 1016,1 hPa 0,0 l/m 5,1 km/h (1 Bft) S-SW 202 0 min 0,000 mm 0,0 UV-I 0 W/m 6,5 C 8,0 C 6,4 km/h (2 Bft) 100,00 %
18.05.2016 03:31 8,0 C 90 % 1016,1 hPa 0,0 l/m 3,6 km/h (1 Bft) S-SW 202 0 min 0,000 mm 0,0 UV-I 0 W/m 6,5 C 8,0 C 4,8 km/h (1 Bft) 100,00 %
18.05.2016 03:32 7,9 C 90 % 1016,1 hPa 0,0 l/m 4,9 km/h (1 Bft) S-SW 202 0 min 0,000 mm 0,0 UV-I 0 W/m 6,4 C 7,9 C 6,4 km/h (2 Bft) 100,00 %
18.05.2016 03:33 7,9 C 90 % 1016,1 hPa 0,0 l/m 4,7 km/h (1 Bft) SW 217 0 min 0,000 mm 0,0 UV-I 0 W/m 6,4 C 7,9 C 6,4 km/h (2 Bft) 100,00 %
18.05.2016 03:34 7,9 C 90 % 1016,1 hPa 0,0 l/m 5,7 km/h (1 Bft) S-SW 209 0 min 0,000 mm 0,0 UV-I 0 W/m 6,4 C 7,9 C 8,0 km/h (2 Bft) 100,00 %
18.05.2016 03:35 7,9 C 90 % 1016,1 hPa 0,0 l/m 5,6 km/h (1 Bft) S-SW 209 0 min 0,000 mm 0,0 UV-I 0 W/m 6,4 C 7,9 C 8,0 km/h (2 Bft) 100,00 %
18.05.2016 03:36 7,9 C 90 % 1016,1 hPa 0,0 l/m 6,1 km/h (2 Bft) S-SW 202 0 min 0,000 mm 0,0 UV-I 0 W/m 6,4 C 7,9 C 6,4 km/h (2 Bft) 100,00 %
18.05.2016 03:37 7,9 C 90 % 1016,0 hPa 0,0 l/m 6,7 km/h (2 Bft) S 185 0 min 0,000 mm 0,0 UV-I 0 W/m 6,4 C 7,7 C 8,0 km/h (2 Bft) 100,00 %
18.05.2016 03:38 7,9 C 90 % 1016,0 hPa 0,0 l/m 6,9 km/h (2 Bft) S 184 0 min 0,000 mm 0,0 UV-I 0 W/m 6,4 C 7,5 C 8,0 km/h (2 Bft) 100,00 %
18.05.2016 03:39 7,9 C 90 % 1016,1 hPa 0,0 l/m 5,4 km/h (1 Bft) S 188 0 min 0,000 mm 0,0 UV-I 0 W/m 6,4 C 7,9 C 8,0 km/h (2 Bft) 100,00 %
18.05.2016 03:40 7,9 C 90 % 1016,0 hPa 0,0 l/m 6,4 km/h (2 Bft) S-SW 196 0 min 0,000 mm 0,0 UV-I 0 W/m 6,4 C 7,9 C 8,0 km/h (2 Bft) 100,00 %
18.05.2016 03:41 7,9 C 90 % 1016,0 hPa 0,0 l/m 5,9 km/h (2 Bft) S-SW 204 0 min 0,000 mm 0,0 UV-I 0 W/m 6,4 C 7,9 C 6,4 km/h (2 Bft) 100,00 %
18.05.2016 03:42 7,9 C 90 % 1016,0 hPa 0,0 l/m 5,9 km/h (2 Bft) S 191 0 min 0,000 mm 0,0 UV-I 0 W/m 6,4 C 7,9 C 6,4 km/h (2 Bft) 100,00 %
18.05.2016 03:43 7,9 C 90 % 1016,0 hPa 0,0 l/m 4,7 km/h (1 Bft) S-SW 204 0 min 0,000 mm 0,0 UV-I 0 W/m 6,4 C 7,9 C 8,0 km/h (2 Bft) 100,00 %
18.05.2016 03:44 7,9 C 90 % 1016,0 hPa 0,0 l/m 5,6 km/h (1 Bft) S-SW 209 0 min 0,000 mm 0,0 UV-I 0 W/m 6,4 C 7,9 C 6,4 km/h (2 Bft) 100,00 %
18.05.2016 03:45 7,9 C 90 % 1016,0 hPa 0,0 l/m 4,8 km/h (1 Bft) S-SW 195 0 min 0,000 mm 0,0 UV-I 0 W/m 6,4 C 7,9 C 6,4 km/h (2 Bft) 100,00 %
18.05.2016 03:46 7,9 C 90 % 1015,9 hPa 0,0 l/m 5,2 km/h (1 Bft) S-SW 203 0 min 0,000 mm 0,0 UV-I 0 W/m 6,4 C 7,9 C 6,4 km/h (2 Bft) 100,00 %
18.05.2016 03:47 7,9 C 90 % 1016,0 hPa 0,0 l/m 4,7 km/h (1 Bft) S-SW 197 0 min 0,000 mm 0,0 UV-I 0 W/m 6,4 C 7,9 C 6,4 km/h (2 Bft) 96,55 %
18.05.2016 03:48 7,9 C 90 % 1016,0 hPa 0,0 l/m 3,9 km/h (1 Bft) S-SW 204 0 min 0,000 mm 0,0 UV-I 0 W/m 6,4 C 7,9 C 4,8 km/h (1 Bft) 100,00 %
18.05.2016 03:49 7,9 C 90 % 1016,0 hPa 0,0 l/m 3,5 km/h (1 Bft) SW 217 0 min 0,000 mm 0,0 UV-I 0 W/m 6,4 C 7,9 C 4,8 km/h (1 Bft) 100,00 %
18.05.2016 03:50 7,9 C 90 % 1016,0 hPa 0,0 l/m 2,8 km/h (1 Bft) S-SW 212 0 min 0,000 mm 0,0 UV-I 0 W/m 6,4 C 7,9 C 4,8 km/h (1 Bft) 100,00 %
18.05.2016 03:51 7,9 C 90 % 1016,0 hPa 0,0 l/m 4,3 km/h (1 Bft) S-SW 192 0 min 0,000 mm 0,0 UV-I 0 W/m 6,4 C 7,9 C 6,4 km/h (2 Bft) 96,15 %
18.05.2016 03:52 7,9 C 89 % 1016,0 hPa 0,0 l/m 3,9 km/h (1 Bft) S-SW 192 0 min 0,000 mm 0,0 UV-I 0 W/m 6,2 C 7,9 C 4,8 km/h (1 Bft) 100,00 %
18.05.2016 03:53 7,9 C 89 % 1016,0 hPa 0,0 l/m 3,2 km/h (1 Bft) S-SW 192 0 min 0,000 mm 0,0 UV-I 0 W/m 6,2 C 7,9 C 4,8 km/h (1 Bft) 95,65 %
18.05.2016 03:54 7,9 C 89 % 1016,0 hPa 0,0 l/m 4,4 km/h (1 Bft) S-SW 201 0 min 0,000 mm 0,0 UV-I 0 W/m 6,2 C 7,9 C 6,4 km/h (2 Bft) 96,30 %
18.05.2016 03:55 8,0 C 89 % 1015,9 hPa 0,0 l/m 3,1 km/h (1 Bft) S 173 0 min 0,000 mm 0,0 UV-I 0 W/m 6,3 C 8,0 C 4,8 km/h (1 Bft) 96,15 %
18.05.2016 03:56 8,0 C 89 % 1016,0 hPa 0,0 l/m 3,8 km/h (1 Bft) S 187 0 min 0,000 mm 0,0 UV-I 0 W/m 6,3 C 8,0 C 6,4 km/h (2 Bft) 100,00 %
18.05.2016 03:57 8,0 C 89 % 1015,9 hPa 0,0 l/m 5,1 km/h (1 Bft) S-SW 198 0 min 0,000 mm 0,0 UV-I 0 W/m 6,3 C 8,0 C 6,4 km/h (2 Bft) 92,86 %
18.05.2016 03:58 8,0 C 89 % 1015,9 hPa 0,0 l/m 5,8 km/h (2 Bft) S-SW 195 0 min 0,000 mm 0,0 UV-I 0 W/m 6,3 C 8,0 C 8,0 km/h (2 Bft) 100,00 %
18.05.2016 03:59 7,9 C 89 % 1015,9 hPa 0,0 l/m 5,9 km/h (2 Bft) S-SW 202 0 min 0,000 mm 0,0 UV-I 0 W/m 6,2 C 7,9 C 6,4 km/h (2 Bft) 96,15 %
18.05.2016 04:00 7,9 C 89 % 1015,9 hPa 0,0 l/m 4,4 km/h (1 Bft) S-SW 201 0 min 0,000 mm 0,0 UV-I 0 W/m 6,2 C 7,9 C 6,4 km/h (2 Bft) 96,30 %
18.05.2016 04:03 7,9 C 90 % 1015,9 hPa 0,0 l/m 5,3 km/h (1 Bft) S-SW 197 0 min 0,000 mm 0,0 UV-I 0 W/m 6,4 C 7,9 C 6,4 km/h (2 Bft) 97,73 %
18.05.2016 04:04 7,9 C 90 % 1015,9 hPa 0,0 l/m 4,8 km/h (1 Bft) S-SW 197 0 min 0,000 mm 0,0 UV-I 0 W/m 6,4 C 7,9 C 6,4 km/h (2 Bft) 91,67 %
18.05.2016 04:05 7,9 C 90 % 1015,8 hPa 0,0 l/m 5,0 km/h (1 Bft) S-SW 197 0 min 0,000 mm 0,0 UV-I 0 W/m 6,4 C 7,9 C 6,4 km/h (2 Bft) 96,30 %
18.05.2016 04:06 7,9 C 90 % 1015,9 hPa 0,0 l/m 5,8 km/h (2 Bft) S 186 0 min 0,000 mm 0,0 UV-I 0 W/m 6,4 C 7,9 C 8,0 km/h (2 Bft) 95,65 %
18.05.2016 04:07 7,9 C 90 % 1015,8 hPa 0,0 l/m 5,0 km/h (1 Bft) S 189 0 min 0,000 mm 0,0 UV-I 0 W/m 6,4 C 7,9 C 6,4 km/h (2 Bft) 100,00 %
18.05.2016 04:08 7,9 C 90 % 1015,8 hPa 0,0 l/m 5,1 km/h (1 Bft) S-SW 192 0 min 0,000 mm 0,0 UV-I 0 W/m 6,4 C 7,9 C 6,4 km/h (2 Bft) 86,96 %
18.05.2016 04:09 7,9 C 90 % 1015,8 hPa 0,0 l/m 3,4 km/h (1 Bft) S-SW 200 0 min 0,000 mm 0,0 UV-I 0 W/m 6,4 C 7,9 C 4,8 km/h (1 Bft) 95,83 %
18.05.2016 04:10 7,9 C 90 % 1015,8 hPa 0,0 l/m 4,5 km/h (1 Bft) S-SW 205 0 min 0,000 mm 0,0 UV-I 0 W/m 6,4 C 7,9 C 6,4 km/h (2 Bft) 95,65 %
18.05.2016 04:11 7,9 C 90 % 1015,8 hPa 0,0 l/m 4,8 km/h (1 Bft) S-SW 196 0 min 0,000 mm 0,0 UV-I 0 W/m 6,4 C 7,9 C 6,4 km/h (2 Bft) 100,00 %
18.05.2016 04:12 7,9 C 90 % 1015,8 hPa 0,0 l/m 3,9 km/h (1 Bft) S-SW 197 0 min 0,000 mm 0,0 UV-I 0 W/m 6,4 C 7,9 C 6,4 km/h (2 Bft) 96,15 %
18.05.2016 04:13 7,9 C 90 % 1015,8 hPa 0,0 l/m 4,9 km/h (1 Bft) S-SW 211 0 min 0,000 mm 0,0 UV-I 0 W/m 6,4 C 7,9 C 6,4 km/h (2 Bft) 96,30 %
18.05.2016 04:14 7,9 C 89 % 1015,8 hPa 0,0 l/m 3,2 km/h (1 Bft) S-SW 211 0 min 0,000 mm 0,0 UV-I 0 W/m 6,2 C 7,9 C 6,4 km/h (2 Bft) 100,00 %
18.05.2016 04:15 7,9 C 89 % 1015,8 hPa 0,0 l/m 2,6 km/h (1 Bft) S-SW 211 0 min 0,000 mm 0,0 UV-I 0 W/m 6,2 C 7,9 C 4,8 km/h (1 Bft) 91,67 %
18.05.2016 04:16 7,9 C 89 % 1015,8 hPa 0,0 l/m 4,9 km/h (1 Bft) S-SW 194 0 min 0,000 mm 0,0 UV-I 0 W/m 6,2 C 7,9 C 6,4 km/h (2 Bft) 100,00 %
18.05.2016 04:17 7,9 C 89 % 1015,7 hPa 0,0 l/m 2,7 km/h (1 Bft) S-SW 196 0 min 0,000 mm 0,0 UV-I 0 W/m 6,2 C 7,9 C 4,8 km/h (1 Bft) 100,00 %
18.05.2016 04:18 8,0 C 89 % 1015,7 hPa 0,0 l/m 3,8 km/h (1 Bft) S-SW 202 0 min 0,000 mm 0,0 UV-I 0 W/m 6,3 C 8,0 C 6,4 km/h (2 Bft) 97,56 %
18.05.2016 04:19 8,0 C 89 % 1015,7 hPa 0,0 l/m 4,0 km/h (1 Bft) S-SW 202 0 min 0,000 mm 0,0 UV-I 0 W/m 6,3 C 8,0 C 4,8 km/h (1 Bft) 96,30 %
18.05.2016 04:20 8,0 C 89 % 1015,7 hPa 0,0 l/m 3,4 km/h (1 Bft) S-SW 201 0 min 0,000 mm 0,0 UV-I 0 W/m 6,3 C 8,0 C 4,8 km/h (1 Bft) 95,65 %
18.05.2016 04:21 8,0 C 89 % 1015,7 hPa 0,0 l/m 2,4 km/h (1 Bft) S-SW 202 0 min 0,000 mm 0,0 UV-I 0 W/m 6,3 C 8,0 C 3,2 km/h (1 Bft) 100,00 %
18.05.2016 04:22 8,0 C 89 % 1015,7 hPa 0,0 l/m 2,6 km/h (1 Bft) S-SW 202 0 min 0,000 mm 0,0 UV-I 0 W/m 6,3 C 8,0 C 4,8 km/h (1 Bft) 100,00 %
18.05.2016 04:23 8,0 C 89 % 1015,7 hPa 0,0 l/m 1,6 km/h (1 Bft) S-SW 202 0 min 0,000 mm 0,0 UV-I 0 W/m 6,3 C 8,0 C 4,8 km/h (1 Bft) 96,30 %
18.05.2016 04:24 8,0 C 89 % 1015,7 hPa 0,0 l/m 3,5 km/h (1 Bft) S-SW 202 0 min 0,000 mm 0,0 UV-I 0 W/m 6,3 C 8,0 C 4,8 km/h (1 Bft) 96,15 %
18.05.2016 04:25 8,0 C 89 % 1015,8 hPa 0,0 l/m 3,8 km/h (1 Bft) S-SW 202 0 min 0,000 mm 0,0 UV-I 0 W/m 6,3 C 8,0 C 4,8 km/h (1 Bft) 100,00 %
18.05.2016 04:26 8,0 C 89 % 1015,7 hPa 0,0 l/m 3,4 km/h (1 Bft) S-SW 202 0 min 0,000 mm 0,0 UV-I 0 W/m 6,3 C 8,0 C 4,8 km/h (1 Bft) 96,15 %
18.05.2016 04:27 8,0 C 89 % 1015,8 hPa 0,0 l/m 2,9 km/h (1 Bft) S-SW 202 0 min 0,000 mm 0,0 UV-I 0 W/m 6,3 C 8,0 C 4,8 km/h (1 Bft) 95,83 %
18.05.2016 04:28 8,0 C 89 % 1015,8 hPa 0,0 l/m 3,9 km/h (1 Bft) S-SW 203 0 min 0,000 mm 0,0 UV-I 0 W/m 6,3 C 8,0 C 4,8 km/h (1 Bft) 100,00 %
18.05.2016 04:29 7,9 C 89 % 1015,7 hPa 0,0 l/m 4,3 km/h (1 Bft) S-SW 203 0 min 0,000 mm 0,0 UV-I 0 W/m 6,2 C 7,9 C 6,4 km/h (2 Bft) 100,00 %
18.05.2016 04:30 7,9 C 89 % 1015,8 hPa 0,0 l/m 5,2 km/h (1 Bft) S-SW 193 0 min 0,000 mm 0,0 UV-I 0 W/m 6,2 C 7,9 C 8,0 km/h (2 Bft) 100,00 %
18.05.2016 04:31 7,9 C 89 % 1015,8 hPa 0,0 l/m 5,0 km/h (1 Bft) S-SW 203 0 min 0,000 mm 0,0 UV-I 0 W/m 6,2 C 7,9 C 6,4 km/h (2 Bft) 100,00 %
18.05.2016 04:32 7,9 C 89 % 1015,8 hPa 0,0 l/m 4,2 km/h (1 Bft) S-SW 192 0 min 0,000 mm 0,0 UV-I 0 W/m 6,2 C 7,9 C 6,4 km/h (2 Bft) 100,00 %
18.05.2016 04:33 7,9 C 89 % 1015,8 hPa 0,0 l/m 4,1 km/h (1 Bft) S 189 0 min 0,000 mm 0,0 UV-I 0 W/m 6,2 C 7,9 C 6,4 km/h (2 Bft) 95,83 %
18.05.2016 04:34 7,9 C 90 % 1015,7 hPa 0,0 l/m 3,8 km/h (1 Bft) S 189 0 min 0,000 mm 0,0 UV-I 0 W/m 6,4 C 7,9 C 4,8 km/h (1 Bft) 100,00 %
18.05.2016 04:35 7,9 C 90 % 1015,7 hPa 0,0 l/m 3,6 km/h (1 Bft) S 187 0 min 0,000 mm 0,0 UV-I 0 W/m 6,4 C 7,9 C 4,8 km/h (1 Bft) 100,00 %
18.05.2016 04:36 7,9 C 90 % 1015,7 hPa 0,0 l/m 4,4 km/h (1 Bft) S-SW 196 0 min 0,000 mm 0,0 UV-I 0 W/m 6,4 C 7,9 C 6,4 km/h (2 Bft) 100,00 %
18.05.2016 04:37 7,9 C 90 % 1015,7 hPa 0,0 l/m 4,3 km/h (1 Bft) S-SW 196 0 min 0,000 mm 0,0 UV-I 0 W/m 6,4 C 7,9 C 4,8 km/h (1 Bft) 100,00 %
18.05.2016 04:38 7,9 C 90 % 1015,7 hPa 0,0 l/m 3,4 km/h (1 Bft) S-SW 196 0 min 0,000 mm 0,0 UV-I 0 W/m 6,4 C 7,9 C 4,8 km/h (1 Bft) 100,00 %
18.05.2016 04:39 7,9 C 90 % 1015,7 hPa 0,0 l/m 4,5 km/h (1 Bft) S-SW 192 0 min 0,000 mm 0,0 UV-I 0 W/m 6,4 C 7,9 C 6,4 km/h (2 Bft) 100,00 %
18.05.2016 04:40 7,9 C 90 % 1015,7 hPa 0,0 l/m 3,5 km/h (1 Bft) S-SW 192 0 min 0,000 mm 0,0 UV-I 0 W/m 6,4 C 7,9 C 4,8 km/h (1 Bft) 100,00 %
18.05.2016 04:41 7,9 C 90 % 1015,7 hPa 0,0 l/m 1,8 km/h (1 Bft) S-SW 192 0 min 0,000 mm 0,0 UV-I 0 W/m 6,4 C 7,9 C 3,2 km/h (1 Bft) 100,00 %
18.05.2016 04:42 7,9 C 90 % 1015,7 hPa 0,0 l/m 1,0 km/h (0 Bft) S-SW 192 0 min 0,000 mm 0,0 UV-I 0 W/m 6,4 C 7,9 C 3,2 km/h (1 Bft) 96,30 %
18.05.2016 04:43 7,9 C 90 % 1015,7 hPa 0,0 l/m 0,3 km/h (0 Bft) S-SW 192 0 min 0,000 mm 0,0 UV-I 0 W/m 6,4 C 7,9 C 1,6 km/h (1 Bft) 100,00 %
18.05.2016 04:44 8,0 C 90 % 1015,7 hPa 0,0 l/m 0,1 km/h (0 Bft) S-SW 192 0 min 0,000 mm 0,0 UV-I 0 W/m 6,5 C 8,0 C 1,6 km/h (1 Bft) 100,00 %
18.05.2016 04:45 8,0 C 90 % 1015,7 hPa 0,0 l/m 1,3 km/h (1 Bft) S-SW 192 0 min 0,000 mm 0,0 UV-I 0 W/m 6,5 C 8,0 C 1,6 km/h (1 Bft) 91,30 %
18.05.2016 04:46 8,0 C 90 % 1015,7 hPa 0,0 l/m 1,4 km/h (1 Bft) S-SW 192 0 min 0,000 mm 0,0 UV-I 0 W/m 6,5 C 8,0 C 3,2 km/h (1 Bft) 100,00 %
18.05.2016 04:47 8,0 C 90 % 1015,7 hPa 0,0 l/m 2,8 km/h (1 Bft) S-SW 192 0 min 0,000 mm 0,0 UV-I 0 W/m 6,5 C 8,0 C 3,2 km/h (1 Bft) 100,00 %
18.05.2016 04:48 8,0 C 89 % 1015,7 hPa 0,0 l/m 4,0 km/h (1 Bft) S-SW 192 0 min 0,000 mm 0,0 UV-I 0 W/m 6,3 C 8,0 C 4,8 km/h (1 Bft) 100,00 %
18.05.2016 04:49 8,0 C 89 % 1015,7 hPa 0,0 l/m 5,1 km/h (1 Bft) S-SW 192 0 min 0,000 mm 0,0 UV-I 0 W/m 6,3 C 8,0 C 6,4 km/h (2 Bft) 100,00 %
18.05.2016 04:50 8,0 C 89 % 1015,7 hPa 0,0 l/m 3,9 km/h (1 Bft) S-SW 192 0 min 0,000 mm 0,0 UV-I 0 W/m 6,3 C 8,0 C 4,8 km/h (1 Bft) 100,00 %
18.05.2016 04:51 8,0 C 89 % 1015,7 hPa 0,0 l/m 2,1 km/h (1 Bft) S-SW 192 0 min 0,000 mm 0,0 UV-I 0 W/m 6,3 C 8,0 C 4,8 km/h (1 Bft) 100,00 %
18.05.2016 04:52 8,0 C 90 % 1015,6 hPa 0,0 l/m 0,8 km/h (0 Bft) S-SW 192 0 min 0,000 mm 0,0 UV-I 0 W/m 6,5 C 8,0 C 1,6 km/h (1 Bft) 96,55 %
18.05.2016 04:53 8,0 C 90 % 1015,6 hPa 0,0 l/m 2,9 km/h (1 Bft) S-SW 192 0 min 0,000 mm 0,0 UV-I 0 W/m 6,5 C 8,0 C 4,8 km/h (1 Bft) 100,00 %
18.05.2016 04:54 8,0 C 89 % 1015,6 hPa 0,0 l/m 3,8 km/h (1 Bft) S-SW 192 0 min 0,000 mm 0,0 UV-I 0 W/m 6,3 C 8,0 C 4,8 km/h (1 Bft) 100,00 %
18.05.2016 04:55 8,0 C 90 % 1015,6 hPa 0,0 l/m 3,5 km/h (1 Bft) S-SW 192 0 min 0,000 mm 0,0 UV-I 0 W/m 6,5 C 8,0 C 4,8 km/h (1 Bft) 100,00 %
18.05.2016 04:56 8,0 C 90 % 1015,7 hPa 0,0 l/m 4,0 km/h (1 Bft) S-SW 192 0 min 0,000 mm 0,0 UV-I 0 W/m 6,5 C 8,0 C 4,8 km/h (1 Bft) 100,00 %
18.05.2016 04:57 8,0 C 90 % 1015,6 hPa 0,0 l/m 3,7 km/h (1 Bft) S-SW 192 0 min 0,000 mm 0,0 UV-I 0 W/m 6,5 C 8,0 C 4,8 km/h (1 Bft) 100,00 %
18.05.2016 04:58 8,0 C 90 % 1015,7 hPa 0,0 l/m 3,4 km/h (1 Bft) S-SW 192 0 min 0,000 mm 0,0 UV-I 0 W/m 6,5 C 8,0 C 4,8 km/h (1 Bft) 100,00 %
18.05.2016 04:59 7,9 C 90 % 1015,6 hPa 0,0 l/m 4,2 km/h (1 Bft) S-SW 192 0 min 0,000 mm 0,0 UV-I 0 W/m 6,4 C 7,9 C 4,8 km/h (1 Bft) 100,00 %
18.05.2016 05:00 7,9 C 90 % 1015,5 hPa 0,0 l/m 4,0 km/h (1 Bft) S-SW 192 0 min 0,000 mm 0,0 UV-I 0 W/m 6,4 C 7,9 C 4,8 km/h (1 Bft) 100,00 %
18.05.2016 05:02 7,9 C 90 % 1015,5 hPa 0,0 l/m 3,7 km/h (1 Bft) S-SW 192 0 min 0,000 mm 0,0 UV-I 0 W/m 6,4 C 7,9 C 4,8 km/h (1 Bft) 100,00 %
18.05.2016 05:03 7,9 C 90 % 1015,5 hPa 0,0 l/m 4,3 km/h (1 Bft) S-SW 193 0 min 0,000 mm 0,0 UV-I 0 W/m 6,4 C 7,9 C 4,8 km/h (1 Bft) 100,00 %
18.05.2016 05:04 7,9 C 90 % 1015,5 hPa 0,0 l/m 5,2 km/h (1 Bft) S-SW 199 0 min 0,000 mm 0,0 UV-I 0 W/m 6,4 C 7,9 C 6,4 km/h (2 Bft) 92,31 %
18.05.2016 05:05 7,9 C 90 % 1015,5 hPa 0,0 l/m 4,0 km/h (1 Bft) S-SW 198 0 min 0,000 mm 0,0 UV-I 0 W/m 6,4 C 7,9 C 4,8 km/h (1 Bft) 100,00 %
18.05.2016 05:06 7,9 C 90 % 1015,5 hPa 0,0 l/m 4,5 km/h (1 Bft) S-SW 198 0 min 0,000 mm 0,0 UV-I 0 W/m 6,4 C 7,9 C 4,8 km/h (1 Bft) 96,55 %
18.05.2016 05:07 7,9 C 90 % 1015,5 hPa 0,0 l/m 3,2 km/h (1 Bft) S-SW 198 0 min 0,000 mm 0,0 UV-I 0 W/m 6,4 C 7,9 C 4,8 km/h (1 Bft) 100,00 %
18.05.2016 05:08 7,9 C 90 % 1015,5 hPa 0,0 l/m 5,3 km/h (1 Bft) S 191 0 min 0,000 mm 0,0 UV-I 0 W/m 6,4 C 7,9 C 6,4 km/h (2 Bft) 95,83 %
18.05.2016 05:09 7,9 C 90 % 1015,5 hPa 0,0 l/m 5,4 km/h (1 Bft) S-SW 196 0 min 0,000 mm 0,0 UV-I 0 W/m 6,4 C 7,9 C 6,4 km/h (2 Bft) 100,00 %
18.05.2016 05:10 7,9 C 90 % 1015,5 hPa 0,0 l/m 5,4 km/h (1 Bft) SW 214 0 min 0,000 mm 0,0 UV-I 0 W/m 6,4 C 7,9 C 8,0 km/h (2 Bft) 100,00 %
18.05.2016 05:11 7,9 C 90 % 1015,5 hPa 0,0 l/m 6,5 km/h (2 Bft) S-SW 211 0 min 0,000 mm 0,0 UV-I 0 W/m 6,4 C 7,8 C 8,0 km/h (2 Bft) 100,00 %
18.05.2016 05:12 7,9 C 90 % 1015,5 hPa 0,0 l/m 5,1 km/h (1 Bft) S-SW 211 0 min 0,000 mm 0,0 UV-I 0 W/m 6,4 C 7,9 C 6,4 km/h (2 Bft) 100,00 %
18.05.2016 05:13 7,9 C 90 % 1015,5 hPa 0,0 l/m 3,7 km/h (1 Bft) S-SW 211 0 min 0,000 mm 0,0 UV-I 0 W/m 6,4 C 7,9 C 4,8 km/h (1 Bft) 100,00 %
18.05.2016 05:14 7,8 C 90 % 1015,5 hPa 0,0 l/m 4,8 km/h (1 Bft) S-SW 201 0 min 0,000 mm 0,0 UV-I 0 W/m 6,3 C 7,8 C 6,4 km/h (2 Bft) 100,00 %
18.05.2016 05:15 7,9 C 90 % 1015,5 hPa 0,0 l/m 5,4 km/h (1 Bft) S-SW 201 0 min 0,000 mm 0,0 UV-I 0 W/m 6,4 C 7,9 C 6,4 km/h (2 Bft) 100,00 %
18.05.2016 05:16 7,9 C 91 % 1015,5 hPa 0,0 l/m 4,8 km/h (1 Bft) S-SW 211 0 min 0,000 mm 0,0 UV-I 0 W/m 6,5 C 7,9 C 6,4 km/h (2 Bft) 93,33 %
18.05.2016 05:17 7,8 C 91 % 1015,5 hPa 0,0 l/m 4,2 km/h (1 Bft) S-SW 211 0 min 0,000 mm 0,0 UV-I 0 W/m 6,4 C 7,8 C 4,8 km/h (1 Bft) 100,00 %
18.05.2016 05:18 7,8 C 91 % 1015,5 hPa 0,0 l/m 4,4 km/h (1 Bft) S-SW 211 0 min 0,000 mm 0,0 UV-I 0 W/m 6,4 C 7,8 C 6,4 km/h (2 Bft) 100,00 %
18.05.2016 05:19 7,8 C 91 % 1015,5 hPa 0,0 l/m 5,4 km/h (1 Bft) S-SW 195 0 min 0,000 mm 0,0 UV-I 0 W/m 6,4 C 7,8 C 6,4 km/h (2 Bft) 100,00 %
18.05.2016 05:20 7,8 C 91 % 1015,5 hPa 0,0 l/m 5,2 km/h (1 Bft) S-SW 208 0 min 0,000 mm 0,0 UV-I 0 W/m 6,4 C 7,8 C 6,4 km/h (2 Bft) 100,00 %
18.05.2016 05:21 7,8 C 91 % 1015,5 hPa 0,0 l/m 4,2 km/h (1 Bft) S-SW 192 0 min 0,000 mm 0,0 UV-I 0 W/m 6,4 C 7,8 C 6,4 km/h (2 Bft) 100,00 %
18.05.2016 05:22 7,8 C 90 % 1015,5 hPa 0,0 l/m 4,8 km/h (1 Bft) S-SW 200 0 min 0,000 mm 0,0 UV-I 0 W/m 6,3 C 7,8 C 6,4 km/h (2 Bft) 100,00 %
18.05.2016 05:23 7,9 C 90 % 1015,5 hPa 0,0 l/m 5,6 km/h (1 Bft) S-SW 208 0 min 0,000 mm 0,0 UV-I 0 W/m 6,4 C 7,9 C 6,4 km/h (2 Bft) 100,00 %
18.05.2016 05:24 7,9 C 90 % 1015,5 hPa 0,0 l/m 4,5 km/h (1 Bft) S 190 0 min 0,000 mm 0,0 UV-I 0 W/m 6,4 C 7,9 C 6,4 km/h (2 Bft) 100,00 %
18.05.2016 05:25 7,9 C 90 % 1015,5 hPa 0,0 l/m 3,4 km/h (1 Bft) S-SW 193 0 min 0,000 mm 0,0 UV-I 2 W/m 6,4 C 7,9 C 4,8 km/h (1 Bft) 100,00 %
18.05.2016 05:26 7,9 C 90 % 1015,4 hPa 0,0 l/m 3,5 km/h (1 Bft) S-SW 198 0 min 0,000 mm 0,0 UV-I 5 W/m 6,4 C 7,9 C 4,8 km/h (1 Bft) 100,00 %
18.05.2016 05:27 7,9 C 90 % 1015,4 hPa 0,0 l/m 4,6 km/h (1 Bft) S-SW 195 0 min 0,000 mm 0,0 UV-I 5 W/m 6,4 C 7,9 C 6,4 km/h (2 Bft) 100,00 %
18.05.2016 05:28 7,9 C 90 % 1015,4 hPa 0,0 l/m 4,3 km/h (1 Bft) S-SW 194 0 min 0,000 mm 0,0 UV-I 5 W/m 6,4 C 7,9 C 6,4 km/h (2 Bft) 100,00 %
18.05.2016 05:29 7,9 C 90 % 1015,4 hPa 0,0 l/m 4,5 km/h (1 Bft) S-SW 198 0 min 0,000 mm 0,0 UV-I 5 W/m 6,4 C 7,9 C 4,8 km/h (1 Bft) 100,00 %
18.05.2016 05:30 7,9 C 90 % 1015,4 hPa 0,0 l/m 3,1 km/h (1 Bft) S-SW 198 0 min 0,000 mm 0,0 UV-I 6 W/m 6,4 C 7,9 C 4,8 km/h (1 Bft) 96,15 %
18.05.2016 05:31 7,9 C 90 % 1015,4 hPa 0,0 l/m 3,8 km/h (1 Bft) S-SW 198 0 min 0,000 mm 0,0 UV-I 7 W/m 6,4 C 7,9 C 4,8 km/h (1 Bft) 100,00 %
18.05.2016 05:32 7,9 C 90 % 1015,4 hPa 0,0 l/m 4,0 km/h (1 Bft) S-SW 198 0 min 0,000 mm 0,0 UV-I 7 W/m 6,4 C 7,9 C 6,4 km/h (2 Bft) 100,00 %
18.05.2016 05:33 7,9 C 90 % 1015,4 hPa 0,0 l/m 3,6 km/h (1 Bft) S-SW 193 0 min 0,000 mm 0,0 UV-I 7 W/m 6,4 C 7,9 C 4,8 km/h (1 Bft) 100,00 %
18.05.2016 05:34 7,9 C 90 % 1015,4 hPa 0,0 l/m 4,0 km/h (1 Bft) S-SW 193 0 min 0,000 mm 0,0 UV-I 9 W/m 6,4 C 7,9 C 4,8 km/h (1 Bft) 100,00 %
18.05.2016 05:35 7,9 C 90 % 1015,4 hPa 0,0 l/m 4,3 km/h (1 Bft) S-SW 193 0 min 0,000 mm 0,0 UV-I 9 W/m 6,4 C 7,9 C 6,4 km/h (2 Bft) 100,00 %
18.05.2016 05:36 7,9 C 90 % 1015,4 hPa 0,0 l/m 4,8 km/h (1 Bft) S 189 0 min 0,000 mm 0,0 UV-I 9 W/m 6,4 C 7,9 C 6,4 km/h (2 Bft) 95,65 %
18.05.2016 05:37 7,9 C 90 % 1015,4 hPa 0,0 l/m 4,7 km/h (1 Bft) S-SW 193 0 min 0,000 mm 0,0 UV-I 9 W/m 6,4 C 7,9 C 6,4 km/h (2 Bft) 100,00 %
18.05.2016 05:38 7,9 C 90 % 1015,4 hPa 0,0 l/m 4,4 km/h (1 Bft) S-SW 198 0 min 0,000 mm 0,0 UV-I 9 W/m 6,4 C 7,9 C 6,4 km/h (2 Bft) 100,00 %
18.05.2016 05:39 7,9 C 91 % 1015,4 hPa 0,0 l/m 3,0 km/h (1 Bft) S-SW 198 0 min 0,000 mm 0,0 UV-I 9 W/m 6,5 C 7,9 C 4,8 km/h (1 Bft) 88,89 %
18.05.2016 05:40 7,9 C 91 % 1015,4 hPa 0,0 l/m 4,7 km/h (1 Bft) S-SW 198 0 min 0,000 mm 0,0 UV-I 9 W/m 6,5 C 7,9 C 6,4 km/h (2 Bft) 100,00 %
18.05.2016 05:41 7,9 C 91 % 1015,4 hPa 0,0 l/m 4,4 km/h (1 Bft) S-SW 202 0 min 0,000 mm 0,0 UV-I 8 W/m 6,5 C 7,9 C 4,8 km/h (1 Bft) 100,00 %
18.05.2016 05:42 7,9 C 91 % 1015,4 hPa 0,0 l/m 4,1 km/h (1 Bft) S-SW 194 0 min 0,000 mm 0,0 UV-I 9 W/m 6,5 C 7,9 C 4,8 km/h (1 Bft) 100,00 %
18.05.2016 05:43 7,9 C 91 % 1015,4 hPa 0,0 l/m 4,0 km/h (1 Bft) S-SW 192 0 min 0,000 mm 0,0 UV-I 9 W/m 6,5 C 7,9 C 4,8 km/h (1 Bft) 100,00 %
18.05.2016 05:44 7,9 C 90 % 1015,4 hPa 0,0 l/m 2,9 km/h (1 Bft) S 190 0 min 0,000 mm 0,0 UV-I 10 W/m 6,4 C 7,9 C 4,8 km/h (1 Bft) 100,00 %
18.05.2016 05:45 7,9 C 90 % 1015,4 hPa 0,0 l/m 3,1 km/h (1 Bft) S 190 0 min 0,000 mm 0,0 UV-I 11 W/m 6,4 C 7,9 C 4,8 km/h (1 Bft) 100,00 %
18.05.2016 05:46 7,9 C 90 % 1015,4 hPa 0,0 l/m 2,9 km/h (1 Bft) S 190 0 min 0,000 mm 0,0 UV-I 11 W/m 6,4 C 7,9 C 3,2 km/h (1 Bft) 100,00 %
18.05.2016 05:47 7,9 C 90 % 1015,4 hPa 0,0 l/m 3,2 km/h (1 Bft) S 190 0 min 0,000 mm 0,0 UV-I 11 W/m 6,4 C 7,9 C 4,8 km/h (1 Bft) 100,00 %
18.05.2016 05:48 7,9 C 90 % 1015,4 hPa 0,0 l/m 3,4 km/h (1 Bft) S 190 0 min 0,000 mm 0,0 UV-I 11 W/m 6,4 C 7,9 C 4,8 km/h (1 Bft) 96,30 %
18.05.2016 05:49 8,0 C 90 % 1015,4 hPa 0,0 l/m 2,5 km/h (1 Bft) S 190 0 min 0,000 mm 0,0 UV-I 11 W/m 6,5 C 8,0 C 3,2 km/h (1 Bft) 100,00 %
18.05.2016 05:50 8,0 C 90 % 1015,4 hPa 0,0 l/m 2,3 km/h (1 Bft) S 190 0 min 0,000 mm 0,0 UV-I 11 W/m 6,5 C 8,0 C 3,2 km/h (1 Bft) 100,00 %
18.05.2016 05:51 8,0 C 90 % 1015,4 hPa 0,0 l/m 2,9 km/h (1 Bft) S 190 0 min 0,000 mm 0,0 UV-I 11 W/m 6,5 C 8,0 C 4,8 km/h (1 Bft) 100,00 %
18.05.2016 05:52 8,1 C 90 % 1015,4 hPa 0,0 l/m 3,1 km/h (1 Bft) S 190 0 min 0,000 mm 0,0 UV-I 11 W/m 6,6 C 8,1 C 3,2 km/h (1 Bft) 100,00 %
18.05.2016 05:53 8,1 C 90 % 1015,5 hPa 0,0 l/m 2,7 km/h (1 Bft) S 190 0 min 0,000 mm 0,0 UV-I 11 W/m 6,6 C 8,1 C 3,2 km/h (1 Bft) 100,00 %
18.05.2016 05:54 8,1 C 90 % 1015,5 hPa 0,0 l/m 3,3 km/h (1 Bft) S 190 0 min 0,000 mm 0,0 UV-I 11 W/m 6,6 C 8,1 C 4,8 km/h (1 Bft) 100,00 %
18.05.2016 05:55 8,1 C 90 % 1015,5 hPa 0,0 l/m 4,8 km/h (1 Bft) S 191 0 min 0,000 mm 0,0 UV-I 11 W/m 6,6 C 8,1 C 6,4 km/h (2 Bft) 100,00 %
18.05.2016 05:56 8,1 C 90 % 1015,6 hPa 0,0 l/m 5,8 km/h (2 Bft) S 191 0 min 0,000 mm 0,0 UV-I 12 W/m 6,6 C 8,1 C 6,4 km/h (2 Bft) 100,00 %
18.05.2016 05:57 8,0 C 91 % 1015,5 hPa 0,0 l/m 5,2 km/h (1 Bft) S-SW 192 0 min 0,000 mm 0,0 UV-I 12 W/m 6,6 C 8,0 C 6,4 km/h (2 Bft) 100,00 %
18.05.2016 05:58 8,0 C 91 % 1015,6 hPa 0,0 l/m 4,7 km/h (1 Bft) S-SW 196 0 min 0,000 mm 0,0 UV-I 14 W/m 6,6 C 8,0 C 8,0 km/h (2 Bft) 100,00 %
18.05.2016 05:59 8,0 C 91 % 1015,6 hPa 0,0 l/m 4,4 km/h (1 Bft) S 184 0 min 0,000 mm 0,0 UV-I 15 W/m 6,6 C 8,0 C 6,4 km/h (2 Bft) 95,65 %
18.05.2016 06:00 8,0 C 91 % 1015,6 hPa 0,0 l/m 5,4 km/h (1 Bft) S-SW 192 0 min 0,000 mm 0,0 UV-I 16 W/m 6,6 C 8,0 C 8,0 km/h (2 Bft) 100,00 %
18.05.2016 06:02 8,0 C 90 % 1015,6 hPa 0,0 l/m 5,0 km/h (1 Bft) S-SW 201 0 min 0,000 mm 0,0 UV-I 18 W/m 6,5 C 8,0 C 8,0 km/h (2 Bft) 97,37 %
18.05.2016 06:03 8,0 C 90 % 1015,6 hPa 0,0 l/m 3,0 km/h (1 Bft) SW 215 0 min 0,000 mm 0,0 UV-I 21 W/m 6,5 C 8,0 C 4,8 km/h (1 Bft) 96,30 %
18.05.2016 06:04 8,0 C 90 % 1015,6 hPa 0,0 l/m 3,0 km/h (1 Bft) SW 215 0 min 0,000 mm 0,0 UV-I 24 W/m 6,5 C 8,0 C 4,8 km/h (1 Bft) 100,00 %
18.05.2016 06:05 8,0 C 90 % 1015,5 hPa 0,0 l/m 3,3 km/h (1 Bft) SW 215 0 min 0,000 mm 0,0 UV-I 25 W/m 6,5 C 8,0 C 4,8 km/h (1 Bft) 91,67 %
18.05.2016 06:06 8,0 C 90 % 1015,5 hPa 0,0 l/m 3,5 km/h (1 Bft) SW 215 0 min 0,000 mm 0,0 UV-I 25 W/m 6,5 C 8,0 C 4,8 km/h (1 Bft) 92,68 %
18.05.2016 06:07 8,1 C 90 % 1015,5 hPa 0,0 l/m 5,1 km/h (1 Bft) S-SW 194 0 min 0,000 mm 0,0 UV-I 26 W/m 6,6 C 8,1 C 6,4 km/h (2 Bft) 100,00 %
18.05.2016 06:08 8,1 C 90 % 1015,5 hPa 0,0 l/m 3,6 km/h (1 Bft) S-SW 194 0 min 0,000 mm 0,0 UV-I 26 W/m 6,6 C 8,1 C 4,8 km/h (1 Bft) 93,33 %
18.05.2016 06:09 8,1 C 90 % 1015,5 hPa 0,0 l/m 3,3 km/h (1 Bft) S-SW 194 0 min 0,000 mm 0,0 UV-I 28 W/m 6,6 C 8,1 C 4,8 km/h (1 Bft) 100,00 %
18.05.2016 06:10 8,1 C 90 % 1015,5 hPa 0,0 l/m 4,9 km/h (1 Bft) S-SW 192 0 min 0,000 mm 0,0 UV-I 28 W/m 6,6 C 8,1 C 6,4 km/h (2 Bft) 96,15 %
18.05.2016 06:11 8,1 C 90 % 1015,5 hPa 0,0 l/m 5,1 km/h (1 Bft) S-SO 163 0 min 0,000 mm 0,0 UV-I 28 W/m 6,6 C 8,1 C 6,4 km/h (2 Bft) 100,00 %
18.05.2016 06:12 8,1 C 90 % 1015,5 hPa 0,0 l/m 4,7 km/h (1 Bft) S 180 0 min 0,000 mm 0,0 UV-I 28 W/m 6,6 C 8,1 C 6,4 km/h (2 Bft) 96,15 %
18.05.2016 06:13 8,2 C 90 % 1015,5 hPa 0,0 l/m 4,5 km/h (1 Bft) S 190 0 min 0,000 mm 0,0 UV-I 28 W/m 6,7 C 8,2 C 6,4 km/h (2 Bft) 100,00 %
18.05.2016 06:14 8,2 C 90 % 1015,5 hPa 0,0 l/m 3,9 km/h (1 Bft) S 190 0 min 0,000 mm 0,0 UV-I 30 W/m 6,7 C 8,2 C 4,8 km/h (1 Bft) 96,15 %
18.05.2016 06:15 8,2 C 90 % 1015,6 hPa 0,0 l/m 3,1 km/h (1 Bft) S 190 0 min 0,000 mm 0,0 UV-I 32 W/m 6,7 C 8,2 C 4,8 km/h (1 Bft) 92,59 %
18.05.2016 06:16 8,2 C 90 % 1015,6 hPa 0,0 l/m 3,2 km/h (1 Bft) S 190 0 min 0,000 mm 0,0 UV-I 32 W/m 6,7 C 8,2 C 4,8 km/h (1 Bft) 95,65 %
18.05.2016 06:17 8,2 C 89 % 1015,6 hPa 0,0 l/m 3,8 km/h (1 Bft) S-SW 208 0 min 0,000 mm 0,0 UV-I 34 W/m 6,5 C 8,2 C 4,8 km/h (1 Bft) 95,83 %
18.05.2016 06:18 8,2 C 90 % 1015,6 hPa 0,0 l/m 4,2 km/h (1 Bft) S-SW 209 0 min 0,000 mm 0,0 UV-I 36 W/m 6,7 C 8,2 C 4,8 km/h (1 Bft) 100,00 %
18.05.2016 06:19 8,2 C 90 % 1015,6 hPa 0,0 l/m 3,5 km/h (1 Bft) S-SW 209 0 min 0,000 mm 0,0 UV-I 37 W/m 6,7 C 8,2 C 4,8 km/h (1 Bft) 91,67 %
18.05.2016 06:20 8,2 C 90 % 1015,6 hPa 0,0 l/m 2,7 km/h (1 Bft) S-SW 209 0 min 0,000 mm 0,0 UV-I 37 W/m 6,7 C 8,2 C 3,2 km/h (1 Bft) 95,65 %
18.05.2016 06:21 8,2 C 90 % 1015,6 hPa 0,0 l/m 3,6 km/h (1 Bft) S-SW 196 0 min 0,000 mm 0,0 UV-I 39 W/m 6,7 C 8,2 C 4,8 km/h (1 Bft) 95,83 %
18.05.2016 06:22 8,2 C 90 % 1015,6 hPa 0,0 l/m 4,4 km/h (1 Bft) S-SW 196 0 min 0,000 mm 0,0 UV-I 39 W/m 6,7 C 8,2 C 4,8 km/h (1 Bft) 95,65 %
18.05.2016 06:23 8,2 C 90 % 1015,6 hPa 0,0 l/m 3,8 km/h (1 Bft) S-SW 196 0 min 0,000 mm 0,0 UV-I 42 W/m 6,7 C 8,2 C 4,8 km/h (1 Bft) 100,00 %
18.05.2016 06:24 8,2 C 90 % 1015,6 hPa 0,0 l/m 3,4 km/h (1 Bft) S-SW 196 0 min 0,000 mm 0,0 UV-I 44 W/m 6,7 C 8,2 C 4,8 km/h (1 Bft) 96,55 %
18.05.2016 06:25 8,2 C 90 % 1015,6 hPa 0,0 l/m 3,5 km/h (1 Bft) S-SW 196 0 min 0,000 mm 0,0 UV-I 46 W/m 6,7 C 8,2 C 4,8 km/h (1 Bft) 100,00 %
18.05.2016 06:26 8,2 C 90 % 1015,6 hPa 0,0 l/m 3,7 km/h (1 Bft) S-SW 198 0 min 0,000 mm 0,0 UV-I 49 W/m 6,7 C 8,2 C 4,8 km/h (1 Bft) 96,15 %
18.05.2016 06:27 8,2 C 90 % 1015,5 hPa 0,0 l/m 2,8 km/h (1 Bft) S-SW 198 0 min 0,000 mm 0,0 UV-I 51 W/m 6,7 C 8,2 C 4,8 km/h (1 Bft) 95,83 %
18.05.2016 06:28 8,2 C 90 % 1015,5 hPa 0,0 l/m 1,7 km/h (1 Bft) S-SW 198 0 min 0,000 mm 0,0 UV-I 51 W/m 6,7 C 8,2 C 3,2 km/h (1 Bft) 96,15 %
18.05.2016 06:29 8,2 C 90 % 1015,5 hPa 0,0 l/m 2,1 km/h (1 Bft) S-SW 198 0 min 0,000 mm 0,0 UV-I 51 W/m 6,7 C 8,2 C 3,2 km/h (1 Bft) 100,00 %
18.05.2016 06:30 8,2 C 90 % 1015,5 hPa 0,0 l/m 4,2 km/h (1 Bft) S 190 0 min 0,000 mm 0,0 UV-I 51 W/m 6,7 C 8,2 C 6,4 km/h (2 Bft) 91,67 %
18.05.2016 06:31 8,2 C 90 % 1015,5 hPa 0,0 l/m 2,3 km/h (1 Bft) S 190 0 min 0,000 mm 0,0 UV-I 51 W/m 6,7 C 8,2 C 3,2 km/h (1 Bft) 100,00 %
18.05.2016 06:32 8,3 C 90 % 1015,5 hPa 0,0 l/m 3,4 km/h (1 Bft) S 190 0 min 0,000 mm 0,0 UV-I 53 W/m 6,8 C 8,3 C 4,8 km/h (1 Bft) 100,00 %
18.05.2016 06:33 8,3 C 90 % 1015,5 hPa 0,0 l/m 2,7 km/h (1 Bft) S 190 0 min 0,000 mm 0,0 UV-I 53 W/m 6,8 C 8,3 C 4,8 km/h (1 Bft) 100,00 %
18.05.2016 06:34 8,3 C 90 % 1015,5 hPa 0,0 l/m 3,4 km/h (1 Bft) S 190 0 min 0,000 mm 0,0 UV-I 53 W/m 6,8 C 8,3 C 4,8 km/h (1 Bft) 100,00 %
18.05.2016 06:35 8,3 C 90 % 1015,6 hPa 0,0 l/m 3,1 km/h (1 Bft) S 191 0 min 0,000 mm 0,0 UV-I 54 W/m 6,8 C 8,3 C 4,8 km/h (1 Bft) 100,00 %
18.05.2016 06:36 8,3 C 90 % 1015,6 hPa 0,0 l/m 3,8 km/h (1 Bft) S-SW 192 0 min 0,000 mm 0,0 UV-I 56 W/m 6,8 C 8,3 C 4,8 km/h (1 Bft) 100,00 %
18.05.2016 06:37 8,3 C 90 % 1015,6 hPa 0,0 l/m 5,3 km/h (1 Bft) S-SW 193 0 min 0,000 mm 0,0 UV-I 59 W/m 6,8 C 8,3 C 6,4 km/h (2 Bft) 100,00 %
18.05.2016 06:38 8,3 C 90 % 1015,6 hPa 0,0 l/m 4,7 km/h (1 Bft) S-SW 193 0 min 0,000 mm 0,0 UV-I 63 W/m 6,8 C 8,3 C 6,4 km/h (2 Bft) 100,00 %
18.05.2016 06:39 8,3 C 90 % 1015,6 hPa 0,0 l/m 3,7 km/h (1 Bft) S 178 0 min 0,000 mm 0,0 UV-I 67 W/m 6,8 C 8,3 C 6,4 km/h (2 Bft) 95,65 %
18.05.2016 06:40 8,4 C 90 % 1015,6 hPa 0,0 l/m 3,4 km/h (1 Bft) S-SW 194 0 min 0,000 mm 0,0 UV-I 69 W/m 6,9 C 8,4 C 4,8 km/h (1 Bft) 100,00 %
18.05.2016 06:41 8,4 C 90 % 1015,6 hPa 0,0 l/m 3,7 km/h (1 Bft) S-SW 194 0 min 0,000 mm 0,0 UV-I 71 W/m 6,9 C 8,4 C 4,8 km/h (1 Bft) 100,00 %
18.05.2016 06:42 8,4 C 90 % 1015,6 hPa 0,0 l/m 3,0 km/h (1 Bft) S-SW 194 0 min 0,000 mm 0,0 UV-I 73 W/m 6,9 C 8,4 C 4,8 km/h (1 Bft) 100,00 %
18.05.2016 06:43 8,4 C 90 % 1015,5 hPa 0,0 l/m 0,2 km/h (0 Bft) S-SW 194 0 min 0,000 mm 0,0 UV-I 76 W/m 6,9 C 8,4 C 1,6 km/h (1 Bft) 100,00 %
18.05.2016 06:44 8,4 C 89 % 1015,5 hPa 0,0 l/m 0,7 km/h (0 Bft) S-SW 194 0 min 0,000 mm 0,0 UV-I 77 W/m 6,7 C 8,4 C 3,2 km/h (1 Bft) 100,00 %
18.05.2016 06:45 8,4 C 89 % 1015,6 hPa 0,0 l/m 2,9 km/h (1 Bft) S-SW 194 0 min 0,000 mm 0,0 UV-I 79 W/m 6,7 C 8,4 C 3,2 km/h (1 Bft) 100,00 %
18.05.2016 06:46 8,4 C 90 % 1015,6 hPa 0,0 l/m 1,8 km/h (1 Bft) S-SW 194 0 min 0,000 mm 0,0 UV-I 79 W/m 6,9 C 8,4 C 3,2 km/h (1 Bft) 100,00 %
18.05.2016 06:47 8,5 C 89 % 1015,6 hPa 0,0 l/m 1,7 km/h (1 Bft) S-SW 194 0 min 0,000 mm 0,0 UV-I 79 W/m 6,8 C 8,5 C 3,2 km/h (1 Bft) 100,00 %
18.05.2016 06:48 8,5 C 89 % 1015,6 hPa 0,0 l/m 2,5 km/h (1 Bft) S-SW 194 0 min 0,000 mm 0,0 UV-I 79 W/m 6,8 C 8,5 C 3,2 km/h (1 Bft) 100,00 %
18.05.2016 06:49 8,6 C 90 % 1015,6 hPa 0,0 l/m 1,7 km/h (1 Bft) S-SW 194 0 min 0,000 mm 0,0 UV-I 79 W/m 7,1 C 8,6 C 3,2 km/h (1 Bft) 100,00 %
18.05.2016 06:50 8,6 C 90 % 1015,6 hPa 0,0 l/m 2,1 km/h (1 Bft) S-SW 194 0 min 0,000 mm 0,0 UV-I 79 W/m 7,1 C 8,6 C 3,2 km/h (1 Bft) 100,00 %
18.05.2016 06:51 8,6 C 90 % 1015,6 hPa 0,0 l/m 2,6 km/h (1 Bft) S-SW 194 0 min 0,000 mm 0,0 UV-I 80 W/m 7,1 C 8,6 C 3,2 km/h (1 Bft) 100,00 %
18.05.2016 06:52 8,6 C 90 % 1015,6 hPa 0,0 l/m 2,8 km/h (1 Bft) S-SW 194 0 min 0,000 mm 0,0 UV-I 82 W/m 7,1 C 8,6 C 3,2 km/h (1 Bft) 100,00 %
18.05.2016 06:53 8,7 C 89 % 1015,5 hPa 0,0 l/m 1,1 km/h (1 Bft) S 191 0 min 0,000 mm 0,0 UV-I 96 W/m 7,0 C 8,7 C 3,2 km/h (1 Bft) 100,00 %
18.05.2016 06:54 8,7 C 89 % 1015,5 hPa 0,0 l/m 1,2 km/h (1 Bft) S 189 0 min 0,000 mm 0,0 UV-I 91 W/m 7,0 C 8,7 C 4,8 km/h (1 Bft) 98,49 %
18.05.2016 06:55 8,7 C 89 % 1015,5 hPa 0,0 l/m 2,6 km/h (1 Bft) S 186 0 min 0,000 mm 0,0 UV-I 84 W/m 7,0 C 8,7 C 4,8 km/h (1 Bft) 100,00 %
18.05.2016 06:56 8,7 C 89 % 1015,5 hPa 0,0 l/m 2,4 km/h (1 Bft) S 186 0 min 0,000 mm 0,0 UV-I 86 W/m 7,0 C 8,7 C 4,8 km/h (1 Bft) 100,00 %
18.05.2016 06:57 8,8 C 89 % 1015,6 hPa 0,0 l/m 1,6 km/h (1 Bft) S 186 0 min 0,000 mm 0,0 UV-I 89 W/m 7,1 C 8,8 C 4,8 km/h (1 Bft) 100,00 %
18.05.2016 06:58 8,8 C 89 % 1015,6 hPa 0,0 l/m 2,2 km/h (1 Bft) S 186 0 min 0,000 mm 0,0 UV-I 90 W/m 7,1 C 8,8 C 3,2 km/h (1 Bft) 100,00 %
18.05.2016 06:59 8,8 C 88 % 1015,6 hPa 0,0 l/m 1,3 km/h (1 Bft) S 186 0 min 0,000 mm 0,0 UV-I 89 W/m 6,9 C 8,8 C 3,2 km/h (1 Bft) 100,00 %
18.05.2016 07:00 8,8 C 88 % 1015,6 hPa 0,0 l/m 0,4 km/h (0 Bft) S 186 0 min 0,025 mm 0,0 UV-I 88 W/m 6,9 C 8,8 C 1,6 km/h (1 Bft) 100,00 %
18.05.2016 07:02 8,8 C 88 % 1015,5 hPa 0,0 l/m 0,5 km/h (0 Bft) S 186 0 min 0,000 mm 0,0 UV-I 91 W/m 6,9 C 8,8 C 1,6 km/h (1 Bft) 100,00 %
18.05.2016 07:03 8,8 C 88 % 1015,5 hPa 0,0 l/m 0,0 km/h (0 Bft) S 186 0 min 0,000 mm 0,0 UV-I 96 W/m 6,9 C 8,8 C 0,0 km/h (0 Bft) 100,00 %
18.05.2016 07:04 8,9 C 88 % 1015,5 hPa 0,0 l/m 0,0 km/h (0 Bft) S 186 0 min 0,000 mm 0,0 UV-I 99 W/m 7,0 C 8,9 C 0,0 km/h (0 Bft) 100,00 %
18.05.2016 07:05 8,9 C 88 % 1015,5 hPa 0,0 l/m 0,1 km/h (0 Bft) S 186 0 min 0,000 mm 0,0 UV-I 101 W/m 7,0 C 8,9 C 1,6 km/h (1 Bft) 100,00 %
18.05.2016 07:06 8,9 C 88 % 1015,5 hPa 0,0 l/m 1,0 km/h (0 Bft) S 186 0 min 0,000 mm 0,0 UV-I 100 W/m 7,0 C 8,9 C 1,6 km/h (1 Bft) 100,00 %
18.05.2016 07:07 8,9 C 88 % 1015,6 hPa 0,0 l/m 0,9 km/h (0 Bft) S 186 0 min 0,000 mm 0,0 UV-I 97 W/m 7,0 C 8,9 C 3,2 km/h (1 Bft) 100,00 %
18.05.2016 07:08 8,9 C 88 % 1015,6 hPa 0,0 l/m 1,1 km/h (1 Bft) S 186 0 min 0,000 mm 0,0 UV-I 95 W/m 7,0 C 8,9 C 1,6 km/h (1 Bft) 100,00 %
18.05.2016 07:09 8,9 C 88 % 1015,6 hPa 0,0 l/m 1,9 km/h (1 Bft) S 186 0 min 0,000 mm 0,0 UV-I 95 W/m 7,0 C 8,9 C 3,2 km/h (1 Bft) 100,00 %
18.05.2016 07:10 9,0 C 88 % 1015,5 hPa 0,0 l/m 1,0 km/h (0 Bft) S 186 0 min 0,000 mm 0,0 UV-I 96 W/m 7,1 C 9,0 C 3,2 km/h (1 Bft) 100,00 %
18.05.2016 07:11 9,0 C 88 % 1015,5 hPa 0,0 l/m 3,4 km/h (1 Bft) S 186 0 min 0,000 mm 0,0 UV-I 98 W/m 7,1 C 9,0 C 4,8 km/h (1 Bft) 100,00 %
18.05.2016 07:12 9,1 C 88 % 1015,5 hPa 0,0 l/m 2,8 km/h (1 Bft) S 186 0 min 0,000 mm 0,0 UV-I 101 W/m 7,2 C 9,1 C 4,8 km/h (1 Bft) 100,00 %
18.05.2016 07:13 9,1 C 88 % 1015,5 hPa 0,0 l/m 1,7 km/h (1 Bft) S 186 0 min 0,000 mm 0,0 UV-I 105 W/m 7,2 C 9,1 C 3,2 km/h (1 Bft) 100,00 %
18.05.2016 07:14 9,1 C 88 % 1015,5 hPa 0,0 l/m 2,7 km/h (1 Bft) S 186 0 min 0,000 mm 0,0 UV-I 112 W/m 7,2 C 9,1 C 4,8 km/h (1 Bft) 100,00 %
18.05.2016 07:15 9,1 C 88 % 1015,6 hPa 0,0 l/m 4,7 km/h (1 Bft) S-SW 210 0 min 0,000 mm 0,0 UV-I 114 W/m 7,2 C 9,1 C 6,4 km/h (2 Bft) 100,00 %
18.05.2016 07:16 9,1 C 88 % 1015,7 hPa 0,0 l/m 5,7 km/h (1 Bft) SW 234 0 min 0,000 mm 0,0 UV-I 116 W/m 7,2 C 9,1 C 8,0 km/h (2 Bft) 100,00 %
18.05.2016 07:17 9,2 C 88 % 1015,7 hPa 0,0 l/m 6,5 km/h (2 Bft) SW 236 0 min 0,000 mm 0,0 UV-I 115 W/m 7,3 C 9,2 C 8,0 km/h (2 Bft) 96,55 %
18.05.2016 07:18 9,2 C 88 % 1015,8 hPa 0,0 l/m 5,8 km/h (2 Bft) SW 232 0 min 0,000 mm 0,0 UV-I 110 W/m 7,3 C 9,2 C 8,0 km/h (2 Bft) 95,83 %
18.05.2016 07:19 9,2 C 88 % 1015,8 hPa 0,0 l/m 6,6 km/h (2 Bft) S-SW 213 0 min 0,000 mm 0,0 UV-I 104 W/m 7,3 C 9,1 C 9,7 km/h (2 Bft) 90,91 %
18.05.2016 07:20 9,2 C 88 % 1015,8 hPa 0,0 l/m 4,9 km/h (1 Bft) SW 229 0 min 0,000 mm 0,0 UV-I 100 W/m 7,3 C 9,2 C 6,4 km/h (2 Bft) 100,00 %
18.05.2016 07:21 9,2 C 88 % 1015,8 hPa 0,0 l/m 3,3 km/h (1 Bft) SW 225 0 min 0,000 mm 0,0 UV-I 103 W/m 7,3 C 9,2 C 4,8 km/h (1 Bft) 100,00 %
18.05.2016 07:22 9,2 C 88 % 1015,8 hPa 0,0 l/m 4,2 km/h (1 Bft) SW 226 0 min 0,000 mm 0,0 UV-I 108 W/m 7,3 C 9,2 C 6,4 km/h (2 Bft) 100,00 %
18.05.2016 07:23 9,2 C 88 % 1015,7 hPa 0,0 l/m 3,5 km/h (1 Bft) SW 226 0 min 0,000 mm 0,0 UV-I 112 W/m 7,3 C 9,2 C 6,4 km/h (2 Bft) 100,00 %
18.05.2016 07:24 9,2 C 88 % 1015,8 hPa 0,0 l/m 3,8 km/h (1 Bft) SW 226 0 min 0,000 mm 0,0 UV-I 113 W/m 7,3 C 9,2 C 6,4 km/h (2 Bft) 96,15 %
18.05.2016 07:25 9,2 C 88 % 1015,8 hPa 0,0 l/m 4,3 km/h (1 Bft) S-SW 204 0 min 0,000 mm 0,0 UV-I 113 W/m 7,3 C 9,2 C 6,4 km/h (2 Bft) 100,00 %
18.05.2016 07:26 9,2 C 88 % 1015,8 hPa 0,0 l/m 2,7 km/h (1 Bft) S-SW 204 0 min 0,000 mm 0,0 UV-I 111 W/m 7,3 C 9,2 C 4,8 km/h (1 Bft) 100,00 %
18.05.2016 07:27 9,2 C 88 % 1015,8 hPa 0,0 l/m 3,0 km/h (1 Bft) S-SW 205 0 min 0,000 mm 0,0 UV-I 111 W/m 7,3 C 9,2 C 4,8 km/h (1 Bft) 100,00 %
18.05.2016 07:28 9,3 C 88 % 1015,7 hPa 0,0 l/m 2,3 km/h (1 Bft) S-SW 205 0 min 0,000 mm 0,0 UV-I 111 W/m 7,4 C 9,3 C 3,2 km/h (1 Bft) 100,00 %
18.05.2016 07:29 9,3 C 88 % 1015,8 hPa 0,0 l/m 2,6 km/h (1 Bft) S-SW 210 0 min 0,000 mm 0,0 UV-I 111 W/m 7,4 C 9,3 C 4,8 km/h (1 Bft) 100,00 %
18.05.2016 07:30 9,3 C 88 % 1015,7 hPa 0,0 l/m 2,1 km/h (1 Bft) S-SW 210 0 min 0,000 mm 0,0 UV-I 109 W/m 7,4 C 9,3 C 4,8 km/h (1 Bft) 100,00 %
18.05.2016 07:31 9,3 C 88 % 1015,7 hPa 0,0 l/m 3,0 km/h (1 Bft) S-SW 210 0 min 0,000 mm 0,0 UV-I 109 W/m 7,4 C 9,3 C 4,8 km/h (1 Bft) 100,00 %
18.05.2016 07:32 9,3 C 87 % 1015,7 hPa 0,0 l/m 2,7 km/h (1 Bft) S-SW 210 0 min 0,000 mm 0,0 UV-I 110 W/m 7,2 C 9,3 C 3,2 km/h (1 Bft) 100,00 %
18.05.2016 07:33 9,4 C 87 % 1015,7 hPa 0,0 l/m 2,1 km/h (1 Bft) S-SW 210 0 min 0,000 mm 0,0 UV-I 112 W/m 7,3 C 9,4 C 3,2 km/h (1 Bft) 95,83 %
18.05.2016 07:34 9,4 C 87 % 1015,7 hPa 0,0 l/m 1,7 km/h (1 Bft) S-SW 210 0 min 0,000 mm 0,0 UV-I 113 W/m 7,3 C 9,4 C 3,2 km/h (1 Bft) 100,00 %
18.05.2016 07:35 9,4 C 87 % 1015,6 hPa 0,0 l/m 3,2 km/h (1 Bft) S 190 0 min 0,000 mm 0,0 UV-I 114 W/m 7,3 C 9,4 C 4,8 km/h (1 Bft) 100,00 %
18.05.2016 07:36 9,4 C 86 % 1015,6 hPa 0,0 l/m 0,3 km/h (0 Bft) S 190 0 min 0,000 mm 0,0 UV-I 120 W/m 7,2 C 9,4 C 1,6 km/h (1 Bft) 100,00 %
18.05.2016 07:37 9,4 C 86 % 1015,6 hPa 0,0 l/m 1,0 km/h (0 Bft) S 190 0 min 0,000 mm 0,0 UV-I 134 W/m 7,2 C 9,4 C 1,6 km/h (1 Bft) 100,00 %
18.05.2016 07:38 9,5 C 86 % 1015,7 hPa 0,0 l/m 1,6 km/h (1 Bft) S 190 0 min 0,000 mm 0,0 UV-I 145 W/m 7,3 C 9,5 C 3,2 km/h (1 Bft) 100,00 %
18.05.2016 07:39 9,5 C 86 % 1015,6 hPa 0,0 l/m 0,8 km/h (0 Bft) S 190 0 min 0,000 mm 0,0 UV-I 153 W/m 7,3 C 9,5 C 3,2 km/h (1 Bft) 100,00 %
18.05.2016 07:40 9,5 C 86 % 1015,6 hPa 0,0 l/m 1,0 km/h (0 Bft) S 190 0 min 0,000 mm 0,0 UV-I 153 W/m 7,3 C 9,5 C 3,2 km/h (1 Bft) 100,00 %
18.05.2016 07:41 9,6 C 86 % 1015,6 hPa 0,0 l/m 1,4 km/h (1 Bft) S 190 0 min 0,000 mm 0,0 UV-I 147 W/m 7,4 C 9,6 C 1,6 km/h (1 Bft) 100,00 %
18.05.2016 07:42 9,6 C 86 % 1015,6 hPa 0,0 l/m 1,6 km/h (1 Bft) S 190 0 min 0,000 mm 0,0 UV-I 148 W/m 7,4 C 9,6 C 3,2 km/h (1 Bft) 100,00 %
18.05.2016 07:43 9,6 C 86 % 1015,7 hPa 0,0 l/m 3,8 km/h (1 Bft) S-SW 201 0 min 0,000 mm 0,0 UV-I 157 W/m 7,4 C 9,6 C 4,8 km/h (1 Bft) 100,00 %
18.05.2016 07:44 9,7 C 86 % 1015,7 hPa 0,0 l/m 3,1 km/h (1 Bft) S-SW 201 0 min 0,000 mm 0,0 UV-I 163 W/m 7,5 C 9,7 C 4,8 km/h (1 Bft) 100,00 %
18.05.2016 07:45 9,7 C 85 % 1015,7 hPa 0,0 l/m 4,9 km/h (1 Bft) S-SW 199 0 min 0,000 mm 0,0 UV-I 161 W/m 7,3 C 9,7 C 6,4 km/h (2 Bft) 100,00 %
18.05.2016 07:46 9,7 C 85 % 1015,7 hPa 0,0 l/m 4,4 km/h (1 Bft) S-SW 198 0 min 0,000 mm 0,0 UV-I 158 W/m 7,3 C 9,7 C 6,4 km/h (2 Bft) 100,00 %
18.05.2016 07:47 9,7 C 85 % 1015,7 hPa 0,0 l/m 3,9 km/h (1 Bft) S-SW 198 0 min 0,000 mm 0,0 UV-I 158 W/m 7,3 C 9,7 C 4,8 km/h (1 Bft) 100,00 %
18.05.2016 07:48 9,7 C 85 % 1015,7 hPa 0,0 l/m 2,7 km/h (1 Bft) S-SW 196 0 min 0,000 mm 0,0 UV-I 162 W/m 7,3 C 9,7 C 4,8 km/h (1 Bft) 100,00 %
18.05.2016 07:49 9,7 C 85 % 1015,7 hPa 0,0 l/m 0,3 km/h (0 Bft) S-SW 196 0 min 0,000 mm 0,0 UV-I 167 W/m 7,3 C 9,7 C 1,6 km/h (1 Bft) 100,00 %
18.05.2016 07:50 9,7 C 85 % 1015,6 hPa 0,0 l/m 1,7 km/h (1 Bft) S-SW 196 0 min 0,000 mm 0,0 UV-I 167 W/m 7,3 C 9,7 C 3,2 km/h (1 Bft) 93,33 %
18.05.2016 07:51 9,8 C 85 % 1015,6 hPa 0,0 l/m 3,6 km/h (1 Bft) S-SW 196 0 min 0,000 mm 0,2 UV-I 160 W/m 7,4 C 9,8 C 4,8 km/h (1 Bft) 100,00 %
18.05.2016 07:52 9,8 C 86 % 1015,6 hPa 0,0 l/m 2,7 km/h (1 Bft) S-SW 196 0 min 0,000 mm 0,5 UV-I 156 W/m 7,6 C 9,8 C 4,8 km/h (1 Bft) 100,00 %
18.05.2016 07:53 9,9 C 86 % 1015,7 hPa 0,0 l/m 5,2 km/h (1 Bft) S-SW 207 0 min 0,000 mm 0,5 UV-I 152 W/m 7,7 C 9,9 C 6,4 km/h (2 Bft) 100,00 %
18.05.2016 07:54 9,9 C 85 % 1015,6 hPa 0,0 l/m 4,8 km/h (1 Bft) W-SW 242 0 min 0,000 mm 0,5 UV-I 162 W/m 7,5 C 9,9 C 6,4 km/h (2 Bft) 100,00 %
18.05.2016 07:55 9,9 C 85 % 1015,7 hPa 0,0 l/m 5,0 km/h (1 Bft) S-SW 192 0 min 0,000 mm 0,5 UV-I 184 W/m 7,5 C 9,9 C 6,4 km/h (2 Bft) 100,00 %
18.05.2016 07:56 9,9 C 84 % 1015,7 hPa 0,0 l/m 5,6 km/h (1 Bft) W-SW 238 0 min 0,000 mm 0,5 UV-I 197 W/m 7,3 C 9,9 C 8,0 km/h (2 Bft) 98,78 %
18.05.2016 07:57 9,9 C 84 % 1015,7 hPa 0,0 l/m 6,7 km/h (2 Bft) SW 230 0 min 0,000 mm 0,5 UV-I 200 W/m 7,3 C 9,7 C 8,0 km/h (2 Bft) 97,73 %
18.05.2016 07:58 9,9 C 85 % 1015,7 hPa 0,0 l/m 6,1 km/h (2 Bft) SW 229 0 min 0,000 mm 0,5 UV-I 200 W/m 7,5 C 9,9 C 6,4 km/h (2 Bft) 100,00 %
18.05.2016 07:59 10,0 C 85 % 1015,7 hPa 0,0 l/m 4,8 km/h (1 Bft) SW 230 0 min 0,000 mm 0,5 UV-I 199 W/m 7,6 C 10,0 C 6,4 km/h (2 Bft) 96,15 %
18.05.2016 08:00 10,0 C 84 % 1015,7 hPa 0,0 l/m 4,6 km/h (1 Bft) SW 236 0 min 0,077 mm 0,5 UV-I 186 W/m 7,4 C 10,0 C 6,4 km/h (2 Bft) 100,00 %
18.05.2016 08:01 10,0 C 84 % 1015,6 hPa 0,0 l/m 4,6 km/h (1 Bft) SW 230 0 min 0,000 mm 0,5 UV-I 185 W/m 7,4 C 10,0 C 6,4 km/h (2 Bft) 95,65 %
18.05.2016 08:02 10,1 C 84 % 1015,6 hPa 0,0 l/m 3,5 km/h (1 Bft) SW 225 0 min 0,000 mm 0,5 UV-I 184 W/m 7,5 C 10,1 C 4,8 km/h (1 Bft) 100,00 %
18.05.2016 08:03 10,1 C 84 % 1015,6 hPa 0,0 l/m 3,7 km/h (1 Bft) S-SW 207 0 min 0,000 mm 0,5 UV-I 183 W/m 7,5 C 10,1 C 4,8 km/h (1 Bft) 96,15 %
18.05.2016 08:04 10,1 C 84 % 1015,6 hPa 0,0 l/m 3,7 km/h (1 Bft) S-SW 207 0 min 0,000 mm 0,6 UV-I 188 W/m 7,5 C 10,1 C 4,8 km/h (1 Bft) 100,00 %
18.05.2016 08:05 10,1 C 84 % 1015,7 hPa 0,0 l/m 2,7 km/h (1 Bft) SW 223 0 min 0,000 mm 0,6 UV-I 192 W/m 7,5 C 10,1 C 6,4 km/h (2 Bft) 96,15 %
18.05.2016 08:06 10,1 C 84 % 1015,7 hPa 0,0 l/m 4,9 km/h (1 Bft) SW 223 0 min 0,000 mm 0,6 UV-I 191 W/m 7,5 C 10,1 C 6,4 km/h (2 Bft) 100,00 %
18.05.2016 08:07 10,2 C 84 % 1015,7 hPa 0,0 l/m 2,7 km/h (1 Bft) SW 223 0 min 0,000 mm 0,6 UV-I 179 W/m 7,6 C 10,2 C 4,8 km/h (1 Bft) 95,83 %
18.05.2016 08:08 10,2 C 84 % 1015,7 hPa 0,0 l/m 4,9 km/h (1 Bft) S-SW 193 0 min 0,000 mm 0,6 UV-I 171 W/m 7,6 C 10,2 C 8,0 km/h (2 Bft) 95,65 %
18.05.2016 08:09 10,2 C 83 % 1015,7 hPa 0,0 l/m 3,9 km/h (1 Bft) S-SW 194 0 min 0,000 mm 0,6 UV-I 182 W/m 7,4 C 10,2 C 8,0 km/h (2 Bft) 100,00 %
18.05.2016 08:10 10,2 C 82 % 1015,7 hPa 0,0 l/m 4,7 km/h (1 Bft) S-SW 196 0 min 0,000 mm 0,6 UV-I 207 W/m 7,3 C 10,2 C 6,4 km/h (2 Bft) 95,65 %
18.05.2016 08:11 10,2 C 83 % 1015,7 hPa 0,0 l/m 5,4 km/h (1 Bft) S-SW 213 0 min 0,000 mm 0,7 UV-I 237 W/m 7,4 C 10,2 C 6,4 km/h (2 Bft) 95,83 %
18.05.2016 08:12 10,2 C 83 % 1015,7 hPa 0,0 l/m 3,5 km/h (1 Bft) S-SW 207 1 min 0,000 mm 0,7 UV-I 247 W/m 7,4 C 10,2 C 4,8 km/h (1 Bft) 95,65 %
18.05.2016 08:13 10,2 C 83 % 1015,7 hPa 0,0 l/m 1,6 km/h (1 Bft) S-SW 207 0 min 0,000 mm 0,6 UV-I 222 W/m 7,4 C 10,2 C 3,2 km/h (1 Bft) 100,00 %
18.05.2016 08:14 10,2 C 83 % 1015,7 hPa 0,0 l/m 2,5 km/h (1 Bft) S-SW 206 0 min 0,000 mm 0,6 UV-I 200 W/m 7,4 C 10,2 C 4,8 km/h (1 Bft) 95,65 %
18.05.2016 08:15 10,2 C 83 % 1015,7 hPa 0,0 l/m 2,4 km/h (1 Bft) SW 234 0 min 0,000 mm 0,6 UV-I 190 W/m 7,4 C 10,2 C 4,8 km/h (1 Bft) 95,83 %
18.05.2016 08:16 10,2 C 83 % 1015,6 hPa 0,0 l/m 4,4 km/h (1 Bft) SW 234 0 min 0,000 mm 0,6 UV-I 191 W/m 7,4 C 10,2 C 6,4 km/h (2 Bft) 100,00 %
18.05.2016 08:17 10,3 C 84 % 1015,6 hPa 0,0 l/m 3,5 km/h (1 Bft) SW 229 0 min 0,000 mm 0,6 UV-I 207 W/m 7,7 C 10,3 C 4,8 km/h (1 Bft) 95,83 %
18.05.2016 08:18 10,3 C 83 % 1015,7 hPa 0,0 l/m 2,4 km/h (1 Bft) SW 229 0 min 0,000 mm 0,6 UV-I 227 W/m 7,5 C 10,3 C 3,2 km/h (1 Bft) 100,00 %
18.05.2016 08:19 10,4 C 83 % 1015,7 hPa 0,0 l/m 2,9 km/h (1 Bft) SW 229 0 min 0,000 mm 0,6 UV-I 230 W/m 7,6 C 10,4 C 4,8 km/h (1 Bft) 96,30 %
18.05.2016 08:20 10,4 C 83 % 1015,7 hPa 0,0 l/m 2,6 km/h (1 Bft) SW 229 0 min 0,000 mm 0,6 UV-I 220 W/m 7,6 C 10,4 C 4,8 km/h (1 Bft) 95,65 %
18.05.2016 08:21 10,4 C 82 % 1015,7 hPa 0,0 l/m 3,9 km/h (1 Bft) SW 229 0 min 0,000 mm 0,6 UV-I 196 W/m 7,5 C 10,4 C 4,8 km/h (1 Bft) 100,00 %
18.05.2016 08:22 10,4 C 82 % 1015,7 hPa 0,0 l/m 3,3 km/h (1 Bft) SW 229 0 min 0,000 mm 0,6 UV-I 171 W/m 7,5 C 10,4 C 4,8 km/h (1 Bft) 100,00 %
18.05.2016 08:23 10,4 C 84 % 1015,7 hPa 0,0 l/m 2,9 km/h (1 Bft) SW 229 0 min 0,000 mm 0,6 UV-I 142 W/m 7,8 C 10,4 C 4,8 km/h (1 Bft) 96,15 %
18.05.2016 08:24 10,4 C 82 % 1015,6 hPa 0,0 l/m 0,6 km/h (0 Bft) SW 229 0 min 0,000 mm 0,6 UV-I 106 W/m 7,5 C 10,4 C 1,6 km/h (1 Bft) 96,55 %
18.05.2016 08:25 10,4 C 82 % 1015,6 hPa 0,0 l/m 3,5 km/h (1 Bft) SW 219 0 min 0,000 mm 0,6 UV-I 80 W/m 7,5 C 10,4 C 4,8 km/h (1 Bft) 100,00 %
18.05.2016 08:26 10,3 C 82 % 1015,7 hPa 0,0 l/m 2,7 km/h (1 Bft) SW 219 0 min 0,000 mm 0,6 UV-I 70 W/m 7,4 C 10,3 C 3,2 km/h (1 Bft) 96,30 %
18.05.2016 08:27 10,3 C 82 % 1015,7 hPa 0,0 l/m 3,5 km/h (1 Bft) SW 220 0 min 0,000 mm 0,7 UV-I 75 W/m 7,4 C 10,3 C 4,8 km/h (1 Bft) 100,00 %
18.05.2016 08:28 10,3 C 83 % 1015,7 hPa 0,0 l/m 2,3 km/h (1 Bft) SW 220 0 min 0,000 mm 0,8 UV-I 96 W/m 7,5 C 10,3 C 3,2 km/h (1 Bft) 95,83 %
18.05.2016 08:29 10,3 C 83 % 1015,7 hPa 0,0 l/m 1,3 km/h (1 Bft) SW 219 0 min 0,000 mm 0,9 UV-I 115 W/m 7,5 C 10,3 C 3,2 km/h (1 Bft) 100,00 %
18.05.2016 08:30 10,3 C 84 % 1015,7 hPa 0,0 l/m 1,8 km/h (1 Bft) SW 227 1 min 0,000 mm 1,0 UV-I 421 W/m 7,7 C 10,3 C 4,8 km/h (1 Bft) 100,00 %
18.05.2016 08:31 10,4 C 84 % 1015,7 hPa 0,0 l/m 2,7 km/h (1 Bft) SW 227 1 min 0,000 mm 1,1 UV-I 425 W/m 7,8 C 10,4 C 3,2 km/h (1 Bft) 100,00 %
18.05.2016 08:32 10,6 C 83 % 1015,7 hPa 0,0 l/m 3,7 km/h (1 Bft) S-SW 209 1 min 0,000 mm 1,1 UV-I 440 W/m 7,8 C 10,6 C 4,8 km/h (1 Bft) 100,00 %
18.05.2016 08:33 10,7 C 82 % 1015,7 hPa 0,0 l/m 4,1 km/h (1 Bft) SW 229 1 min 0,000 mm 1,2 UV-I 477 W/m 7,8 C 10,7 C 6,4 km/h (2 Bft) 100,00 %
18.05.2016 08:34 10,8 C 82 % 1015,7 hPa 0,0 l/m 3,5 km/h (1 Bft) W-SW 247 1 min 0,000 mm 1,2 UV-I 517 W/m 7,9 C 10,8 C 4,8 km/h (1 Bft) 95,83 %
18.05.2016 08:35 10,8 C 81 % 1015,7 hPa 0,0 l/m 3,8 km/h (1 Bft) SW 229 1 min 0,000 mm 1,2 UV-I 520 W/m 7,7 C 10,8 C 6,4 km/h (2 Bft) 91,30 %
18.05.2016 08:36 10,9 C 81 % 1015,7 hPa 0,0 l/m 2,6 km/h (1 Bft) W-SW 251 1 min 0,000 mm 1,1 UV-I 471 W/m 7,8 C 10,9 C 3,2 km/h (1 Bft) 100,00 %
18.05.2016 08:37 10,9 C 82 % 1015,8 hPa 0,0 l/m 4,5 km/h (1 Bft) W 273 1 min 0,000 mm 1,0 UV-I 292 W/m 7,9 C 10,9 C 6,4 km/h (2 Bft) 100,00 %
18.05.2016 08:38 11,0 C 80 % 1015,7 hPa 0,0 l/m 4,7 km/h (1 Bft) NW 306 1 min 0,000 mm 1,0 UV-I 342 W/m 7,7 C 11,0 C 6,4 km/h (2 Bft) 100,00 %
18.05.2016 08:39 11,0 C 80 % 1015,7 hPa 0,0 l/m 3,9 km/h (1 Bft) W 271 1 min 0,000 mm 1,1 UV-I 410 W/m 7,7 C 11,0 C 6,4 km/h (2 Bft) 100,00 %
18.05.2016 08:40 11,1 C 79 % 1015,8 hPa 0,0 l/m 4,8 km/h (1 Bft) W-SW 254 1 min 0,000 mm 1,1 UV-I 420 W/m 7,6 C 11,1 C 8,0 km/h (2 Bft) 100,00 %
18.05.2016 08:41 11,0 C 78 % 1015,7 hPa 0,0 l/m 3,9 km/h (1 Bft) W 277 1 min 0,000 mm 1,0 UV-I 366 W/m 7,3 C 11,0 C 4,8 km/h (1 Bft) 100,00 %
18.05.2016 08:42 11,0 C 78 % 1015,7 hPa 0,0 l/m 1,5 km/h (1 Bft) W 277 1 min 0,000 mm 1,0 UV-I 354 W/m 7,3 C 11,0 C 3,2 km/h (1 Bft) 100,00 %
18.05.2016 08:43 11,1 C 80 % 1015,7 hPa 0,0 l/m 2,1 km/h (1 Bft) W 262 1 min 0,000 mm 0,9 UV-I 320 W/m 7,8 C 11,1 C 4,8 km/h (1 Bft) 100,00 %
18.05.2016 08:44 11,1 C 79 % 1015,7 hPa 0,0 l/m 4,9 km/h (1 Bft) W 269 1 min 0,000 mm 0,9 UV-I 286 W/m 7,6 C 11,1 C 6,4 km/h (2 Bft) 100,00 %
18.05.2016 08:45 11,2 C 80 % 1015,7 hPa 0,0 l/m 1,5 km/h (1 Bft) W 269 0 min 0,000 mm 0,8 UV-I 262 W/m 7,9 C 11,2 C 3,2 km/h (1 Bft) 100,00 %
18.05.2016 08:46 11,2 C 80 % 1015,7 hPa 0,0 l/m 2,1 km/h (1 Bft) W 269 0 min 0,000 mm 0,7 UV-I 233 W/m 7,9 C 11,2 C 4,8 km/h (1 Bft) 100,00 %
18.05.2016 08:47 11,3 C 80 % 1015,7 hPa 0,0 l/m 4,2 km/h (1 Bft) W-SW 250 0 min 0,000 mm 0,6 UV-I 200 W/m 8,0 C 11,3 C 6,4 km/h (2 Bft) 100,00 %
18.05.2016 08:48 11,2 C 78 % 1015,7 hPa 0,0 l/m 5,1 km/h (1 Bft) W-SW 255 0 min 0,000 mm 0,5 UV-I 179 W/m 7,5 C 11,2 C 6,4 km/h (2 Bft) 100,00 %
18.05.2016 08:49 11,2 C 78 % 1015,7 hPa 0,0 l/m 5,0 km/h (1 Bft) W 269 0 min 0,000 mm 0,5 UV-I 159 W/m 7,5 C 11,2 C 6,4 km/h (2 Bft) 100,00 %
18.05.2016 08:50 11,2 C 79 % 1015,7 hPa 0,0 l/m 3,8 km/h (1 Bft) W-SW 242 0 min 0,000 mm 0,5 UV-I 143 W/m 7,7 C 11,2 C 4,8 km/h (1 Bft) 100,00 %
18.05.2016 08:51 11,2 C 78 % 1015,6 hPa 0,0 l/m 3,5 km/h (1 Bft) W-SW 241 0 min 0,000 mm 0,5 UV-I 136 W/m 7,5 C 11,2 C 4,8 km/h (1 Bft) 100,00 %
18.05.2016 08:52 11,2 C 78 % 1015,6 hPa 0,0 l/m 0,7 km/h (0 Bft) W-SW 241 0 min 0,000 mm 0,5 UV-I 137 W/m 7,5 C 11,2 C 3,2 km/h (1 Bft) 100,00 %
18.05.2016 08:53 11,2 C 78 % 1015,6 hPa 0,0 l/m 4,2 km/h (1 Bft) SW 219 0 min 0,000 mm 0,5 UV-I 145 W/m 7,5 C 11,2 C 6,4 km/h (2 Bft) 100,00 %
18.05.2016 08:54 11,1 C 78 % 1015,6 hPa 0,0 l/m 3,2 km/h (1 Bft) SW 224 0 min 0,000 mm 0,6 UV-I 151 W/m 7,4 C 11,1 C 4,8 km/h (1 Bft) 100,00 %
18.05.2016 08:55 11,1 C 77 % 1015,6 hPa 0,0 l/m 2,7 km/h (1 Bft) W-SW 257 0 min 0,000 mm 0,6 UV-I 158 W/m 7,2 C 11,1 C 4,8 km/h (1 Bft) 100,00 %
18.05.2016 08:56 11,1 C 79 % 1015,6 hPa 0,0 l/m 3,8 km/h (1 Bft) W 266 0 min 0,000 mm 0,7 UV-I 160 W/m 7,6 C 11,1 C 4,8 km/h (1 Bft) 100,00 %
18.05.2016 08:57 11,1 C 77 % 1015,6 hPa 0,0 l/m 2,6 km/h (1 Bft) W 266 0 min 0,000 mm 0,7 UV-I 157 W/m 7,2 C 11,1 C 3,2 km/h (1 Bft) 100,00 %
18.05.2016 08:58 11,1 C 78 % 1015,6 hPa 0,0 l/m 2,5 km/h (1 Bft) W 266 0 min 0,000 mm 0,8 UV-I 152 W/m 7,4 C 11,1 C 3,2 km/h (1 Bft) 100,00 %
18.05.2016 08:59 11,0 C 78 % 1015,6 hPa 0,0 l/m 2,3 km/h (1 Bft) W 266 0 min 0,000 mm 0,9 UV-I 148 W/m 7,3 C 11,0 C 3,2 km/h (1 Bft) 100,00 %
18.05.2016 09:00 11,0 C 77 % 1015,6 hPa 0,0 l/m 2,3 km/h (1 Bft) W 266 0 min 0,127 mm 0,9 UV-I 151 W/m 7,1 C 11,0 C 4,8 km/h (1 Bft) 100,00 %
18.05.2016 09:01 10,9 C 78 % 1015,6 hPa 0,0 l/m 4,0 km/h (1 Bft) W 266 0 min 0,000 mm 1,0 UV-I 158 W/m 7,2 C 10,9 C 6,4 km/h (2 Bft) 95,83 %
18.05.2016 09:02 11,0 C 78 % 1015,6 hPa 0,0 l/m 3,4 km/h (1 Bft) W 261 0 min 0,000 mm 1,1 UV-I 171 W/m 7,3 C 11,0 C 4,8 km/h (1 Bft) 100,00 %
18.05.2016 09:03 11,0 C 79 % 1015,6 hPa 0,0 l/m 3,0 km/h (1 Bft) W 261 0 min 0,000 mm 1,3 UV-I 167 W/m 7,5 C 11,0 C 3,2 km/h (1 Bft) 100,00 %
18.05.2016 09:04 11,0 C 78 % 1015,5 hPa 0,0 l/m 2,9 km/h (1 Bft) W-SW 252 0 min 0,000 mm 1,2 UV-I 157 W/m 7,3 C 11,0 C 3,2 km/h (1 Bft) 96,30 %
18.05.2016 09:05 11,1 C 79 % 1015,5 hPa 0,0 l/m 2,9 km/h (1 Bft) W-SW 248 0 min 0,000 mm 1,2 UV-I 162 W/m 7,6 C 11,1 C 3,2 km/h (1 Bft) 100,00 %
18.05.2016 09:06 11,2 C 79 % 1015,5 hPa 0,0 l/m 3,2 km/h (1 Bft) S-SW 203 0 min 0,000 mm 1,5 UV-I 269 W/m 7,7 C 11,2 C 4,8 km/h (1 Bft) 100,00 %
18.05.2016 09:07 11,2 C 79 % 1015,6 hPa 0,0 l/m 3,4 km/h (1 Bft) S-SW 202 1 min 0,000 mm 1,5 UV-I 420 W/m 7,7 C 11,2 C 6,4 km/h (2 Bft) 100,00 %
18.05.2016 09:08 11,3 C 80 % 1015,6 hPa 0,0 l/m 2,8 km/h (1 Bft) S-SW 202 1 min 0,000 mm 1,5 UV-I 420 W/m 8,0 C 11,3 C 6,4 km/h (2 Bft) 100,00 %
18.05.2016 09:09 11,4 C 79 % 1015,6 hPa 0,0 l/m 3,5 km/h (1 Bft) S-SW 197 1 min 0,000 mm 1,6 UV-I 425 W/m 7,9 C 11,4 C 6,4 km/h (2 Bft) 100,00 %
18.05.2016 09:10 11,5 C 78 % 1015,6 hPa 0,0 l/m 2,4 km/h (1 Bft) S-SW 213 1 min 0,000 mm 1,6 UV-I 386 W/m 7,8 C 11,5 C 4,8 km/h (1 Bft) 100,00 %
18.05.2016 09:11 11,6 C 78 % 1015,6 hPa 0,0 l/m 2,9 km/h (1 Bft) S-SW 200 1 min 0,000 mm 1,7 UV-I 432 W/m 7,9 C 11,6 C 4,8 km/h (1 Bft) 100,00 %
18.05.2016 09:12 11,6 C 79 % 1015,5 hPa 0,0 l/m 2,8 km/h (1 Bft) S-SW 200 1 min 0,000 mm 1,7 UV-I 440 W/m 8,1 C 11,6 C 4,8 km/h (1 Bft) 100,00 %
18.05.2016 09:13 11,7 C 79 % 1015,5 hPa 0,0 l/m 0,3 km/h (0 Bft) S-SW 200 1 min 0,000 mm 1,7 UV-I 443 W/m 8,2 C 11,7 C 1,6 km/h (1 Bft) 100,00 %
18.05.2016 09:14 11,9 C 78 % 1015,5 hPa 0,0 l/m 1,0 km/h (0 Bft) SW 228 1 min 0,000 mm 1,7 UV-I 452 W/m 8,2 C 11,9 C 3,2 km/h (1 Bft) 100,00 %
18.05.2016 09:15 11,9 C 74 % 1015,5 hPa 0,0 l/m 1,8 km/h (1 Bft) SW 228 1 min 0,000 mm 1,8 UV-I 460 W/m 7,4 C 11,9 C 3,2 km/h (1 Bft) 100,00 %
18.05.2016 09:16 11,9 C 74 % 1015,5 hPa 0,0 l/m 0,3 km/h (0 Bft) SW 228 1 min 0,000 mm 1,8 UV-I 469 W/m 7,4 C 11,9 C 1,6 km/h (1 Bft) 100,00 %
18.05.2016 09:17 11,9 C 76 % 1015,5 hPa 0,0 l/m 0,7 km/h (0 Bft) SW 228 1 min 0,000 mm 1,8 UV-I 475 W/m 7,8 C 11,9 C 1,6 km/h (1 Bft) 96,15 %
18.05.2016 09:18 11,8 C 73 % 1015,5 hPa 0,0 l/m 0,3 km/h (0 Bft) SW 228 1 min 0,000 mm 1,8 UV-I 476 W/m 7,1 C 11,8 C 1,6 km/h (1 Bft) 100,00 %
18.05.2016 09:19 11,8 C 74 % 1015,5 hPa 0,0 l/m 0,4 km/h (0 Bft) W-NW 286 1 min 0,000 mm 1,9 UV-I 488 W/m 7,3 C 11,8 C 3,2 km/h (1 Bft) 100,00 %
18.05.2016 09:20 11,9 C 75 % 1015,5 hPa 0,0 l/m 2,1 km/h (1 Bft) W-NW 298 1 min 0,000 mm 1,9 UV-I 496 W/m 7,6 C 11,9 C 4,8 km/h (1 Bft) 100,00 %
18.05.2016 09:21 12,1 C 76 % 1015,5 hPa 0,0 l/m 3,5 km/h (1 Bft) NW 320 1 min 0,000 mm 1,9 UV-I 506 W/m 8,0 C 12,1 C 6,4 km/h (2 Bft) 100,00 %
18.05.2016 09:22 12,1 C 74 % 1015,5 hPa 0,0 l/m 2,1 km/h (1 Bft) NW 316 1 min 0,000 mm 2,0 UV-I 514 W/m 7,6 C 12,1 C 4,8 km/h (1 Bft) 100,00 %
18.05.2016 09:23 12,1 C 74 % 1015,4 hPa 0,0 l/m 0,5 km/h (0 Bft) NW 317 1 min 0,000 mm 2,0 UV-I 521 W/m 7,6 C 12,1 C 3,2 km/h (1 Bft) 100,00 %
18.05.2016 09:24 12,2 C 75 % 1015,4 hPa 0,0 l/m 0,8 km/h (0 Bft) NW 317 1 min 0,000 mm 2,0 UV-I 529 W/m 7,9 C 12,2 C 1,6 km/h (1 Bft) 96,15 %
18.05.2016 09:25 12,2 C 75 % 1015,4 hPa 0,0 l/m 0,3 km/h (0 Bft) NW 318 1 min 0,000 mm 2,0 UV-I 537 W/m 7,9 C 12,2 C 1,6 km/h (1 Bft) 100,00 %
18.05.2016 09:26 12,2 C 76 % 1015,4 hPa 0,0 l/m 2,7 km/h (1 Bft) NW 319 1 min 0,000 mm 2,0 UV-I 542 W/m 8,1 C 12,2 C 4,8 km/h (1 Bft) 100,00 %
18.05.2016 09:27 12,2 C 76 % 1015,4 hPa 0,0 l/m 3,0 km/h (1 Bft) NW 309 1 min 0,000 mm 2,1 UV-I 547 W/m 8,1 C 12,2 C 4,8 km/h (1 Bft) 100,00 %
18.05.2016 09:28 12,2 C 75 % 1015,4 hPa 0,0 l/m 0,2 km/h (0 Bft) NW 309 1 min 0,000 mm 2,1 UV-I 555 W/m 7,9 C 12,2 C 1,6 km/h (1 Bft) 100,00 %
18.05.2016 09:29 12,3 C 77 % 1015,4 hPa 0,0 l/m 0,5 km/h (0 Bft) NW 309 1 min 0,000 mm 2,1 UV-I 562 W/m 8,4 C 12,3 C 1,6 km/h (1 Bft) 100,00 %
18.05.2016 09:30 12,3 C 75 % 1015,5 hPa 0,0 l/m 2,5 km/h (1 Bft) N-NW 339 1 min 0,000 mm 2,1 UV-I 568 W/m 8,0 C 12,3 C 4,8 km/h (1 Bft) 100,00 %
18.05.2016 09:31 12,4 C 75 % 1015,4 hPa 0,0 l/m 2,5 km/h (1 Bft) N-NW 345 1 min 0,000 mm 2,2 UV-I 569 W/m 8,1 C 12,4 C 4,8 km/h (1 Bft) 100,00 %
18.05.2016 09:32 12,4 C 75 % 1015,4 hPa 0,0 l/m 3,8 km/h (1 Bft) N 11 1 min 0,000 mm 2,2 UV-I 569 W/m 8,1 C 12,4 C 6,4 km/h (2 Bft) 100,00 %
18.05.2016 09:33 12,4 C 73 % 1015,4 hPa 0,0 l/m 4,2 km/h (1 Bft) N-NO 13 1 min 0,000 mm 2,2 UV-I 568 W/m 7,7 C 12,4 C 8,0 km/h (2 Bft) 100,00 %
18.05.2016 09:34 12,5 C 74 % 1015,4 hPa 0,0 l/m 4,3 km/h (1 Bft) NO 34 1 min 0,000 mm 2,2 UV-I 573 W/m 8,0 C 12,5 C 6,4 km/h (2 Bft) 100,00 %
18.05.2016 09:35 12,6 C 74 % 1015,4 hPa 0,0 l/m 2,8 km/h (1 Bft) NO 49 1 min 0,000 mm 2,2 UV-I 555 W/m 8,1 C 12,6 C 4,8 km/h (1 Bft) 100,00 %
18.05.2016 09:36 12,5 C 71 % 1015,3 hPa 0,0 l/m 2,5 km/h (1 Bft) NO 52 1 min 0,000 mm 2,2 UV-I 515 W/m 7,4 C 12,5 C 4,8 km/h (1 Bft) 100,00 %
18.05.2016 09:37 12,5 C 72 % 1015,3 hPa 0,0 l/m 3,6 km/h (1 Bft) NO 52 1 min 0,000 mm 2,1 UV-I 552 W/m 7,6 C 12,5 C 4,8 km/h (1 Bft) 100,00 %
18.05.2016 09:38 12,5 C 71 % 1015,3 hPa 0,0 l/m 1,5 km/h (1 Bft) NO 52 1 min 0,000 mm 2,3 UV-I 584 W/m 7,4 C 12,5 C 3,2 km/h (1 Bft) 100,00 %
18.05.2016 09:39 12,4 C 71 % 1015,3 hPa 0,0 l/m 0,5 km/h (0 Bft) NO 51 1 min 0,000 mm 2,3 UV-I 587 W/m 7,3 C 12,4 C 1,6 km/h (1 Bft) 100,00 %
18.05.2016 09:40 12,4 C 71 % 1015,4 hPa 0,0 l/m 0,6 km/h (0 Bft) NO 51 1 min 0,000 mm 2,3 UV-I 591 W/m 7,3 C 12,4 C 1,6 km/h (1 Bft) 100,00 %
18.05.2016 09:41 12,5 C 73 % 1015,4 hPa 0,0 l/m 0,5 km/h (0 Bft) NO 51 1 min 0,000 mm 2,2 UV-I 545 W/m 7,8 C 12,5 C 1,6 km/h (1 Bft) 100,00 %
18.05.2016 09:42 12,6 C 72 % 1015,3 hPa 0,0 l/m 1,3 km/h (1 Bft) NO 51 1 min 0,000 mm 2,1 UV-I 545 W/m 7,7 C 12,6 C 1,6 km/h (1 Bft) 100,00 %
18.05.2016 09:43 12,6 C 72 % 1015,3 hPa 0,0 l/m 0,5 km/h (0 Bft) O 101 1 min 0,000 mm 2,4 UV-I 528 W/m 7,7 C 12,6 C 1,6 km/h (1 Bft) 100,00 %
18.05.2016 09:44 12,6 C 72 % 1015,3 hPa 0,0 l/m 1,4 km/h (1 Bft) S 178 1 min 0,000 mm 2,4 UV-I 577 W/m 7,7 C 12,6 C 4,8 km/h (1 Bft) 100,00 %
18.05.2016 09:45 12,6 C 70 % 1015,3 hPa 0,0 l/m 4,6 km/h (1 Bft) SW 215 1 min 0,000 mm 2,4 UV-I 601 W/m 7,3 C 12,6 C 6,4 km/h (2 Bft) 100,00 %
18.05.2016 09:46 12,7 C 71 % 1015,3 hPa 0,0 l/m 6,4 km/h (2 Bft) SW 225 1 min 0,000 mm 2,4 UV-I 602 W/m 7,6 C 12,7 C 9,7 km/h (2 Bft) 100,00 %
18.05.2016 09:47 12,7 C 71 % 1015,3 hPa 0,0 l/m 6,2 km/h (2 Bft) S 186 1 min 0,000 mm 2,4 UV-I 613 W/m 7,6 C 12,7 C 8,0 km/h (2 Bft) 95,65 %
18.05.2016 09:48 12,6 C 70 % 1015,3 hPa 0,0 l/m 5,3 km/h (1 Bft) S-SW 205 1 min 0,000 mm 2,4 UV-I 610 W/m 7,3 C 12,6 C 8,0 km/h (2 Bft) 100,00 %
18.05.2016 09:49 12,6 C 70 % 1015,3 hPa 0,0 l/m 2,2 km/h (1 Bft) S-SW 205 1 min 0,000 mm 2,4 UV-I 609 W/m 7,3 C 12,6 C 3,2 km/h (1 Bft) 100,00 %
18.05.2016 09:50 12,6 C 70 % 1015,3 hPa 0,0 l/m 1,4 km/h (1 Bft) S 190 1 min 0,000 mm 2,5 UV-I 616 W/m 7,3 C 12,6 C 3,2 km/h (1 Bft) 96,30 %
18.05.2016 09:51 12,6 C 69 % 1015,3 hPa 0,0 l/m 2,0 km/h (1 Bft) S 182 1 min 0,000 mm 2,5 UV-I 621 W/m 7,1 C 12,6 C 3,2 km/h (1 Bft) 100,00 %
18.05.2016 09:52 12,6 C 68 % 1015,3 hPa 0,0 l/m 1,9 km/h (1 Bft) O-NO 76 1 min 0,000 mm 2,5 UV-I 627 W/m 6,9 C 12,6 C 3,2 km/h (1 Bft) 100,00 %
18.05.2016 09:53 12,7 C 68 % 1015,3 hPa 0,0 l/m 3,6 km/h (1 Bft) O-NO 69 1 min 0,000 mm 2,6 UV-I 639 W/m 6,9 C 12,7 C 6,4 km/h (2 Bft) 100,00 %
18.05.2016 09:54 12,8 C 66 % 1015,3 hPa 0,0 l/m 6,4 km/h (2 Bft) O 94 1 min 0,000 mm 2,6 UV-I 645 W/m 6,6 C 12,8 C 9,7 km/h (2 Bft) 95,83 %
18.05.2016 09:55 12,9 C 66 % 1015,3 hPa 0,0 l/m 6,4 km/h (2 Bft) O 85 1 min 0,000 mm 2,6 UV-I 644 W/m 6,7 C 12,9 C 8,0 km/h (2 Bft) 100,00 %
18.05.2016 09:56 13,0 C 67 % 1015,3 hPa 0,0 l/m 5,3 km/h (1 Bft) O 91 1 min 0,000 mm 2,6 UV-I 642 W/m 7,0 C 13,0 C 9,7 km/h (2 Bft) 96,30 %
18.05.2016 09:57 13,0 C 68 % 1015,3 hPa 0,0 l/m 1,9 km/h (1 Bft) O 92 1 min 0,000 mm 2,6 UV-I 645 W/m 7,2 C 13,0 C 3,2 km/h (1 Bft) 95,65 %
18.05.2016 09:58 13,1 C 68 % 1015,3 hPa 0,0 l/m 1,1 km/h (1 Bft) S-SO 149 1 min 0,000 mm 2,7 UV-I 648 W/m 7,3 C 13,1 C 3,2 km/h (1 Bft) 91,67 %
18.05.2016 09:59 13,3 C 67 % 1015,3 hPa 0,0 l/m 1,2 km/h (1 Bft) S 183 1 min 0,000 mm 2,7 UV-I 650 W/m 7,3 C 13,3 C 8,0 km/h (2 Bft) 97,56 %
18.05.2016 10:00 13,4 C 67 % 1015,3 hPa 0,0 l/m 6,6 km/h (2 Bft) S 185 1 min 0,254 mm 2,7 UV-I 652 W/m 7,4 C 13,3 C 9,7 km/h (2 Bft) 100,00 %
18.05.2016 10:02 13,5 C 60 % 1015,3 hPa 0,0 l/m 3,3 km/h (1 Bft) S-SO 162 2 min 0,000 mm 2,7 UV-I 658 W/m 5,9 C 13,5 C 6,4 km/h (2 Bft) 97,73 %
18.05.2016 10:03 13,4 C 64 % 1015,2 hPa 0,0 l/m 1,9 km/h (1 Bft) W-SW 250 1 min 0,000 mm 2,8 UV-I 662 W/m 6,7 C 13,4 C 3,2 km/h (1 Bft) 91,67 %
18.05.2016 10:04 13,4 C 63 % 1015,2 hPa 0,0 l/m 2,8 km/h (1 Bft) W-SW 250 1 min 0,000 mm 2,8 UV-I 658 W/m 6,5 C 13,4 C 4,8 km/h (1 Bft) 100,00 %
18.05.2016 10:05 13,6 C 64 % 1015,3 hPa 0,0 l/m 6,4 km/h (2 Bft) S-SW 212 1 min 0,000 mm 2,8 UV-I 662 W/m 6,9 C 13,6 C 9,7 km/h (2 Bft) 96,30 %
18.05.2016 10:06 13,5 C 59 % 1015,2 hPa 0,0 l/m 2,6 km/h (1 Bft) S-SW 213 1 min 0,000 mm 2,8 UV-I 666 W/m 5,6 C 13,5 C 6,4 km/h (2 Bft) 95,65 %
18.05.2016 10:07 13,4 C 60 % 1015,2 hPa 0,0 l/m 1,2 km/h (1 Bft) S-SW 212 1 min 0,000 mm 2,9 UV-I 668 W/m 5,8 C 13,4 C 4,8 km/h (1 Bft) 100,00 %
18.05.2016 10:08 13,3 C 60 % 1015,2 hPa 0,0 l/m 2,6 km/h (1 Bft) S-SW 211 1 min 0,000 mm 2,9 UV-I 670 W/m 5,7 C 13,3 C 4,8 km/h (1 Bft) 95,65 %
18.05.2016 10:09 13,3 C 61 % 1015,2 hPa 0,0 l/m 2,9 km/h (1 Bft) SO 146 1 min 0,000 mm 2,9 UV-I 609 W/m 5,9 C 13,3 C 4,8 km/h (1 Bft) 96,67 %
18.05.2016 10:10 13,3 C 57 % 1015,3 hPa 0,0 l/m 3,4 km/h (1 Bft) SO 146 1 min 0,000 mm 2,9 UV-I 628 W/m 5,0 C 13,3 C 4,8 km/h (1 Bft) 96,15 %
18.05.2016 10:11 13,3 C 61 % 1015,2 hPa 0,0 l/m 2,3 km/h (1 Bft) SO 138 1 min 0,000 mm 2,9 UV-I 648 W/m 5,9 C 13,3 C 4,8 km/h (1 Bft) 100,00 %
18.05.2016 10:12 13,5 C 62 % 1015,2 hPa 0,0 l/m 3,4 km/h (1 Bft) SO 138 1 min 0,000 mm 2,9 UV-I 673 W/m 6,4 C 13,5 C 4,8 km/h (1 Bft) 95,65 %
18.05.2016 10:13 13,5 C 62 % 1015,1 hPa 0,0 l/m 3,5 km/h (1 Bft) S-SO 157 1 min 0,000 mm 3,0 UV-I 581 W/m 6,4 C 13,5 C 6,4 km/h (2 Bft) 95,83 %
18.05.2016 10:14 13,5 C 62 % 1015,1 hPa 0,0 l/m 3,9 km/h (1 Bft) O 86 1 min 0,000 mm 3,0 UV-I 528 W/m 6,4 C 13,5 C 6,4 km/h (2 Bft) 95,65 %
18.05.2016 10:15 13,6 C 61 % 1015,1 hPa 0,0 l/m 6,2 km/h (2 Bft) O-NO 74 1 min 0,000 mm 3,0 UV-I 546 W/m 6,2 C 13,6 C 8,0 km/h (2 Bft) 95,83 %
18.05.2016 10:16 13,6 C 61 % 1015,1 hPa 0,0 l/m 3,3 km/h (1 Bft) O-NO 74 1 min 0,000 mm 3,0 UV-I 681 W/m 6,2 C 13,6 C 4,8 km/h (1 Bft) 98,73 %
18.05.2016 10:17 13,6 C 62 % 1015,1 hPa 0,0 l/m 2,5 km/h (1 Bft) O-NO 74 1 min 0,000 mm 3,0 UV-I 682 W/m 6,5 C 13,6 C 4,8 km/h (1 Bft) 97,37 %
18.05.2016 10:18 13,6 C 63 % 1015,1 hPa 0,0 l/m 1,8 km/h (1 Bft) O-NO 73 1 min 0,000 mm 2,9 UV-I 682 W/m 6,7 C 13,6 C 3,2 km/h (1 Bft) 100,00 %
18.05.2016 10:19 13,7 C 65 % 1015,1 hPa 0,0 l/m 5,6 km/h (1 Bft) SW 236 1 min 0,000 mm 3,0 UV-I 682 W/m 7,2 C 13,7 C 8,0 km/h (2 Bft) 96,15 %
18.05.2016 10:20 13,7 C 61 % 1015,1 hPa 0,0 l/m 4,4 km/h (1 Bft) SW 232 1 min 0,000 mm 3,1 UV-I 684 W/m 6,3 C 13,7 C 6,4 km/h (2 Bft) 100,00 %
18.05.2016 10:21 13,7 C 62 % 1015,1 hPa 0,0 l/m 3,0 km/h (1 Bft) SW 235 1 min 0,000 mm 2,9 UV-I 687 W/m 6,6 C 13,7 C 4,8 km/h (1 Bft) 93,33 %
18.05.2016 10:22 13,7 C 61 % 1015,1 hPa 0,0 l/m 3,1 km/h (1 Bft) W-SW 250 1 min 0,000 mm 3,1 UV-I 687 W/m 6,3 C 13,7 C 4,8 km/h (1 Bft) 100,00 %
18.05.2016 10:23 13,7 C 63 % 1015,1 hPa 0,0 l/m 5,2 km/h (1 Bft) S-SW 213 1 min 0,000 mm 3,1 UV-I 687 W/m 6,8 C 13,7 C 8,0 km/h (2 Bft) 97,73 %
18.05.2016 10:24 13,7 C 61 % 1015,1 hPa 0,0 l/m 5,7 km/h (1 Bft) SW 217 1 min 0,000 mm 3,0 UV-I 689 W/m 6,3 C 13,7 C 8,0 km/h (2 Bft) 100,00 %
18.05.2016 10:25 13,7 C 60 % 1015,1 hPa 0,0 l/m 5,8 km/h (2 Bft) S 180 1 min 0,000 mm 3,0 UV-I 582 W/m 6,1 C 13,7 C 9,7 km/h (2 Bft) 96,15 %
18.05.2016 10:26 13,7 C 61 % 1015,1 hPa 0,0 l/m 3,5 km/h (1 Bft) S 179 1 min 0,000 mm 3,1 UV-I 544 W/m 6,3 C 13,7 C 6,4 km/h (2 Bft) 95,83 %
18.05.2016 10:27 13,7 C 60 % 1015,1 hPa 0,0 l/m 1,9 km/h (1 Bft) S 178 1 min 0,000 mm 3,1 UV-I 695 W/m 6,1 C 13,7 C 3,2 km/h (1 Bft) 100,00 %
18.05.2016 10:28 13,7 C 60 % 1015,1 hPa 0,0 l/m 5,9 km/h (2 Bft) S-SW 202 1 min 0,000 mm 3,2 UV-I 700 W/m 6,1 C 13,7 C 9,7 km/h (2 Bft) 100,00 %
18.05.2016 10:29 13,7 C 57 % 1015,1 hPa 0,0 l/m 1,8 km/h (1 Bft) S 180 1 min 0,000 mm 3,2 UV-I 701 W/m 5,3 C 13,7 C 4,8 km/h (1 Bft) 100,00 %
18.05.2016 10:30 13,7 C 58 % 1015,1 hPa 0,0 l/m 2,6 km/h (1 Bft) S-SO 167 1 min 0,000 mm 3,2 UV-I 706 W/m 5,6 C 13,7 C 4,8 km/h (1 Bft) 100,00 %
18.05.2016 10:31 13,7 C 61 % 1015,1 hPa 0,0 l/m 1,7 km/h (1 Bft) S-SO 167 1 min 0,000 mm 3,3 UV-I 707 W/m 6,3 C 13,7 C 4,8 km/h (1 Bft) 100,00 %
18.05.2016 10:32 13,8 C 59 % 1015,1 hPa 0,0 l/m 4,0 km/h (1 Bft) S-SW 196 1 min 0,000 mm 3,3 UV-I 696 W/m 5,9 C 13,8 C 6,4 km/h (2 Bft) 96,30 %
18.05.2016 10:33 13,8 C 58 % 1015,0 hPa 0,0 l/m 1,1 km/h (1 Bft) S-SW 196 1 min 0,000 mm 3,3 UV-I 694 W/m 5,7 C 13,8 C 3,2 km/h (1 Bft) 100,00 %
18.05.2016 10:34 13,9 C 55 % 1015,0 hPa 0,0 l/m 0,0 km/h (0 Bft) S-SW 196 1 min 0,000 mm 3,3 UV-I 699 W/m 5,0 C 13,9 C 0,0 km/h (0 Bft) 100,00 %
18.05.2016 10:35 13,9 C 57 % 1015,0 hPa 0,0 l/m 2,3 km/h (1 Bft) O-SO 115 1 min 0,000 mm 3,3 UV-I 713 W/m 5,5 C 13,9 C 6,4 km/h (2 Bft) 100,00 %
18.05.2016 10:36 14,1 C 56 % 1015,0 hPa 0,0 l/m 5,0 km/h (1 Bft) O 97 1 min 0,000 mm 3,4 UV-I 672 W/m 5,5 C 14,1 C 9,7 km/h (2 Bft) 100,00 %
18.05.2016 10:37 14,1 C 58 % 1015,0 hPa 0,0 l/m 2,7 km/h (1 Bft) S-SW 213 1 min 0,000 mm 3,4 UV-I 701 W/m 6,0 C 14,1 C 6,4 km/h (2 Bft) 100,00 %
18.05.2016 10:38 14,2 C 60 % 1015,0 hPa 0,0 l/m 3,3 km/h (1 Bft) S-SO 164 1 min 0,000 mm 3,4 UV-I 725 W/m 6,5 C 14,2 C 6,4 km/h (2 Bft) 100,00 %
18.05.2016 10:39 14,3 C 59 % 1015,1 hPa 0,0 l/m 4,2 km/h (1 Bft) S-SO 167 1 min 0,000 mm 3,4 UV-I 729 W/m 6,4 C 14,3 C 11,3 km/h (2 Bft) 100,00 %
18.05.2016 10:40 14,2 C 54 % 1015,1 hPa 0,0 l/m 4,7 km/h (1 Bft) SW 223 1 min 0,000 mm 3,4 UV-I 728 W/m 5,0 C 14,2 C 8,0 km/h (2 Bft) 100,00 %
18.05.2016 10:41 14,2 C 56 % 1015,0 hPa 0,0 l/m 2,1 km/h (1 Bft) S 186 1 min 0,000 mm 3,4 UV-I 727 W/m 5,6 C 14,2 C 6,4 km/h (2 Bft) 100,00 %
18.05.2016 10:42 14,1 C 57 % 1015,0 hPa 0,0 l/m 4,7 km/h (1 Bft) S-SW 196 1 min 0,000 mm 3,4 UV-I 726 W/m 5,7 C 14,1 C 8,0 km/h (2 Bft) 100,00 %
18.05.2016 10:43 14,1 C 56 % 1015,0 hPa 0,0 l/m 2,0 km/h (1 Bft) S 190 1 min 0,000 mm 3,5 UV-I 730 W/m 5,5 C 14,1 C 3,2 km/h (1 Bft) 100,00 %
18.05.2016 10:44 14,0 C 56 % 1015,0 hPa 0,0 l/m 6,1 km/h (2 Bft) S 190 1 min 0,000 mm 3,5 UV-I 731 W/m 5,4 C 14,0 C 9,7 km/h (2 Bft) 100,00 %
18.05.2016 10:45 14,0 C 55 % 1015,0 hPa 0,0 l/m 3,4 km/h (1 Bft) SW 215 1 min 0,000 mm 3,5 UV-I 729 W/m 5,1 C 14,0 C 4,8 km/h (1 Bft) 100,00 %
18.05.2016 10:46 14,1 C 58 % 1015,0 hPa 0,0 l/m 1,8 km/h (1 Bft) SW 215 1 min 0,000 mm 3,2 UV-I 733 W/m 6,0 C 14,1 C 3,2 km/h (1 Bft) 100,00 %
18.05.2016 10:47 14,2 C 57 % 1015,0 hPa 0,0 l/m 3,9 km/h (1 Bft) O-SO 114 1 min 0,000 mm 3,5 UV-I 737 W/m 5,8 C 14,2 C 6,4 km/h (2 Bft) 100,00 %
18.05.2016 10:48 14,3 C 56 % 1015,0 hPa 0,0 l/m 2,9 km/h (1 Bft) O-SO 114 1 min 0,000 mm 3,6 UV-I 741 W/m 5,6 C 14,3 C 4,8 km/h (1 Bft) 100,00 %
18.05.2016 10:49 14,4 C 57 % 1015,0 hPa 0,0 l/m 0,5 km/h (0 Bft) O-SO 115 1 min 0,000 mm 3,6 UV-I 744 W/m 6,0 C 14,4 C 1,6 km/h (1 Bft) 100,00 %
18.05.2016 10:50 14,4 C 56 % 1015,0 hPa 0,0 l/m 1,9 km/h (1 Bft) SO 130 1 min 0,000 mm 3,6 UV-I 747 W/m 5,7 C 14,4 C 3,2 km/h (1 Bft) 91,30 %
18.05.2016 10:51 14,4 C 54 % 1015,0 hPa 0,0 l/m 0,8 km/h (0 Bft) SO 130 1 min 0,000 mm 3,6 UV-I 747 W/m 5,2 C 14,4 C 1,6 km/h (1 Bft) 100,00 %
18.05.2016 10:52 14,5 C 62 % 1015,0 hPa 0,0 l/m 0,5 km/h (0 Bft) SO 130 1 min 0,000 mm 3,4 UV-I 747 W/m 7,3 C 14,5 C 1,6 km/h (1 Bft) 100,00 %
18.05.2016 10:53 14,7 C 58 % 1015,0 hPa 0,0 l/m 1,8 km/h (1 Bft) W 279 1 min 0,000 mm 3,7 UV-I 749 W/m 6,5 C 14,7 C 3,2 km/h (1 Bft) 100,00 %
18.05.2016 10:54 14,7 C 58 % 1014,9 hPa 0,0 l/m 3,5 km/h (1 Bft) W-SW 246 1 min 0,000 mm 3,7 UV-I 752 W/m 6,5 C 14,7 C 9,7 km/h (2 Bft) 100,00 %
18.05.2016 10:55 14,6 C 54 % 1015,0 hPa 0,0 l/m 5,5 km/h (1 Bft) W-SW 243 1 min 0,000 mm 3,7 UV-I 752 W/m 5,4 C 14,6 C 12,9 km/h (3 Bft) 100,00 %
18.05.2016 10:56 14,5 C 54 % 1015,0 hPa 0,0 l/m 5,4 km/h (1 Bft) W-SW 248 1 min 0,000 mm 3,8 UV-I 753 W/m 5,3 C 14,5 C 8,0 km/h (2 Bft) 95,65 %
18.05.2016 10:57 14,6 C 55 % 1015,0 hPa 0,0 l/m 7,5 km/h (2 Bft) S 171 1 min 0,000 mm 3,8 UV-I 763 W/m 5,7 C 14,0 C 12,9 km/h (3 Bft) 100,00 %
18.05.2016 10:58 14,5 C 55 % 1015,0 hPa 0,0 l/m 7,2 km/h (2 Bft) S 188 1 min 0,000 mm 3,8 UV-I 762 W/m 5,6 C 14,0 C 14,5 km/h (3 Bft) 100,00 %
18.05.2016 10:59 14,5 C 56 % 1015,0 hPa 0,0 l/m 5,6 km/h (1 Bft) S 173 1 min 0,000 mm 3,8 UV-I 763 W/m 5,8 C 14,5 C 11,3 km/h (2 Bft) 100,00 %
18.05.2016 11:00 14,5 C 55 % 1015,0 hPa 0,0 l/m 8,4 km/h (2 Bft) S-SW 198 1 min 0,355 mm 3,8 UV-I 764 W/m 5,6 C 13,4 C 12,9 km/h (3 Bft) 100,00 %
18.05.2016 11:01 14,5 C 55 % 1014,9 hPa 0,0 l/m 7,6 km/h (2 Bft) SW 220 1 min 0,000 mm 3,8 UV-I 760 W/m 5,6 C 13,8 C 11,3 km/h (2 Bft) 95,83 %
18.05.2016 11:02 14,5 C 56 % 1014,9 hPa 0,0 l/m 7,1 km/h (2 Bft) S-SO 161 1 min 0,000 mm 3,8 UV-I 763 W/m 5,8 C 14,1 C 9,7 km/h (2 Bft) 100,00 %
18.05.2016 11:03 14,5 C 56 % 1014,9 hPa 0,0 l/m 7,2 km/h (2 Bft) S 188 1 min 0,000 mm 3,8 UV-I 767 W/m 5,8 C 14,0 C 11,3 km/h (2 Bft) 100,00 %
18.05.2016 11:04 14,6 C 57 % 1014,9 hPa 0,0 l/m 8,5 km/h (2 Bft) S 173 1 min 0,000 mm 3,8 UV-I 770 W/m 6,2 C 13,4 C 12,9 km/h (3 Bft) 100,00 %
18.05.2016 11:05 14,6 C 52 % 1014,9 hPa 0,0 l/m 6,3 km/h (2 Bft) SO 130 1 min 0,000 mm 3,6 UV-I 771 W/m 4,9 C 14,6 C 9,7 km/h (2 Bft) 100,00 %
18.05.2016 11:06 14,4 C 51 % 1014,9 hPa 0,0 l/m 5,2 km/h (1 Bft) S-SO 151 1 min 0,000 mm 3,6 UV-I 773 W/m 4,4 C 14,4 C 8,0 km/h (2 Bft) 100,00 %
18.05.2016 11:07 14,3 C 54 % 1014,9 hPa 0,0 l/m 6,1 km/h (2 Bft) S 191 1 min 0,000 mm 3,9 UV-I 777 W/m 5,1 C 14,3 C 9,7 km/h (2 Bft) 100,00 %
18.05.2016 11:08 14,3 C 53 % 1014,9 hPa 0,0 l/m 3,8 km/h (1 Bft) S-SW 201 1 min 0,000 mm 3,9 UV-I 779 W/m 4,9 C 14,3 C 6,4 km/h (2 Bft) 100,00 %
18.05.2016 11:09 14,2 C 53 % 1014,9 hPa 0,0 l/m 2,2 km/h (1 Bft) S-SW 201 1 min 0,000 mm 3,9 UV-I 774 W/m 4,8 C 14,2 C 4,8 km/h (1 Bft) 100,00 %
18.05.2016 11:10 14,2 C 52 % 1014,9 hPa 0,0 l/m 1,3 km/h (1 Bft) S-SW 201 1 min 0,000 mm 3,9 UV-I 774 W/m 4,5 C 14,2 C 1,6 km/h (1 Bft) 100,00 %
18.05.2016 11:11 14,2 C 56 % 1014,9 hPa 0,0 l/m 0,7 km/h (0 Bft) S-SO 147 1 min 0,000 mm 4,0 UV-I 779 W/m 5,6 C 14,2 C 3,2 km/h (1 Bft) 100,00 %
18.05.2016 11:12 14,3 C 54 % 1014,8 hPa 0,0 l/m 3,2 km/h (1 Bft) SO 128 1 min 0,000 mm 4,0 UV-I 779 W/m 5,1 C 14,3 C 4,8 km/h (1 Bft) 100,00 %
18.05.2016 11:13 14,4 C 55 % 1014,8 hPa 0,0 l/m 2,2 km/h (1 Bft) SO 128 1 min 0,000 mm 4,0 UV-I 780 W/m 5,5 C 14,4 C 3,2 km/h (1 Bft) 100,00 %
18.05.2016 11:14 14,4 C 53 % 1014,8 hPa 0,0 l/m 2,5 km/h (1 Bft) O-NO 62 1 min 0,000 mm 4,0 UV-I 783 W/m 4,9 C 14,4 C 4,8 km/h (1 Bft) 100,00 %
18.05.2016 11:15 14,4 C 54 % 1014,8 hPa 0,0 l/m 3,1 km/h (1 Bft) N-NW 334 1 min 0,000 mm 4,0 UV-I 780 W/m 5,2 C 14,4 C 4,8 km/h (1 Bft) 100,00 %
18.05.2016 11:16 14,4 C 54 % 1014,8 hPa 0,0 l/m 2,7 km/h (1 Bft) N-NW 346 1 min 0,000 mm 4,0 UV-I 778 W/m 5,2 C 14,4 C 4,8 km/h (1 Bft) 100,00 %
18.05.2016 11:17 14,5 C 57 % 1014,8 hPa 0,0 l/m 3,0 km/h (1 Bft) NO 53 1 min 0,000 mm 3,9 UV-I 779 W/m 6,1 C 14,5 C 4,8 km/h (1 Bft) 100,00 %
18.05.2016 11:18 14,6 C 54 % 1014,7 hPa 0,0 l/m 5,1 km/h (1 Bft) NO 53 1 min 0,000 mm 3,9 UV-I 782 W/m 5,4 C 14,6 C 6,4 km/h (2 Bft) 100,00 %
18.05.2016 11:19 14,7 C 60 % 1014,7 hPa 0,0 l/m 3,6 km/h (1 Bft) NO 38 1 min 0,000 mm 4,1 UV-I 787 W/m 7,0 C 14,7 C 6,4 km/h (2 Bft) 100,00 %
18.05.2016 11:20 14,8 C 62 % 1014,7 hPa 0,0 l/m 1,4 km/h (1 Bft) NO 38 1 min 0,000 mm 4,1 UV-I 727 W/m 7,6 C 14,8 C 1,6 km/h (1 Bft) 100,00 %
18.05.2016 11:21 14,9 C 57 % 1014,7 hPa 0,0 l/m 3,0 km/h (1 Bft) S-SO 154 1 min 0,000 mm 4,1 UV-I 794 W/m 6,5 C 14,9 C 4,8 km/h (1 Bft) 100,00 %
18.05.2016 11:22 15,0 C 54 % 1014,7 hPa 0,0 l/m 5,2 km/h (1 Bft) SW 223 1 min 0,000 mm 4,1 UV-I 798 W/m 5,8 C 15,0 C 8,0 km/h (2 Bft) 100,00 %
18.05.2016 11:23 15,1 C 56 % 1014,7 hPa 0,0 l/m 9,4 km/h (2 Bft) W-SW 252 1 min 0,000 mm 4,1 UV-I 803 W/m 6,4 C 13,5 C 16,1 km/h (3 Bft) 100,00 %
18.05.2016 11:24 15,2 C 54 % 1014,7 hPa 0,0 l/m 7,5 km/h (2 Bft) W 259 1 min 0,000 mm 4,1 UV-I 802 W/m 6,0 C 14,6 C 11,3 km/h (2 Bft) 100,00 %
18.05.2016 11:25 15,3 C 57 % 1014,7 hPa 0,0 l/m 8,7 km/h (2 Bft) W-SW 238 1 min 0,000 mm 4,2 UV-I 805 W/m 6,8 C 14,1 C 12,9 km/h (3 Bft) 100,00 %
18.05.2016 11:26 15,3 C 53 % 1014,7 hPa 0,0 l/m 9,2 km/h (2 Bft) W 273 1 min 0,000 mm 4,2 UV-I 807 W/m 5,8 C 13,8 C 12,9 km/h (3 Bft) 100,00 %
18.05.2016 11:27 15,2 C 53 % 1014,6 hPa 0,0 l/m 9,1 km/h (2 Bft) W-NW 295 1 min 0,000 mm 4,2 UV-I 812 W/m 5,7 C 13,8 C 9,7 km/h (2 Bft) 100,00 %
18.05.2016 11:28 15,1 C 52 % 1014,6 hPa 0,0 l/m 4,0 km/h (1 Bft) W-NW 285 1 min 0,000 mm 4,2 UV-I 811 W/m 5,3 C 15,1 C 6,4 km/h (2 Bft) 100,00 %
18.05.2016 11:29 15,0 C 54 % 1014,6 hPa 0,0 l/m 2,7 km/h (1 Bft) NW 311 1 min 0,000 mm 4,3 UV-I 811 W/m 5,8 C 15,0 C 4,8 km/h (1 Bft) 100,00 %
18.05.2016 11:30 15,0 C 52 % 1014,6 hPa 0,0 l/m 4,0 km/h (1 Bft) W 267 1 min 0,000 mm 4,2 UV-I 828 W/m 5,2 C 15,0 C 6,4 km/h (2 Bft) 100,00 %
18.05.2016 11:31 14,9 C 51 % 1014,6 hPa 0,0 l/m 4,1 km/h (1 Bft) N 5 1 min 0,000 mm 4,3 UV-I 826 W/m 4,9 C 14,9 C 6,4 km/h (2 Bft) 100,00 %
18.05.2016 11:32 14,9 C 53 % 1014,6 hPa 0,0 l/m 5,7 km/h (1 Bft) S-SW 208 1 min 0,000 mm 4,4 UV-I 823 W/m 5,4 C 14,9 C 11,3 km/h (2 Bft) 100,00 %
18.05.2016 11:33 14,8 C 53 % 1014,6 hPa 0,0 l/m 5,1 km/h (1 Bft) S-SO 168 1 min 0,000 mm 4,4 UV-I 824 W/m 5,3 C 14,8 C 11,3 km/h (2 Bft) 100,00 %
18.05.2016 11:34 14,7 C 51 % 1014,6 hPa 0,0 l/m 1,7 km/h (1 Bft) S 169 1 min 0,000 mm 4,4 UV-I 828 W/m 4,7 C 14,7 C 6,4 km/h (2 Bft) 100,00 %
18.05.2016 11:35 14,7 C 58 % 1014,6 hPa 0,0 l/m 1,9 km/h (1 Bft) N 5 1 min 0,000 mm 4,4 UV-I 830 W/m 6,5 C 14,7 C 3,2 km/h (1 Bft) 100,00 %
18.05.2016 11:36 14,8 C 53 % 1014,6 hPa 0,0 l/m 1,4 km/h (1 Bft) N 5 1 min 0,000 mm 4,5 UV-I 831 W/m 5,3 C 14,8 C 3,2 km/h (1 Bft) 100,00 %
18.05.2016 11:37 14,9 C 54 % 1014,6 hPa 0,0 l/m 2,9 km/h (1 Bft) O-NO 76 1 min 0,000 mm 4,4 UV-I 830 W/m 5,7 C 14,9 C 6,4 km/h (2 Bft) 100,00 %
18.05.2016 11:38 15,0 C 56 % 1014,6 hPa 0,0 l/m 6,9 km/h (2 Bft) W 269 1 min 0,000 mm 4,5 UV-I 830 W/m 6,3 C 14,7 C 11,3 km/h (2 Bft) 100,00 %
18.05.2016 11:39 15,2 C 55 % 1014,5 hPa 0,0 l/m 4,6 km/h (1 Bft) SW 228 1 min 0,000 mm 4,5 UV-I 830 W/m 6,2 C 15,2 C 6,4 km/h (2 Bft) 100,00 %
18.05.2016 11:40 15,3 C 54 % 1014,6 hPa 0,0 l/m 4,0 km/h (1 Bft) S-SO 157 1 min 0,000 mm 4,4 UV-I 830 W/m 6,0 C 15,3 C 6,4 km/h (2 Bft) 100,00 %
18.05.2016 11:41 15,3 C 53 % 1014,5 hPa 0,0 l/m 2,5 km/h (1 Bft) S-SO 160 1 min 0,000 mm 4,5 UV-I 832 W/m 5,8 C 15,3 C 6,4 km/h (2 Bft) 100,00 %
18.05.2016 11:42 15,3 C 55 % 1014,5 hPa 0,0 l/m 5,4 km/h (1 Bft) S-SO 148 1 min 0,000 mm 4,5 UV-I 837 W/m 6,3 C 15,3 C 9,7 km/h (2 Bft) 100,00 %
18.05.2016 11:43 15,3 C 53 % 1014,5 hPa 0,0 l/m 5,6 km/h (1 Bft) O 101 1 min 0,000 mm 4,5 UV-I 844 W/m 5,8 C 15,3 C 11,3 km/h (2 Bft) 95,65 %
18.05.2016 11:44 15,4 C 55 % 1014,5 hPa 0,0 l/m 6,6 km/h (2 Bft) O-SO 103 1 min 0,000 mm 4,5 UV-I 844 W/m 6,4 C 15,3 C 9,7 km/h (2 Bft) 100,00 %
18.05.2016 11:45 15,5 C 54 % 1014,5 hPa 0,0 l/m 5,8 km/h (2 Bft) S-SW 205 1 min 0,000 mm 4,6 UV-I 843 W/m 6,2 C 15,5 C 8,0 km/h (2 Bft) 96,15 %
18.05.2016 11:46 15,6 C 55 % 1014,5 hPa 0,0 l/m 4,1 km/h (1 Bft) S 169 1 min 0,000 mm 4,1 UV-I 843 W/m 6,6 C 15,6 C 8,0 km/h (2 Bft) 100,00 %
18.05.2016 11:47 15,7 C 56 % 1014,5 hPa 0,0 l/m 6,1 km/h (2 Bft) S 181 1 min 0,000 mm 4,1 UV-I 787 W/m 6,9 C 15,7 C 9,7 km/h (2 Bft) 100,00 %
18.05.2016 11:48 15,7 C 50 % 1014,5 hPa 0,0 l/m 5,9 km/h (2 Bft) S-SO 163 1 min 0,000 mm 4,5 UV-I 663 W/m 5,3 C 15,7 C 9,7 km/h (2 Bft) 100,00 %
18.05.2016 11:49 15,6 C 52 % 1014,5 hPa 0,0 l/m 3,9 km/h (1 Bft) S-SO 160 1 min 0,000 mm 4,5 UV-I 673 W/m 5,8 C 15,6 C 9,7 km/h (2 Bft) 96,15 %
18.05.2016 11:50 15,4 C 51 % 1014,5 hPa 0,0 l/m 1,4 km/h (1 Bft) S-SO 160 1 min 0,000 mm 4,5 UV-I 714 W/m 5,3 C 15,4 C 3,2 km/h (1 Bft) 100,00 %
18.05.2016 11:51 15,4 C 51 % 1014,5 hPa 0,0 l/m 1,6 km/h (1 Bft) S-SO 159 1 min 0,000 mm 4,6 UV-I 766 W/m 5,3 C 15,4 C 3,2 km/h (1 Bft) 100,00 %
18.05.2016 11:52 15,2 C 51 % 1014,5 hPa 0,0 l/m 2,6 km/h (1 Bft) S-SO 156 1 min 0,000 mm 4,6 UV-I 845 W/m 5,1 C 15,2 C 4,8 km/h (1 Bft) 96,30 %
18.05.2016 11:53 15,2 C 51 % 1014,4 hPa 0,0 l/m 2,8 km/h (1 Bft) S-SO 156 1 min 0,000 mm 4,6 UV-I 852 W/m 5,1 C 15,2 C 4,8 km/h (1 Bft) 100,00 %
18.05.2016 11:54 15,2 C 54 % 1014,4 hPa 0,0 l/m 0,8 km/h (0 Bft) S-SO 158 1 min 0,000 mm 4,6 UV-I 852 W/m 6,0 C 15,2 C 1,6 km/h (1 Bft) 95,83 %
18.05.2016 11:55 15,2 C 51 % 1014,4 hPa 0,0 l/m 2,6 km/h (1 Bft) S-SO 153 1 min 0,000 mm 4,4 UV-I 857 W/m 5,1 C 15,2 C 3,2 km/h (1 Bft) 100,00 %
18.05.2016 11:56 15,2 C 53 % 1014,4 hPa 0,0 l/m 1,7 km/h (1 Bft) S-SO 153 1 min 0,000 mm 4,6 UV-I 858 W/m 5,7 C 15,2 C 3,2 km/h (1 Bft) 95,83 %
18.05.2016 11:57 15,1 C 51 % 1014,4 hPa 0,0 l/m 1,4 km/h (1 Bft) S 183 1 min 0,000 mm 4,7 UV-I 860 W/m 5,0 C 15,1 C 3,2 km/h (1 Bft) 100,00 %
18.05.2016 11:58 15,2 C 55 % 1014,4 hPa 0,0 l/m 4,6 km/h (1 Bft) SW 231 1 min 0,000 mm 4,6 UV-I 859 W/m 6,2 C 15,2 C 8,0 km/h (2 Bft) 95,83 %
18.05.2016 11:59 15,4 C 54 % 1014,4 hPa 0,0 l/m 8,0 km/h (2 Bft) W-SW 257 1 min 0,000 mm 4,6 UV-I 844 W/m 6,1 C 14,5 C 11,3 km/h (2 Bft) 96,15 %
18.05.2016 12:00 15,6 C 52 % 1014,4 hPa 0,0 l/m 4,9 km/h (1 Bft) W-NW 282 1 min 0,432 mm 4,6 UV-I 845 W/m 5,8 C 15,6 C 9,7 km/h (2 Bft) 100,00 %
18.05.2016 12:02 15,7 C 52 % 1014,4 hPa 0,0 l/m 5,4 km/h (1 Bft) S-SW 197 2 min 0,000 mm 4,8 UV-I 867 W/m 5,9 C 15,7 C 9,7 km/h (2 Bft) 95,45 %
18.05.2016 12:03 15,7 C 50 % 1014,4 hPa 0,0 l/m 7,0 km/h (2 Bft) SW 224 1 min 0,000 mm 4,8 UV-I 879 W/m 5,3 C 15,4 C 11,3 km/h (2 Bft) 91,67 %
18.05.2016 12:04 15,7 C 50 % 1014,4 hPa 0,0 l/m 9,4 km/h (2 Bft) S-SO 167 1 min 0,000 mm 4,8 UV-I 884 W/m 5,3 C 14,2 C 14,5 km/h (3 Bft) 100,00 %
18.05.2016 12:05 15,7 C 50 % 1014,4 hPa 0,0 l/m 5,4 km/h (1 Bft) S 188 1 min 0,000 mm 4,8 UV-I 888 W/m 5,3 C 15,7 C 12,9 km/h (3 Bft) 96,30 %
18.05.2016 12:06 15,8 C 52 % 1014,3 hPa 0,0 l/m 4,4 km/h (1 Bft) S 186 1 min 0,000 mm 4,8 UV-I 888 W/m 6,0 C 15,8 C 8,0 km/h (2 Bft) 98,82 %
18.05.2016 12:07 15,8 C 49 % 1014,3 hPa 0,0 l/m 5,7 km/h (1 Bft) S-SW 202 1 min 0,000 mm 4,8 UV-I 886 W/m 5,1 C 15,8 C 9,7 km/h (2 Bft) 97,56 %
18.05.2016 12:08 15,8 C 50 % 1014,3 hPa 0,0 l/m 3,1 km/h (1 Bft) S-SW 209 1 min 0,000 mm 4,8 UV-I 887 W/m 5,4 C 15,8 C 4,8 km/h (1 Bft) 100,00 %
18.05.2016 12:09 15,7 C 49 % 1014,3 hPa 0,0 l/m 0,5 km/h (0 Bft) S-SW 209 1 min 0,000 mm 4,8 UV-I 891 W/m 5,0 C 15,7 C 1,6 km/h (1 Bft) 96,30 %
18.05.2016 12:10 15,6 C 50 % 1014,3 hPa 0,0 l/m 4,2 km/h (1 Bft) S-SW 194 1 min 0,000 mm 4,9 UV-I 897 W/m 5,2 C 15,6 C 6,4 km/h (2 Bft) 96,15 %
18.05.2016 12:11 15,6 C 49 % 1014,3 hPa 0,0 l/m 3,3 km/h (1 Bft) SO 144 1 min 0,000 mm 4,9 UV-I 901 W/m 4,9 C 15,6 C 6,4 km/h (2 Bft) 96,30 %
18.05.2016 12:12 15,7 C 51 % 1014,3 hPa 0,0 l/m 3,8 km/h (1 Bft) S 176 1 min 0,000 mm 4,9 UV-I 900 W/m 5,6 C 15,7 C 6,4 km/h (2 Bft) 92,86 %
18.05.2016 12:13 15,6 C 49 % 1014,3 hPa 0,0 l/m 3,6 km/h (1 Bft) W-NW 292 1 min 0,000 mm 4,7 UV-I 910 W/m 4,9 C 15,6 C 6,4 km/h (2 Bft) 100,00 %
18.05.2016 12:14 15,8 C 54 % 1014,3 hPa 0,0 l/m 3,8 km/h (1 Bft) SW 232 1 min 0,000 mm 4,9 UV-I 914 W/m 6,5 C 15,8 C 6,4 km/h (2 Bft) 86,67 %
18.05.2016 12:15 15,8 C 55 % 1014,3 hPa 0,0 l/m 2,4 km/h (1 Bft) N-NW 339 1 min 0,000 mm 4,9 UV-I 921 W/m 6,8 C 15,8 C 4,8 km/h (1 Bft) 100,00 %
18.05.2016 12:16 16,0 C 53 % 1014,3 hPa 0,0 l/m 5,6 km/h (1 Bft) W-SW 245 1 min 0,000 mm 5,0 UV-I 923 W/m 6,4 C 16,0 C 12,9 km/h (3 Bft) 96,15 %
18.05.2016 12:17 16,1 C 50 % 1014,3 hPa 0,0 l/m 7,6 km/h (2 Bft) W-SW 248 1 min 0,000 mm 5,0 UV-I 923 W/m 5,7 C 15,5 C 12,9 km/h (3 Bft) 96,30 %
18.05.2016 12:18 16,1 C 50 % 1014,2 hPa 0,0 l/m 5,4 km/h (1 Bft) SW 230 1 min 0,000 mm 5,0 UV-I 964 W/m 5,7 C 16,1 C 8,0 km/h (2 Bft) 96,15 %
18.05.2016 12:19 16,0 C 53 % 1014,2 hPa 0,0 l/m 5,5 km/h (1 Bft) W 265 1 min 0,000 mm 5,0 UV-I 979 W/m 6,4 C 16,0 C 9,7 km/h (2 Bft) 93,33 %
18.05.2016 12:20 15,9 C 50 % 1014,2 hPa 0,0 l/m 10,7 km/h (2 Bft) SW 232 1 min 0,000 mm 5,1 UV-I 1003 W/m 5,5 C 13,8 C 14,5 km/h (3 Bft) 100,00 %
18.05.2016 12:21 15,9 C 49 % 1014,2 hPa 0,0 l/m 9,8 km/h (2 Bft) W-NW 284 1 min 0,000 mm 5,1 UV-I 1033 W/m 5,2 C 14,2 C 16,1 km/h (3 Bft) 96,55 %
18.05.2016 12:22 15,9 C 48 % 1014,2 hPa 0,0 l/m 7,0 km/h (2 Bft) W-SW 243 1 min 0,000 mm 4,1 UV-I 1042 W/m 4,9 C 15,6 C 9,7 km/h (2 Bft) 100,00 %
18.05.2016 12:23 15,8 C 46 % 1014,2 hPa 0,0 l/m 6,9 km/h (2 Bft) W-SW 249 1 min 0,000 mm 3,4 UV-I 1042 W/m 4,2 C 15,5 C 11,3 km/h (2 Bft) 91,30 %
18.05.2016 12:24 15,7 C 50 % 1014,2 hPa 0,0 l/m 3,7 km/h (1 Bft) W-SW 247 1 min 0,000 mm 4,4 UV-I 1042 W/m 5,3 C 15,7 C 6,4 km/h (2 Bft) 100,00 %
18.05.2016 12:25 15,7 C 46 % 1014,2 hPa 0,0 l/m 4,1 km/h (1 Bft) SW 223 1 min 0,000 mm 3,5 UV-I 1042 W/m 4,1 C 15,7 C 6,4 km/h (2 Bft) 100,00 %
18.05.2016 12:26 15,7 C 48 % 1014,1 hPa 0,0 l/m 4,7 km/h (1 Bft) S-SW 213 1 min 0,000 mm 4,9 UV-I 1042 W/m 4,7 C 15,7 C 8,0 km/h (2 Bft) 100,00 %
18.05.2016 12:27 15,7 C 49 % 1014,1 hPa 0,0 l/m 9,9 km/h (2 Bft) S-SW 207 1 min 0,000 mm 4,1 UV-I 1042 W/m 5,0 C 13,9 C 11,3 km/h (2 Bft) 100,00 %
18.05.2016 12:28 15,7 C 50 % 1014,1 hPa 0,0 l/m 8,3 km/h (2 Bft) W-SW 244 1 min 0,000 mm 4,4 UV-I 1042 W/m 5,3 C 14,7 C 11,3 km/h (2 Bft) 95,83 %
18.05.2016 12:29 15,8 C 49 % 1014,1 hPa 0,0 l/m 10,8 km/h (2 Bft) W 265 1 min 0,000 mm 5,1 UV-I 981 W/m 5,1 C 13,7 C 16,1 km/h (3 Bft) 90,91 %
18.05.2016 12:30 15,9 C 49 % 1014,0 hPa 0,0 l/m 10,4 km/h (2 Bft) S 169 1 min 0,000 mm 5,0 UV-I 974 W/m 5,2 C 13,9 C 14,5 km/h (3 Bft) 100,00 %
18.05.2016 12:31 16,0 C 50 % 1014,0 hPa 0,0 l/m 10,0 km/h (2 Bft) S-SO 161 1 min 0,000 mm 3,7 UV-I 974 W/m 5,6 C 14,2 C 16,1 km/h (3 Bft) 100,00 %
18.05.2016 12:32 15,9 C 48 % 1014,0 hPa 0,0 l/m 11,5 km/h (2 Bft) S-SW 206 1 min 0,000 mm 3,5 UV-I 777 W/m 4,9 C 13,5 C 14,5 km/h (3 Bft) 100,00 %
18.05.2016 12:33 15,9 C 48 % 1014,1 hPa 0,0 l/m 4,5 km/h (1 Bft) S-SW 195 0 min 0,000 mm 3,2 UV-I 411 W/m 4,9 C 15,9 C 8,0 km/h (2 Bft) 100,00 %
18.05.2016 12:34 15,8 C 47 % 1014,0 hPa 0,0 l/m 4,2 km/h (1 Bft) S-SW 209 0 min 0,000 mm 3,2 UV-I 339 W/m 4,5 C 15,8 C 9,7 km/h (2 Bft) 95,83 %
18.05.2016 12:35 15,7 C 47 % 1014,0 hPa 0,0 l/m 9,0 km/h (2 Bft) S-SW 199 0 min 0,000 mm 3,9 UV-I 315 W/m 4,4 C 14,3 C 14,5 km/h (3 Bft) 100,00 %
18.05.2016 12:36 15,7 C 50 % 1014,0 hPa 0,0 l/m 10,0 km/h (2 Bft) SW 219 0 min 0,000 mm 3,5 UV-I 315 W/m 5,3 C 13,9 C 12,9 km/h (3 Bft) 100,00 %
18.05.2016 12:37 15,8 C 50 % 1014,0 hPa 0,0 l/m 7,9 km/h (2 Bft) W-SW 237 0 min 0,000 mm 4,0 UV-I 315 W/m 5,4 C 15,0 C 9,7 km/h (2 Bft) 100,00 %
18.05.2016 12:38 15,8 C 48 % 1014,0 hPa 0,0 l/m 4,8 km/h (1 Bft) W 267 1 min 0,000 mm 5,0 UV-I 615 W/m 4,8 C 15,8 C 6,4 km/h (2 Bft) 100,00 %
18.05.2016 12:39 15,9 C 50 % 1014,0 hPa 0,0 l/m 4,2 km/h (1 Bft) W-NW 295 1 min 0,000 mm 4,2 UV-I 969 W/m 5,5 C 15,9 C 9,7 km/h (2 Bft) 100,00 %
18.05.2016 12:40 15,9 C 52 % 1014,0 hPa 0,0 l/m 3,0 km/h (1 Bft) N-NW 343 1 min 0,000 mm 3,2 UV-I 562 W/m 6,1 C 15,9 C 4,8 km/h (1 Bft) 100,00 %
18.05.2016 12:41 15,9 C 53 % 1014,0 hPa 0,0 l/m 5,7 km/h (1 Bft) W 261 0 min 0,000 mm 3,2 UV-I 431 W/m 6,3 C 15,9 C 11,3 km/h (2 Bft) 100,00 %
18.05.2016 12:42 15,9 C 49 % 1014,0 hPa 0,0 l/m 2,5 km/h (1 Bft) NW 319 0 min 0,000 mm 3,2 UV-I 450 W/m 5,2 C 15,9 C 4,8 km/h (1 Bft) 100,00 %
18.05.2016 12:43 15,8 C 49 % 1014,0 hPa 0,0 l/m 2,2 km/h (1 Bft) NW 320 0 min 0,000 mm 3,3 UV-I 452 W/m 5,1 C 15,8 C 4,8 km/h (1 Bft) 100,00 %
18.05.2016 12:44 15,6 C 48 % 1014,0 hPa 0,0 l/m 1,5 km/h (1 Bft) W-NW 302 1 min 0,000 mm 3,4 UV-I 492 W/m 4,6 C 15,6 C 3,2 km/h (1 Bft) 100,00 %
18.05.2016 12:45 15,7 C 52 % 1014,0 hPa 0,0 l/m 7,3 km/h (2 Bft) W-NW 298 1 min 0,000 mm 3,8 UV-I 520 W/m 5,9 C 15,2 C 12,9 km/h (3 Bft) 100,00 %
18.05.2016 12:46 15,8 C 53 % 1013,9 hPa 0,0 l/m 5,0 km/h (1 Bft) SW 227 1 min 0,000 mm 4,7 UV-I 696 W/m 6,2 C 15,8 C 6,4 km/h (2 Bft) 95,65 %
18.05.2016 12:47 15,9 C 49 % 1013,9 hPa 0,0 l/m 5,1 km/h (1 Bft) SW 232 1 min 0,000 mm 4,9 UV-I 731 W/m 5,2 C 15,9 C 6,4 km/h (2 Bft) 96,30 %
18.05.2016 12:48 16,1 C 54 % 1013,9 hPa 0,0 l/m 4,1 km/h (1 Bft) W 277 1 min 0,000 mm 5,1 UV-I 833 W/m 6,8 C 16,1 C 8,0 km/h (2 Bft) 100,00 %
18.05.2016 12:49 16,3 C 52 % 1013,9 hPa 0,0 l/m 7,3 km/h (2 Bft) SW 220 1 min 0,000 mm 5,2 UV-I 1139 W/m 6,4 C 15,8 C 11,3 km/h (2 Bft) 100,00 %
18.05.2016 12:50 16,4 C 50 % 1013,9 hPa 0,0 l/m 6,9 km/h (2 Bft) W-SW 247 1 min 0,000 mm 4,6 UV-I 1139 W/m 6,0 C 16,1 C 11,3 km/h (2 Bft) 100,00 %
18.05.2016 12:51 16,4 C 49 % 1013,9 hPa 0,0 l/m 2,5 km/h (1 Bft) W-SW 247 1 min 0,000 mm 4,3 UV-I 1139 W/m 5,7 C 16,4 C 4,8 km/h (1 Bft) 100,00 %
18.05.2016 12:52 16,3 C 49 % 1013,8 hPa 0,0 l/m 2,0 km/h (1 Bft) W 275 1 min 0,000 mm 4,3 UV-I 974 W/m 5,6 C 16,3 C 4,8 km/h (1 Bft) 100,00 %
18.05.2016 12:53 16,3 C 52 % 1013,7 hPa 0,0 l/m 4,7 km/h (1 Bft) W 273 1 min 0,000 mm 4,5 UV-I 940 W/m 6,4 C 16,3 C 6,4 km/h (2 Bft) 95,83 %
18.05.2016 12:54 16,4 C 52 % 1013,8 hPa 0,0 l/m 6,5 km/h (2 Bft) W 275 1 min 0,000 mm 4,0 UV-I 940 W/m 6,5 C 16,4 C 11,3 km/h (2 Bft) 100,00 %
18.05.2016 12:55 16,6 C 49 % 1013,8 hPa 0,0 l/m 5,4 km/h (1 Bft) NW 312 1 min 0,000 mm 4,3 UV-I 940 W/m 5,8 C 16,6 C 8,0 km/h (2 Bft) 100,00 %
18.05.2016 12:56 16,5 C 47 % 1013,8 hPa 0,0 l/m 7,6 km/h (2 Bft) NW 309 1 min 0,000 mm 4,7 UV-I 940 W/m 5,2 C 15,9 C 14,5 km/h (3 Bft) 100,00 %
18.05.2016 12:57 16,4 C 46 % 1013,7 hPa 0,0 l/m 8,6 km/h (2 Bft) NW 311 1 min 0,000 mm 4,3 UV-I 940 W/m 4,8 C 15,3 C 14,5 km/h (3 Bft) 100,00 %
18.05.2016 12:58 16,3 C 45 % 1013,7 hPa 0,0 l/m 4,8 km/h (1 Bft) NW 310 1 min 0,000 mm 3,6 UV-I 572 W/m 4,3 C 16,3 C 8,0 km/h (2 Bft) 100,00 %
18.05.2016 12:59 16,2 C 48 % 1013,7 hPa 0,0 l/m 6,5 km/h (2 Bft) W-NW 300 1 min 0,000 mm 3,7 UV-I 522 W/m 5,2 C 16,2 C 11,3 km/h (2 Bft) 100,00 %
18.05.2016 13:00 16,2 C 48 % 1013,7 hPa 0,0 l/m 4,9 km/h (1 Bft) N-NW 333 1 min 0,432 mm 3,5 UV-I 589 W/m 5,2 C 16,2 C 6,4 km/h (2 Bft) 100,00 %
18.05.2016 13:02 16,0 C 49 % 1013,7 hPa 0,0 l/m 3,9 km/h (1 Bft) N-NO 26 2 min 0,000 mm 3,1 UV-I 492 W/m 5,3 C 16,0 C 8,0 km/h (2 Bft) 100,00 %
18.05.2016 13:03 15,9 C 48 % 1013,6 hPa 0,0 l/m 6,1 km/h (2 Bft) W 265 0 min 0,000 mm 3,0 UV-I 402 W/m 4,9 C 15,9 C 17,7 km/h (3 Bft) 100,00 %
18.05.2016 13:04 15,9 C 49 % 1013,6 hPa 0,0 l/m 12,9 km/h (3 Bft) W-SW 258 0 min 0,000 mm 2,9 UV-I 399 W/m 5,2 C 13,0 C 16,1 km/h (3 Bft) 100,00 %
18.05.2016 13:05 15,9 C 48 % 1013,6 hPa 0,0 l/m 8,0 km/h (2 Bft) SW 223 0 min 0,000 mm 3,4 UV-I 420 W/m 4,9 C 15,0 C 11,3 km/h (2 Bft) 100,00 %
18.05.2016 13:06 15,9 C 48 % 1013,6 hPa 0,0 l/m 9,0 km/h (2 Bft) SW 225 1 min 0,000 mm 3,2 UV-I 537 W/m 4,9 C 14,6 C 12,9 km/h (3 Bft) 100,00 %
18.05.2016 13:07 15,8 C 47 % 1013,6 hPa 0,0 l/m 5,0 km/h (1 Bft) W-SW 238 1 min 0,000 mm 3,2 UV-I 485 W/m 4,5 C 15,8 C 9,7 km/h (2 Bft) 100,00 %
18.05.2016 13:08 15,8 C 54 % 1013,6 hPa 0,0 l/m 2,3 km/h (1 Bft) SW 221 0 min 0,000 mm 3,1 UV-I 458 W/m 6,5 C 15,8 C 4,8 km/h (1 Bft) 100,00 %
18.05.2016 13:09 15,9 C 51 % 1013,6 hPa 0,0 l/m 2,3 km/h (1 Bft) W-SW 252 0 min 0,000 mm 3,4 UV-I 459 W/m 5,8 C 15,9 C 8,0 km/h (2 Bft) 100,00 %
18.05.2016 13:10 16,0 C 51 % 1013,6 hPa 0,0 l/m 3,5 km/h (1 Bft) SW 231 0 min 0,000 mm 3,2 UV-I 459 W/m 5,9 C 16,0 C 8,0 km/h (2 Bft) 100,00 %
18.05.2016 13:11 16,0 C 51 % 1013,6 hPa 0,0 l/m 0,6 km/h (0 Bft) SW 231 0 min 0,000 mm 2,8 UV-I 449 W/m 5,9 C 16,0 C 1,6 km/h (1 Bft) 100,00 %
18.05.2016 13:12 15,9 C 46 % 1013,6 hPa 0,0 l/m 3,1 km/h (1 Bft) S-SW 198 0 min 0,000 mm 2,7 UV-I 402 W/m 4,3 C 15,9 C 8,0 km/h (2 Bft) 100,00 %
18.05.2016 13:13 15,9 C 49 % 1013,6 hPa 0,0 l/m 6,9 km/h (2 Bft) W-SW 238 0 min 0,000 mm 2,7 UV-I 404 W/m 5,2 C 15,6 C 9,7 km/h (2 Bft) 100,00 %
18.05.2016 13:14 15,9 C 50 % 1013,6 hPa 0,0 l/m 5,9 km/h (2 Bft) W-SW 246 0 min 0,000 mm 2,6 UV-I 400 W/m 5,5 C 15,9 C 8,0 km/h (2 Bft) 95,83 %
18.05.2016 13:15 15,8 C 48 % 1013,6 hPa 0,0 l/m 5,9 km/h (2 Bft) W-NW 298 0 min 0,000 mm 2,7 UV-I 397 W/m 4,8 C 15,8 C 11,3 km/h (2 Bft) 96,15 %
18.05.2016 13:16 15,8 C 47 % 1013,6 hPa 0,0 l/m 4,8 km/h (1 Bft) W 259 0 min 0,000 mm 2,9 UV-I 442 W/m 4,5 C 15,8 C 6,4 km/h (2 Bft) 100,00 %
18.05.2016 13:17 15,7 C 47 % 1013,5 hPa 0,0 l/m 4,7 km/h (1 Bft) SW 236 0 min 0,000 mm 2,9 UV-I 450 W/m 4,4 C 15,7 C 6,4 km/h (2 Bft) 100,00 %
18.05.2016 13:18 15,7 C 49 % 1013,5 hPa 0,0 l/m 4,4 km/h (1 Bft) W-SW 243 0 min 0,000 mm 2,8 UV-I 432 W/m 5,0 C 15,7 C 6,4 km/h (2 Bft) 100,00 %
18.05.2016 13:19 15,7 C 51 % 1013,5 hPa 0,0 l/m 5,4 km/h (1 Bft) W-SW 238 0 min 0,000 mm 3,1 UV-I 398 W/m 5,6 C 15,7 C 8,0 km/h (2 Bft) 100,00 %
18.05.2016 13:20 15,8 C 52 % 1013,5 hPa 0,0 l/m 6,5 km/h (2 Bft) S-SW 205 0 min 0,000 mm 3,2 UV-I 404 W/m 6,0 C 15,8 C 9,7 km/h (2 Bft) 95,65 %
18.05.2016 13:21 15,8 C 51 % 1013,4 hPa 0,0 l/m 5,8 km/h (2 Bft) W-SW 246 0 min 0,000 mm 3,1 UV-I 394 W/m 5,7 C 15,8 C 8,0 km/h (2 Bft) 96,55 %
18.05.2016 13:22 15,8 C 54 % 1013,5 hPa 0,0 l/m 6,9 km/h (2 Bft) SW 231 0 min 0,000 mm 3,0 UV-I 364 W/m 6,5 C 15,5 C 9,7 km/h (2 Bft) 91,67 %
18.05.2016 13:23 15,9 C 50 % 1013,5 hPa 0,0 l/m 8,0 km/h (2 Bft) SW 221 0 min 0,000 mm 3,2 UV-I 381 W/m 5,5 C 15,0 C 11,3 km/h (2 Bft) 100,00 %
18.05.2016 13:24 16,0 C 51 % 1013,4 hPa 0,0 l/m 6,9 km/h (2 Bft) W 265 0 min 0,000 mm 3,3 UV-I 409 W/m 5,9 C 15,7 C 9,7 km/h (2 Bft) 100,00 %
18.05.2016 13:25 16,0 C 51 % 1013,5 hPa 0,0 l/m 4,6 km/h (1 Bft) W 274 0 min 0,000 mm 3,4 UV-I 431 W/m 5,9 C 16,0 C 9,7 km/h (2 Bft) 100,00 %
18.05.2016 13:26 16,0 C 48 % 1013,4 hPa 0,0 l/m 3,8 km/h (1 Bft) W 271 0 min 0,000 mm 3,4 UV-I 455 W/m 5,0 C 16,0 C 4,8 km/h (1 Bft) 100,00 %
18.05.2016 13:27 15,9 C 50 % 1013,4 hPa 0,0 l/m 1,4 km/h (1 Bft) W-SW 256 1 min 0,000 mm 3,3 UV-I 531 W/m 5,5 C 15,9 C 3,2 km/h (1 Bft) 100,00 %
18.05.2016 13:28 15,9 C 49 % 1013,4 hPa 0,0 l/m 4,6 km/h (1 Bft) W 259 1 min 0,000 mm 3,7 UV-I 521 W/m 5,2 C 15,9 C 9,7 km/h (2 Bft) 100,00 %
18.05.2016 13:29 15,9 C 49 % 1013,4 hPa 0,0 l/m 6,7 km/h (2 Bft) NW 311 1 min 0,000 mm 3,8 UV-I 519 W/m 5,2 C 15,7 C 11,3 km/h (2 Bft) 91,67 %
18.05.2016 13:30 15,9 C 49 % 1013,4 hPa 0,0 l/m 6,7 km/h (2 Bft) W-SW 250 1 min 0,000 mm 3,1 UV-I 494 W/m 5,2 C 15,7 C 11,3 km/h (2 Bft) 100,00 %
18.05.2016 13:31 15,9 C 49 % 1013,4 hPa 0,0 l/m 4,8 km/h (1 Bft) SW 225 0 min 0,000 mm 3,1 UV-I 450 W/m 5,2 C 15,9 C 6,4 km/h (2 Bft) 100,00 %
18.05.2016 13:32 15,9 C 51 % 1013,4 hPa 0,0 l/m 2,2 km/h (1 Bft) S 175 0 min 0,000 mm 3,1 UV-I 448 W/m 5,8 C 15,9 C 6,4 km/h (2 Bft) 100,00 %
18.05.2016 13:33 15,9 C 51 % 1013,3 hPa 0,0 l/m 9,0 km/h (2 Bft) S-SO 157 0 min 0,000 mm 3,6 UV-I 454 W/m 5,8 C 14,6 C 12,9 km/h (3 Bft) 100,00 %
18.05.2016 13:34 16,0 C 49 % 1013,4 hPa 0,0 l/m 8,6 km/h (2 Bft) S-SW 198 1 min 0,000 mm 3,6 UV-I 543 W/m 5,3 C 14,9 C 11,3 km/h (2 Bft) 100,00 %
18.05.2016 13:35 15,9 C 49 % 1013,3 hPa 0,0 l/m 5,4 km/h (1 Bft) S 171 1 min 0,000 mm 3,5 UV-I 490 W/m 5,2 C 15,9 C 11,3 km/h (2 Bft) 100,00 %
18.05.2016 13:36 16,0 C 48 % 1013,3 hPa 0,0 l/m 3,6 km/h (1 Bft) S-SO 167 1 min 0,000 mm 3,7 UV-I 515 W/m 5,0 C 16,0 C 6,4 km/h (2 Bft) 100,00 %
18.05.2016 13:37 16,0 C 47 % 1013,3 hPa 0,0 l/m 4,0 km/h (1 Bft) S-SO 160 1 min 0,000 mm 4,3 UV-I 787 W/m 4,7 C 16,0 C 6,4 km/h (2 Bft) 100,00 %
18.05.2016 13:38 16,1 C 49 % 1013,3 hPa 0,0 l/m 4,2 km/h (1 Bft) S-SW 213 1 min 0,000 mm 3,8 UV-I 1018 W/m 5,4 C 16,1 C 6,4 km/h (2 Bft) 100,00 %
18.05.2016 13:39 16,2 C 53 % 1013,3 hPa 0,0 l/m 6,7 km/h (2 Bft) S-SW 205 1 min 0,000 mm 4,4 UV-I 1018 W/m 6,6 C 16,1 C 9,7 km/h (2 Bft) 100,00 %
18.05.2016 13:40 16,2 C 48 % 1013,3 hPa 0,0 l/m 7,6 km/h (2 Bft) SW 216 1 min 0,000 mm 4,1 UV-I 1018 W/m 5,2 C 15,6 C 11,3 km/h (2 Bft) 100,00 %
18.05.2016 13:41 16,3 C 50 % 1013,3 hPa 0,0 l/m 5,8 km/h (2 Bft) SW 215 1 min 0,000 mm 5,0 UV-I 1027 W/m 5,9 C 16,3 C 6,4 km/h (2 Bft) 100,00 %
18.05.2016 13:42 16,3 C 52 % 1013,3 hPa 0,0 l/m 2,5 km/h (1 Bft) S 178 1 min 0,000 mm 5,1 UV-I 1048 W/m 6,4 C 16,3 C 6,4 km/h (2 Bft) 98,82 %
18.05.2016 13:43 16,3 C 48 % 1013,3 hPa 0,0 l/m 3,8 km/h (1 Bft) W 259 1 min 0,000 mm 5,0 UV-I 1048 W/m 5,3 C 16,3 C 12,9 km/h (3 Bft) 100,00 %
18.05.2016 13:44 16,3 C 48 % 1013,3 hPa 0,0 l/m 4,6 km/h (1 Bft) W 265 1 min 0,000 mm 5,1 UV-I 1038 W/m 5,3 C 16,3 C 11,3 km/h (2 Bft) 100,00 %
18.05.2016 13:45 16,3 C 47 % 1013,2 hPa 0,0 l/m 3,0 km/h (1 Bft) O-NO 65 1 min 0,000 mm 4,2 UV-I 1032 W/m 5,0 C 16,3 C 6,4 km/h (2 Bft) 100,00 %
18.05.2016 13:46 16,2 C 47 % 1013,2 hPa 0,0 l/m 4,3 km/h (1 Bft) O-NO 63 1 min 0,000 mm 4,8 UV-I 1019 W/m 4,9 C 16,2 C 4,8 km/h (1 Bft) 100,00 %
18.05.2016 13:47 16,3 C 48 % 1013,2 hPa 0,0 l/m 1,7 km/h (1 Bft) O 80 1 min 0,000 mm 5,0 UV-I 964 W/m 5,3 C 16,3 C 3,2 km/h (1 Bft) 96,15 %
18.05.2016 13:48 16,5 C 53 % 1013,2 hPa 0,0 l/m 5,1 km/h (1 Bft) W-SW 248 1 min 0,000 mm 5,0 UV-I 958 W/m 6,9 C 16,5 C 8,0 km/h (2 Bft) 100,00 %
18.05.2016 13:49 16,5 C 46 % 1013,2 hPa 0,0 l/m 3,0 km/h (1 Bft) W-SW 250 1 min 0,000 mm 5,0 UV-I 948 W/m 4,8 C 16,5 C 4,8 km/h (1 Bft) 95,65 %
18.05.2016 13:50 16,4 C 47 % 1013,1 hPa 0,0 l/m 2,1 km/h (1 Bft) N 355 1 min 0,000 mm 5,0 UV-I 949 W/m 5,1 C 16,4 C 4,8 km/h (1 Bft) 100,00 %
18.05.2016 13:51 16,4 C 47 % 1013,1 hPa 0,0 l/m 3,7 km/h (1 Bft) NO 42 1 min 0,000 mm 4,9 UV-I 956 W/m 5,1 C 16,4 C 4,8 km/h (1 Bft) 92,31 %
18.05.2016 13:52 16,5 C 48 % 1013,1 hPa 0,0 l/m 4,0 km/h (1 Bft) S-SO 153 1 min 0,000 mm 5,0 UV-I 973 W/m 5,5 C 16,5 C 6,4 km/h (2 Bft) 95,83 %
18.05.2016 13:53 16,4 C 46 % 1013,1 hPa 0,0 l/m 3,5 km/h (1 Bft) S-SO 149 1 min 0,000 mm 5,0 UV-I 1006 W/m 4,8 C 16,4 C 4,8 km/h (1 Bft) 100,00 %
18.05.2016 13:54 16,5 C 47 % 1013,1 hPa 0,0 l/m 3,6 km/h (1 Bft) O-SO 111 1 min 0,000 mm 4,5 UV-I 1025 W/m 5,2 C 16,5 C 9,7 km/h (2 Bft) 96,30 %
18.05.2016 13:55 16,6 C 49 % 1013,1 hPa 0,0 l/m 6,2 km/h (2 Bft) O-SO 114 1 min 0,000 mm 4,0 UV-I 1025 W/m 5,8 C 16,6 C 9,7 km/h (2 Bft) 100,00 %
18.05.2016 13:56 16,6 C 51 % 1013,1 hPa 0,0 l/m 5,8 km/h (2 Bft) O-SO 119 1 min 0,000 mm 4,7 UV-I 1025 W/m 6,4 C 16,6 C 9,7 km/h (2 Bft) 95,65 %
18.05.2016 13:57 16,8 C 51 % 1013,1 hPa 0,0 l/m 5,0 km/h (1 Bft) SO 133 1 min 0,000 mm 5,1 UV-I 1028 W/m 6,6 C 16,8 C 8,0 km/h (2 Bft) 100,00 %
18.05.2016 13:58 17,0 C 50 % 1013,0 hPa 0,0 l/m 8,1 km/h (2 Bft) O-SO 104 1 min 0,000 mm 4,0 UV-I 1086 W/m 6,5 C 16,2 C 11,3 km/h (2 Bft) 95,65 %
18.05.2016 13:59 17,1 C 50 % 1013,0 hPa 0,0 l/m 7,3 km/h (2 Bft) O-SO 106 1 min 0,000 mm 4,5 UV-I 1086 W/m 6,6 C 16,6 C 9,7 km/h (2 Bft) 96,30 %
18.05.2016 14:00 17,0 C 50 % 1013,0 hPa 0,0 l/m 4,6 km/h (1 Bft) SO 136 1 min 0,000 mm 4,2 UV-I 1086 W/m 6,5 C 17,0 C 8,0 km/h (2 Bft) 100,00 %
18.05.2016 14:02 17,1 C 49 % 1013,0 hPa 0,0 l/m 4,9 km/h (1 Bft) SO 144 2 min 0,381 mm 3,2 UV-I 500 W/m 6,3 C 17,1 C 11,3 km/h (2 Bft) 97,56 %
18.05.2016 14:03 16,9 C 46 % 1013,0 hPa 0,0 l/m 4,8 km/h (1 Bft) SO 145 0 min 0,000 mm 3,5 UV-I 411 W/m 5,2 C 16,9 C 8,0 km/h (2 Bft) 96,67 %
18.05.2016 14:04 16,8 C 46 % 1013,0 hPa 0,0 l/m 3,7 km/h (1 Bft) S-SO 163 1 min 0,000 mm 4,9 UV-I 573 W/m 5,1 C 16,8 C 6,4 km/h (2 Bft) 100,00 %
18.05.2016 14:05 16,8 C 50 % 1013,0 hPa 0,0 l/m 5,0 km/h (1 Bft) O 80 1 min 0,000 mm 4,9 UV-I 1048 W/m 6,3 C 16,8 C 6,4 km/h (2 Bft) 95,83 %
18.05.2016 14:06 16,9 C 49 % 1012,9 hPa 0,0 l/m 3,7 km/h (1 Bft) S-SO 160 1 min 0,000 mm 4,9 UV-I 1057 W/m 6,1 C 16,9 C 9,7 km/h (2 Bft) 100,00 %
18.05.2016 14:07 17,0 C 49 % 1012,9 hPa 0,0 l/m 6,3 km/h (2 Bft) SW 223 1 min 0,000 mm 4,9 UV-I 1078 W/m 6,2 C 17,0 C 11,3 km/h (2 Bft) 95,83 %
18.05.2016 14:08 17,1 C 48 % 1012,9 hPa 0,0 l/m 9,5 km/h (2 Bft) S-SO 150 1 min 0,000 mm 4,8 UV-I 1078 W/m 6,0 C 15,6 C 12,9 km/h (3 Bft) 93,10 %
18.05.2016 14:09 17,1 C 50 % 1012,9 hPa 0,0 l/m 8,1 km/h (2 Bft) S 185 1 min 0,000 mm 4,9 UV-I 1074 W/m 6,6 C 16,3 C 11,3 km/h (2 Bft) 100,00 %
18.05.2016 14:10 17,0 C 47 % 1012,9 hPa 0,0 l/m 6,7 km/h (2 Bft) W 268 1 min 0,000 mm 4,9 UV-I 1074 W/m 5,6 C 16,9 C 11,3 km/h (2 Bft) 96,55 %
18.05.2016 14:11 17,0 C 52 % 1012,9 hPa 0,0 l/m 5,2 km/h (1 Bft) W-SW 242 1 min 0,000 mm 4,1 UV-I 995 W/m 7,1 C 17,0 C 6,4 km/h (2 Bft) 100,00 %
18.05.2016 14:12 16,9 C 47 % 1012,8 hPa 0,0 l/m 4,2 km/h (1 Bft) N 355 1 min 0,000 mm 4,4 UV-I 857 W/m 5,5 C 16,9 C 6,4 km/h (2 Bft) 92,31 %
18.05.2016 14:13 17,1 C 49 % 1012,8 hPa 0,0 l/m 4,7 km/h (1 Bft) W 263 1 min 0,000 mm 4,0 UV-I 898 W/m 6,3 C 17,1 C 9,7 km/h (2 Bft) 100,00 %
18.05.2016 14:14 17,1 C 47 % 1012,8 hPa 0,0 l/m 5,2 km/h (1 Bft) W-SW 240 1 min 0,000 mm 4,3 UV-I 930 W/m 5,7 C 17,1 C 6,4 km/h (2 Bft) 93,33 %
18.05.2016 14:15 17,1 C 50 % 1012,8 hPa 0,0 l/m 2,6 km/h (1 Bft) W-SW 244 1 min 0,000 mm 4,6 UV-I 920 W/m 6,6 C 17,1 C 4,8 km/h (1 Bft) 92,31 %
18.05.2016 14:16 17,1 C 53 % 1012,8 hPa 0,0 l/m 5,1 km/h (1 Bft) W 277 1 min 0,000 mm 4,7 UV-I 919 W/m 7,4 C 17,1 C 6,4 km/h (2 Bft) 91,67 %
18.05.2016 14:17 17,2 C 50 % 1012,7 hPa 0,0 l/m 10,8 km/h (2 Bft) W 262 1 min 0,000 mm 4,5 UV-I 926 W/m 6,7 C 15,2 C 14,5 km/h (3 Bft) 97,22 %
18.05.2016 14:18 17,2 C 50 % 1012,7 hPa 0,0 l/m 9,1 km/h (2 Bft) W 277 1 min 0,000 mm 4,5 UV-I 929 W/m 6,7 C 15,9 C 12,9 km/h (3 Bft) 100,00 %
18.05.2016 14:19 17,3 C 50 % 1012,7 hPa 0,0 l/m 3,7 km/h (1 Bft) NW 320 1 min 0,000 mm 4,0 UV-I 926 W/m 6,8 C 17,3 C 8,0 km/h (2 Bft) 100,00 %
18.05.2016 14:20 17,3 C 51 % 1012,7 hPa 0,0 l/m 1,1 km/h (1 Bft) N-NW 327 1 min 0,000 mm 4,0 UV-I 926 W/m 7,1 C 17,3 C 3,2 km/h (1 Bft) 100,00 %
18.05.2016 14:21 17,3 C 57 % 1012,7 hPa 0,0 l/m 4,3 km/h (1 Bft) N-NW 330 1 min 0,000 mm 4,4 UV-I 927 W/m 8,7 C 17,3 C 8,0 km/h (2 Bft) 100,00 %
18.05.2016 14:22 17,3 C 54 % 1012,7 hPa 0,0 l/m 2,7 km/h (1 Bft) NW 319 1 min 0,000 mm 4,5 UV-I 932 W/m 7,9 C 17,3 C 4,8 km/h (1 Bft) 100,00 %
18.05.2016 14:23 17,3 C 59 % 1012,7 hPa 0,0 l/m 3,8 km/h (1 Bft) N-NO 27 1 min 0,000 mm 4,5 UV-I 930 W/m 9,2 C 17,3 C 8,0 km/h (2 Bft) 100,00 %
18.05.2016 14:24 17,3 C 57 % 1012,6 hPa 0,0 l/m 4,6 km/h (1 Bft) NO 40 1 min 0,000 mm 4,2 UV-I 903 W/m 8,7 C 17,3 C 9,7 km/h (2 Bft) 100,00 %
18.05.2016 14:25 17,3 C 54 % 1012,6 hPa 0,0 l/m 5,8 km/h (2 Bft) NO 42 1 min 0,000 mm 3,2 UV-I 891 W/m 7,9 C 17,3 C 12,9 km/h (3 Bft) 95,65 %
18.05.2016 14:26 17,2 C 54 % 1012,6 hPa 0,0 l/m 4,4 km/h (1 Bft) N 355 0 min 0,000 mm 2,5 UV-I 286 W/m 7,8 C 17,2 C 8,0 km/h (2 Bft) 95,83 %
18.05.2016 14:27 16,9 C 57 % 1012,5 hPa 0,0 l/m 3,6 km/h (1 Bft) N-NW 331 0 min 0,000 mm 2,4 UV-I 174 W/m 8,3 C 16,9 C 6,4 km/h (2 Bft) 100,00 %
18.05.2016 14:28 16,7 C 55 % 1012,6 hPa 0,0 l/m 4,1 km/h (1 Bft) N-NW 344 0 min 0,000 mm 2,3 UV-I 170 W/m 7,6 C 16,7 C 8,0 km/h (2 Bft) 100,00 %
18.05.2016 14:29 16,4 C 54 % 1012,6 hPa 0,0 l/m 6,5 km/h (2 Bft) NO 39 0 min 0,000 mm 2,4 UV-I 206 W/m 7,1 C 16,4 C 12,9 km/h (3 Bft) 100,00 %
18.05.2016 14:30 16,2 C 55 % 1012,5 hPa 0,0 l/m 5,0 km/h (1 Bft) N-NO 26 0 min 0,000 mm 2,5 UV-I 247 W/m 7,2 C 16,2 C 9,7 km/h (2 Bft) 100,00 %
18.05.2016 14:31 16,0 C 55 % 1012,6 hPa 0,0 l/m 5,6 km/h (1 Bft) N-NO 20 0 min 0,000 mm 3,0 UV-I 260 W/m 7,0 C 16,0 C 9,7 km/h (2 Bft) 100,00 %
18.05.2016 14:32 16,1 C 60 % 1012,5 hPa 0,0 l/m 1,0 km/h (0 Bft) N-NO 19 0 min 0,000 mm 3,9 UV-I 290 W/m 8,3 C 16,1 C 3,2 km/h (1 Bft) 100,00 %
18.05.2016 14:33 16,2 C 56 % 1012,5 hPa 0,0 l/m 4,4 km/h (1 Bft) N-NO 16 1 min 0,000 mm 3,9 UV-I 860 W/m 7,4 C 16,2 C 6,4 km/h (2 Bft) 100,00 %
18.05.2016 14:34 16,4 C 60 % 1012,5 hPa 0,0 l/m 4,4 km/h (1 Bft) N-NO 32 1 min 0,000 mm 3,5 UV-I 860 W/m 8,6 C 16,4 C 6,4 km/h (2 Bft) 100,00 %
18.05.2016 14:35 16,5 C 56 % 1012,5 hPa 0,0 l/m 4,1 km/h (1 Bft) N 9 1 min 0,000 mm 3,8 UV-I 860 W/m 7,7 C 16,5 C 6,4 km/h (2 Bft) 100,00 %
18.05.2016 14:36 16,5 C 51 % 1012,5 hPa 0,0 l/m 1,9 km/h (1 Bft) N 9 1 min 0,000 mm 4,0 UV-I 832 W/m 6,3 C 16,5 C 4,8 km/h (1 Bft) 100,00 %
18.05.2016 14:37 16,6 C 55 % 1012,5 hPa 0,0 l/m 1,1 km/h (1 Bft) N-NO 24 1 min 0,000 mm 4,1 UV-I 818 W/m 7,5 C 16,6 C 3,2 km/h (1 Bft) 100,00 %
18.05.2016 14:38 16,8 C 55 % 1012,4 hPa 0,0 l/m 2,4 km/h (1 Bft) NO 42 1 min 0,000 mm 4,2 UV-I 830 W/m 7,7 C 16,8 C 4,8 km/h (1 Bft) 100,00 %
18.05.2016 14:39 16,9 C 56 % 1012,4 hPa 0,0 l/m 1,5 km/h (1 Bft) N-NO 26 1 min 0,000 mm 4,2 UV-I 842 W/m 8,1 C 16,9 C 1,6 km/h (1 Bft) 100,00 %
18.05.2016 14:40 17,1 C 60 % 1012,4 hPa 0,0 l/m 5,4 km/h (1 Bft) NW 323 1 min 0,000 mm 4,0 UV-I 783 W/m 9,3 C 17,1 C 9,7 km/h (2 Bft) 100,00 %
18.05.2016 14:41 17,1 C 51 % 1012,4 hPa 0,0 l/m 4,7 km/h (1 Bft) N-NW 327 1 min 0,000 mm 4,1 UV-I 680 W/m 6,9 C 17,1 C 8,0 km/h (2 Bft) 100,00 %
18.05.2016 14:42 17,2 C 57 % 1012,4 hPa 0,0 l/m 1,7 km/h (1 Bft) O-NO 58 1 min 0,000 mm 4,1 UV-I 760 W/m 8,6 C 17,2 C 4,8 km/h (1 Bft) 100,00 %
18.05.2016 14:43 17,3 C 56 % 1012,4 hPa 0,0 l/m 4,1 km/h (1 Bft) N-NO 17 1 min 0,000 mm 4,1 UV-I 824 W/m 8,4 C 17,3 C 8,0 km/h (2 Bft) 98,77 %
18.05.2016 14:44 17,3 C 53 % 1012,4 hPa 0,0 l/m 3,8 km/h (1 Bft) NO 34 1 min 0,000 mm 4,0 UV-I 827 W/m 7,6 C 17,3 C 6,4 km/h (2 Bft) 100,00 %
18.05.2016 14:45 17,4 C 53 % 1012,4 hPa 0,0 l/m 2,6 km/h (1 Bft) W 279 1 min 0,000 mm 4,1 UV-I 840 W/m 7,7 C 17,4 C 4,8 km/h (1 Bft) 100,00 %
18.05.2016 14:46 17,4 C 54 % 1012,4 hPa 0,0 l/m 3,1 km/h (1 Bft) W-NW 288 1 min 0,000 mm 4,1 UV-I 853 W/m 8,0 C 17,4 C 4,8 km/h (1 Bft) 100,00 %
18.05.2016 14:47 17,6 C 51 % 1012,4 hPa 0,0 l/m 1,8 km/h (1 Bft) W 279 1 min 0,000 mm 4,1 UV-I 845 W/m 7,3 C 17,6 C 3,2 km/h (1 Bft) 100,00 %
18.05.2016 14:48 17,6 C 47 % 1012,3 hPa 0,0 l/m 1,4 km/h (1 Bft) N-NO 32 1 min 0,000 mm 4,1 UV-I 837 W/m 6,2 C 17,6 C 3,2 km/h (1 Bft) 100,00 %
18.05.2016 14:49 17,6 C 54 % 1012,3 hPa 0,0 l/m 8,0 km/h (2 Bft) NO 42 1 min 0,000 mm 4,0 UV-I 837 W/m 8,2 C 16,8 C 14,5 km/h (3 Bft) 100,00 %
18.05.2016 14:50 17,7 C 56 % 1012,3 hPa 0,0 l/m 9,8 km/h (2 Bft) N-NO 33 1 min 0,000 mm 4,0 UV-I 818 W/m 8,8 C 16,2 C 11,3 km/h (2 Bft) 100,00 %
18.05.2016 14:51 17,7 C 56 % 1012,3 hPa 0,0 l/m 5,1 km/h (1 Bft) N-NO 26 1 min 0,000 mm 4,0 UV-I 819 W/m 8,8 C 17,7 C 8,0 km/h (2 Bft) 100,00 %
18.05.2016 14:52 17,8 C 51 % 1012,3 hPa 0,0 l/m 5,0 km/h (1 Bft) N-NO 19 1 min 0,000 mm 4,0 UV-I 811 W/m 7,5 C 17,8 C 11,3 km/h (2 Bft) 100,00 %
18.05.2016 14:53 17,9 C 50 % 1012,3 hPa 0,0 l/m 6,4 km/h (2 Bft) NO 36 1 min 0,000 mm 4,0 UV-I 809 W/m 7,3 C 17,9 C 11,3 km/h (2 Bft) 100,00 %
18.05.2016 14:54 17,8 C 48 % 1012,3 hPa 0,0 l/m 5,3 km/h (1 Bft) N-NO 28 1 min 0,000 mm 4,0 UV-I 809 W/m 6,6 C 17,8 C 8,0 km/h (2 Bft) 100,00 %
18.05.2016 14:55 17,8 C 58 % 1012,3 hPa 0,0 l/m 3,4 km/h (1 Bft) O 79 1 min 0,000 mm 4,0 UV-I 809 W/m 9,4 C 17,8 C 8,0 km/h (2 Bft) 100,00 %
18.05.2016 14:56 17,9 C 53 % 1012,3 hPa 0,0 l/m 3,1 km/h (1 Bft) NW 319 1 min 0,000 mm 4,0 UV-I 832 W/m 8,2 C 17,9 C 8,0 km/h (2 Bft) 100,00 %
18.05.2016 14:57 17,8 C 55 % 1012,3 hPa 0,0 l/m 4,3 km/h (1 Bft) N-NO 14 1 min 0,000 mm 4,0 UV-I 829 W/m 8,6 C 17,8 C 8,0 km/h (2 Bft) 100,00 %
18.05.2016 14:58 17,7 C 51 % 1012,3 hPa 0,0 l/m 4,2 km/h (1 Bft) N-NO 13 1 min 0,000 mm 4,0 UV-I 823 W/m 7,4 C 17,7 C 6,4 km/h (2 Bft) 100,00 %
18.05.2016 14:59 17,7 C 53 % 1012,3 hPa 0,0 l/m 6,7 km/h (2 Bft) O-NO 62 1 min 0,000 mm 3,9 UV-I 810 W/m 8,0 C 17,6 C 9,7 km/h (2 Bft) 100,00 %
18.05.2016 15:00 17,6 C 46 % 1012,3 hPa 0,0 l/m 5,9 km/h (2 Bft) O-NO 57 1 min 0,432 mm 3,9 UV-I 803 W/m 5,8 C 17,6 C 8,0 km/h (2 Bft) 100,00 %
18.05.2016 15:01 17,5 C 50 % 1012,2 hPa 0,0 l/m 5,5 km/h (1 Bft) O-NO 73 1 min 0,000 mm 3,9 UV-I 799 W/m 7,0 C 17,5 C 12,9 km/h (3 Bft) 96,15 %
18.05.2016 15:02 17,4 C 48 % 1012,2 hPa 0,0 l/m 6,5 km/h (2 Bft) N-NW 348 1 min 0,000 mm 3,9 UV-I 800 W/m 6,3 C 17,4 C 12,9 km/h (3 Bft) 100,00 %
18.05.2016 15:03 17,5 C 50 % 1012,2 hPa 0,0 l/m 4,4 km/h (1 Bft) N 9 1 min 0,000 mm 3,8 UV-I 797 W/m 7,0 C 17,5 C 6,4 km/h (2 Bft) 100,00 %
18.05.2016 15:04 17,6 C 56 % 1012,2 hPa 0,0 l/m 2,7 km/h (1 Bft) N 5 1 min 0,000 mm 3,8 UV-I 796 W/m 8,7 C 17,6 C 4,8 km/h (1 Bft) 100,00 %
18.05.2016 15:05 17,7 C 57 % 1012,2 hPa 0,0 l/m 2,3 km/h (1 Bft) NW 321 1 min 0,000 mm 3,8 UV-I 799 W/m 9,1 C 17,7 C 3,2 km/h (1 Bft) 100,00 %
18.05.2016 15:06 17,6 C 48 % 1012,2 hPa 0,0 l/m 3,8 km/h (1 Bft) N-NO 15 1 min 0,000 mm 3,8 UV-I 795 W/m 6,5 C 17,6 C 6,4 km/h (2 Bft) 100,00 %
18.05.2016 15:07 17,4 C 46 % 1012,2 hPa 0,0 l/m 1,1 km/h (1 Bft) N-NO 15 1 min 0,000 mm 3,8 UV-I 795 W/m 5,7 C 17,4 C 3,2 km/h (1 Bft) 95,65 %
18.05.2016 15:08 17,4 C 47 % 1012,1 hPa 0,0 l/m 4,3 km/h (1 Bft) NO 36 1 min 0,000 mm 3,7 UV-I 788 W/m 6,0 C 17,4 C 6,4 km/h (2 Bft) 100,00 %
18.05.2016 15:09 17,3 C 52 % 1012,2 hPa 0,0 l/m 8,6 km/h (2 Bft) N-NO 22 1 min 0,000 mm 3,7 UV-I 762 W/m 7,3 C 16,2 C 19,3 km/h (3 Bft) 100,00 %
18.05.2016 15:10 17,4 C 52 % 1012,1 hPa 0,0 l/m 8,6 km/h (2 Bft) N-NO 23 1 min 0,000 mm 3,7 UV-I 695 W/m 7,4 C 16,4 C 16,1 km/h (3 Bft) 100,00 %
18.05.2016 15:11 17,5 C 58 % 1012,1 hPa 0,0 l/m 4,4 km/h (1 Bft) W-NW 292 1 min 0,000 mm 3,7 UV-I 690 W/m 9,1 C 17,5 C 6,4 km/h (2 Bft) 95,65 %
18.05.2016 15:12 17,5 C 55 % 1012,1 hPa 0,0 l/m 3,6 km/h (1 Bft) W-SW 246 1 min 0,000 mm 3,7 UV-I 694 W/m 8,4 C 17,5 C 6,4 km/h (2 Bft) 100,00 %
18.05.2016 15:13 17,5 C 56 % 1012,2 hPa 0,0 l/m 3,6 km/h (1 Bft) N 360 1 min 0,000 mm 3,7 UV-I 785 W/m 8,6 C 17,5 C 6,4 km/h (2 Bft) 98,80 %
18.05.2016 15:14 17,5 C 56 % 1012,1 hPa 0,0 l/m 3,5 km/h (1 Bft) N 9 1 min 0,000 mm 3,7 UV-I 801 W/m 8,6 C 17,5 C 6,4 km/h (2 Bft) 100,00 %
18.05.2016 15:15 17,5 C 54 % 1012,2 hPa 0,0 l/m 1,8 km/h (1 Bft) NW 315 1 min 0,000 mm 3,7 UV-I 794 W/m 8,1 C 17,5 C 3,2 km/h (1 Bft) 100,00 %
18.05.2016 15:16 17,6 C 59 % 1012,1 hPa 0,0 l/m 3,0 km/h (1 Bft) N-NW 345 1 min 0,000 mm 3,4 UV-I 799 W/m 9,5 C 17,6 C 8,0 km/h (2 Bft) 100,00 %
18.05.2016 15:17 17,7 C 54 % 1012,1 hPa 0,0 l/m 2,9 km/h (1 Bft) NW 323 1 min 0,000 mm 2,7 UV-I 805 W/m 8,3 C 17,7 C 4,8 km/h (1 Bft) 96,30 %
18.05.2016 15:18 17,6 C 52 % 1012,1 hPa 0,0 l/m 1,5 km/h (1 Bft) N-NW 338 1 min 0,000 mm 3,1 UV-I 805 W/m 7,6 C 17,6 C 3,2 km/h (1 Bft) 100,00 %
18.05.2016 15:19 17,5 C 54 % 1012,0 hPa 0,0 l/m 1,9 km/h (1 Bft) N 360 1 min 0,000 mm 3,5 UV-I 757 W/m 8,1 C 17,5 C 3,2 km/h (1 Bft) 100,00 %
18.05.2016 15:20 17,5 C 53 % 1012,0 hPa 0,0 l/m 5,2 km/h (1 Bft) N-NO 25 1 min 0,000 mm 3,5 UV-I 771 W/m 7,8 C 17,5 C 8,0 km/h (2 Bft) 92,31 %
18.05.2016 15:21 17,6 C 58 % 1012,1 hPa 0,0 l/m 3,2 km/h (1 Bft) N 9 1 min 0,000 mm 3,5 UV-I 767 W/m 9,2 C 17,6 C 6,4 km/h (2 Bft) 100,00 %
18.05.2016 15:22 17,6 C 53 % 1012,0 hPa 0,0 l/m 5,5 km/h (1 Bft) N-NO 21 1 min 0,000 mm 3,4 UV-I 762 W/m 7,9 C 17,6 C 8,0 km/h (2 Bft) 100,00 %
18.05.2016 15:23 17,6 C 54 % 1012,0 hPa 0,0 l/m 7,6 km/h (2 Bft) NO 35 1 min 0,000 mm 3,5 UV-I 776 W/m 8,2 C 17,0 C 14,5 km/h (3 Bft) 100,00 %
18.05.2016 15:24 17,6 C 53 % 1012,0 hPa 0,0 l/m 8,2 km/h (2 Bft) O-NO 60 1 min 0,000 mm 3,5 UV-I 779 W/m 7,9 C 16,7 C 11,3 km/h (2 Bft) 96,15 %
18.05.2016 15:25 17,6 C 50 % 1012,0 hPa 0,0 l/m 6,8 km/h (2 Bft) O-NO 61 1 min 0,000 mm 3,5 UV-I 766 W/m 7,1 C 17,4 C 9,7 km/h (2 Bft) 100,00 %
18.05.2016 15:26 17,7 C 50 % 1012,0 hPa 0,0 l/m 6,7 km/h (2 Bft) NO 44 1 min 0,000 mm 3,4 UV-I 708 W/m 7,1 C 17,6 C 9,7 km/h (2 Bft) 100,00 %
18.05.2016 15:27 17,7 C 50 % 1011,9 hPa 0,0 l/m 4,1 km/h (1 Bft) NO 53 1 min 0,000 mm 3,4 UV-I 766 W/m 7,1 C 17,7 C 6,4 km/h (2 Bft) 100,00 %
18.05.2016 15:28 17,7 C 51 % 1011,9 hPa 0,0 l/m 5,2 km/h (1 Bft) NO 44 1 min 0,000 mm 3,4 UV-I 764 W/m 7,4 C 17,7 C 8,0 km/h (2 Bft) 100,00 %
18.05.2016 15:29 17,7 C 52 % 1011,9 hPa 0,0 l/m 3,7 km/h (1 Bft) NO 46 1 min 0,000 mm 3,4 UV-I 764 W/m 7,7 C 17,7 C 4,8 km/h (1 Bft) 100,00 %
18.05.2016 15:30 17,7 C 52 % 1011,9 hPa 0,0 l/m 3,0 km/h (1 Bft) NO 44 1 min 0,000 mm 3,3 UV-I 756 W/m 7,7 C 17,7 C 3,2 km/h (1 Bft) 100,00 %
18.05.2016 15:31 17,7 C 51 % 1011,9 hPa 0,0 l/m 6,0 km/h (2 Bft) NO 46 1 min 0,000 mm 3,3 UV-I 754 W/m 7,4 C 17,7 C 8,0 km/h (2 Bft) 96,30 %
18.05.2016 15:32 17,7 C 51 % 1011,9 hPa 0,0 l/m 6,4 km/h (2 Bft) O-NO 57 1 min 0,000 mm 3,3 UV-I 752 W/m 7,4 C 17,7 C 8,0 km/h (2 Bft) 100,00 %
18.05.2016 15:33 17,8 C 54 % 1011,8 hPa 0,0 l/m 10,1 km/h (2 Bft) NO 37 1 min 0,000 mm 3,3 UV-I 751 W/m 8,4 C 16,2 C 14,5 km/h (3 Bft) 100,00 %
18.05.2016 15:34 17,8 C 56 % 1011,9 hPa 0,0 l/m 9,4 km/h (2 Bft) NO 49 1 min 0,000 mm 3,3 UV-I 751 W/m 8,9 C 16,4 C 11,3 km/h (2 Bft) 95,83 %
18.05.2016 15:35 17,8 C 52 % 1011,8 hPa 0,0 l/m 7,5 km/h (2 Bft) NO 48 1 min 0,000 mm 3,3 UV-I 749 W/m 7,8 C 17,3 C 11,3 km/h (2 Bft) 100,00 %
18.05.2016 15:36 17,7 C 49 % 1011,8 hPa 0,0 l/m 6,5 km/h (2 Bft) O 86 1 min 0,000 mm 3,3 UV-I 747 W/m 6,9 C 17,7 C 9,7 km/h (2 Bft) 100,00 %
18.05.2016 15:37 17,7 C 48 % 1011,8 hPa 0,0 l/m 6,3 km/h (2 Bft) O-NO 77 1 min 0,000 mm 3,3 UV-I 743 W/m 6,6 C 17,7 C 9,7 km/h (2 Bft) 100,00 %
18.05.2016 15:38 17,7 C 47 % 1011,8 hPa 0,0 l/m 5,8 km/h (2 Bft) N-NO 30 1 min 0,000 mm 3,2 UV-I 732 W/m 6,2 C 17,7 C 8,0 km/h (2 Bft) 100,00 %
18.05.2016 15:39 17,6 C 49 % 1011,7 hPa 0,0 l/m 6,6 km/h (2 Bft) O-NO 71 1 min 0,000 mm 3,2 UV-I 727 W/m 6,8 C 17,5 C 8,0 km/h (2 Bft) 100,00 %
18.05.2016 15:40 17,7 C 48 % 1011,8 hPa 0,0 l/m 8,6 km/h (2 Bft) O-NO 71 1 min 0,000 mm 3,2 UV-I 724 W/m 6,6 C 16,7 C 12,9 km/h (3 Bft) 100,00 %
18.05.2016 15:41 17,8 C 47 % 1011,8 hPa 0,0 l/m 6,2 km/h (2 Bft) NO 56 1 min 0,000 mm 3,2 UV-I 721 W/m 6,3 C 17,8 C 11,3 km/h (2 Bft) 100,00 %
18.05.2016 15:42 17,7 C 49 % 1011,7 hPa 0,0 l/m 7,5 km/h (2 Bft) NO 37 1 min 0,000 mm 3,1 UV-I 723 W/m 6,9 C 17,2 C 9,7 km/h (2 Bft) 96,67 %
18.05.2016 15:43 17,8 C 55 % 1011,7 hPa 0,0 l/m 8,0 km/h (2 Bft) N-NO 30 1 min 0,000 mm 3,1 UV-I 725 W/m 8,6 C 17,0 C 14,5 km/h (3 Bft) 96,15 %
18.05.2016 15:44 17,9 C 54 % 1011,6 hPa 0,0 l/m 6,4 km/h (2 Bft) NO 47 1 min 0,000 mm 3,1 UV-I 720 W/m 8,5 C 17,9 C 9,7 km/h (2 Bft) 100,00 %
18.05.2016 15:45 17,9 C 53 % 1011,7 hPa 0,0 l/m 6,9 km/h (2 Bft) N-NW 344 1 min 0,000 mm 3,1 UV-I 716 W/m 8,2 C 17,7 C 11,3 km/h (2 Bft) 94,12 %
18.05.2016 15:46 17,9 C 54 % 1011,6 hPa 0,0 l/m 6,9 km/h (2 Bft) NO 45 1 min 0,000 mm 3,0 UV-I 716 W/m 8,5 C 17,7 C 14,5 km/h (3 Bft) 100,00 %
18.05.2016 15:47 17,9 C 52 % 1011,6 hPa 0,0 l/m 6,4 km/h (2 Bft) NO 55 1 min 0,000 mm 3,0 UV-I 712 W/m 7,9 C 17,9 C 14,5 km/h (3 Bft) 100,00 %
18.05.2016 15:48 17,9 C 56 % 1011,6 hPa 0,0 l/m 7,0 km/h (2 Bft) NO 44 1 min 0,000 mm 3,0 UV-I 710 W/m 9,0 C 17,6 C 9,7 km/h (2 Bft) 96,67 %
18.05.2016 15:49 18,0 C 54 % 1011,6 hPa 0,0 l/m 6,5 km/h (2 Bft) N-NO 28 1 min 0,000 mm 3,0 UV-I 708 W/m 8,6 C 18,0 C 8,0 km/h (2 Bft) 96,15 %
18.05.2016 15:50 18,0 C 53 % 1011,6 hPa 0,0 l/m 6,1 km/h (2 Bft) NO 56 1 min 0,000 mm 2,9 UV-I 709 W/m 8,3 C 18,0 C 8,0 km/h (2 Bft) 100,00 %
18.05.2016 15:51 18,1 C 54 % 1011,6 hPa 0,0 l/m 7,9 km/h (2 Bft) NO 40 1 min 0,000 mm 2,9 UV-I 707 W/m 8,6 C 17,4 C 11,3 km/h (2 Bft) 96,15 %
18.05.2016 15:52 18,1 C 54 % 1011,5 hPa 0,0 l/m 7,2 km/h (2 Bft) N-NO 20 1 min 0,000 mm 3,0 UV-I 708 W/m 8,6 C 17,7 C 11,3 km/h (2 Bft) 95,83 %
18.05.2016 15:53 18,2 C 53 % 1011,5 hPa 0,0 l/m 2,7 km/h (1 Bft) NO 54 1 min 0,000 mm 3,0 UV-I 704 W/m 8,5 C 18,2 C 4,8 km/h (1 Bft) 100,00 %
18.05.2016 15:54 18,2 C 50 % 1011,6 hPa 0,0 l/m 9,7 km/h (2 Bft) N-NO 21 1 min 0,000 mm 2,9 UV-I 700 W/m 7,6 C 16,8 C 14,5 km/h (3 Bft) 96,55 %
18.05.2016 15:55 18,1 C 52 % 1011,5 hPa 0,0 l/m 6,3 km/h (2 Bft) O-NO 60 1 min 0,000 mm 2,9 UV-I 694 W/m 8,1 C 18,1 C 9,7 km/h (2 Bft) 100,00 %
18.05.2016 15:56 18,0 C 50 % 1011,5 hPa 0,0 l/m 7,8 km/h (2 Bft) O-NO 69 1 min 0,000 mm 2,8 UV-I 698 W/m 7,4 C 17,3 C 11,3 km/h (2 Bft) 97,37 %
18.05.2016 15:57 17,9 C 49 % 1011,5 hPa 0,0 l/m 11,9 km/h (2 Bft) N 9 1 min 0,000 mm 2,3 UV-I 457 W/m 7,0 C 15,6 C 16,1 km/h (3 Bft) 100,00 %
18.05.2016 15:58 17,8 C 52 % 1011,5 hPa 0,0 l/m 9,0 km/h (2 Bft) N-NO 15 0 min 0,000 mm 2,2 UV-I 260 W/m 7,8 C 16,6 C 12,9 km/h (3 Bft) 95,65 %
18.05.2016 15:59 17,7 C 54 % 1011,5 hPa 0,0 l/m 4,1 km/h (1 Bft) NO 38 0 min 0,000 mm 2,7 UV-I 260 W/m 8,3 C 17,7 C 8,0 km/h (2 Bft) 100,00 %
18.05.2016 16:00 17,6 C 50 % 1011,5 hPa 0,0 l/m 6,0 km/h (2 Bft) N 11 1 min 0,000 mm 2,8 UV-I 640 W/m 7,1 C 17,6 C 8,0 km/h (2 Bft) 95,65 %
18.05.2016 16:01 17,5 C 51 % 1011,5 hPa 0,0 l/m 5,4 km/h (1 Bft) NO 50 1 min 0,431 mm 2,8 UV-I 684 W/m 7,3 C 17,5 C 8,0 km/h (2 Bft) 96,30 %
18.05.2016 16:02 17,4 C 48 % 1011,5 hPa 0,0 l/m 3,5 km/h (1 Bft) NO 50 1 min 0,000 mm 2,7 UV-I 671 W/m 6,3 C 17,4 C 4,8 km/h (1 Bft) 100,00 %
18.05.2016 16:03 17,5 C 50 % 1011,5 hPa 0,0 l/m 4,4 km/h (1 Bft) O-NO 57 1 min 0,000 mm 2,7 UV-I 670 W/m 7,0 C 17,5 C 6,4 km/h (2 Bft) 95,83 %
18.05.2016 16:04 17,6 C 49 % 1011,4 hPa 0,0 l/m 4,6 km/h (1 Bft) NO 55 1 min 0,000 mm 2,7 UV-I 669 W/m 6,8 C 17,6 C 6,4 km/h (2 Bft) 100,00 %
18.05.2016 16:05 17,7 C 51 % 1011,4 hPa 0,0 l/m 3,8 km/h (1 Bft) NO 53 1 min 0,000 mm 2,6 UV-I 668 W/m 7,4 C 17,7 C 4,8 km/h (1 Bft) 95,83 %
18.05.2016 16:06 17,8 C 52 % 1011,4 hPa 0,0 l/m 3,2 km/h (1 Bft) NO 44 1 min 0,000 mm 2,6 UV-I 668 W/m 7,8 C 17,8 C 4,8 km/h (1 Bft) 100,00 %
18.05.2016 16:07 17,9 C 52 % 1011,4 hPa 0,0 l/m 2,0 km/h (1 Bft) O-NO 70 1 min 0,000 mm 2,6 UV-I 662 W/m 7,9 C 17,9 C 4,8 km/h (1 Bft) 95,83 %
18.05.2016 16:08 17,9 C 47 % 1011,4 hPa 0,0 l/m 2,5 km/h (1 Bft) O-NO 58 1 min 0,000 mm 2,4 UV-I 603 W/m 6,4 C 17,9 C 4,8 km/h (1 Bft) 100,00 %
18.05.2016 16:09 17,9 C 50 % 1011,4 hPa 0,0 l/m 2,5 km/h (1 Bft) NO 54 1 min 0,000 mm 2,0 UV-I 603 W/m 7,3 C 17,9 C 6,4 km/h (2 Bft) 96,30 %
18.05.2016 16:10 17,8 C 52 % 1011,4 hPa 0,0 l/m 3,5 km/h (1 Bft) N-NW 339 1 min 0,000 mm 1,9 UV-I 603 W/m 7,8 C 17,8 C 4,8 km/h (1 Bft) 100,00 %
18.05.2016 16:11 17,8 C 55 % 1011,3 hPa 0,0 l/m 3,6 km/h (1 Bft) N-NW 342 0 min 0,000 mm 2,0 UV-I 301 W/m 8,6 C 17,8 C 8,0 km/h (2 Bft) 96,15 %
18.05.2016 16:12 17,7 C 52 % 1011,3 hPa 0,0 l/m 1,7 km/h (1 Bft) N-NW 329 0 min 0,000 mm 2,3 UV-I 200 W/m 7,7 C 17,7 C 3,2 km/h (1 Bft) 96,88 %
18.05.2016 16:13 17,5 C 50 % 1011,3 hPa 0,0 l/m 2,7 km/h (1 Bft) N-NW 340 0 min 0,000 mm 2,2 UV-I 200 W/m 7,0 C 17,5 C 4,8 km/h (1 Bft) 100,00 %
18.05.2016 16:14 17,4 C 49 % 1011,3 hPa 0,0 l/m 3,9 km/h (1 Bft) NW 313 0 min 0,000 mm 1,7 UV-I 187 W/m 6,6 C 17,4 C 6,4 km/h (2 Bft) 96,67 %
18.05.2016 16:15 17,3 C 47 % 1011,2 hPa 0,0 l/m 2,8 km/h (1 Bft) N-NW 331 0 min 0,000 mm 1,9 UV-I 169 W/m 5,9 C 17,3 C 4,8 km/h (1 Bft) 96,55 %
18.05.2016 16:16 17,2 C 51 % 1011,2 hPa 0,0 l/m 0,9 km/h (0 Bft) N-NW 331 0 min 0,000 mm 2,0 UV-I 257 W/m 7,0 C 17,2 C 3,2 km/h (1 Bft) 100,00 %
18.05.2016 16:17 17,1 C 53 % 1011,2 hPa 0,0 l/m 1,7 km/h (1 Bft) NW 321 0 min 0,000 mm 2,3 UV-I 279 W/m 7,4 C 17,1 C 3,2 km/h (1 Bft) 100,00 %
18.05.2016 16:18 17,1 C 50 % 1011,2 hPa 0,0 l/m 5,6 km/h (1 Bft) W-NW 291 1 min 0,000 mm 2,4 UV-I 662 W/m 6,6 C 17,1 C 8,0 km/h (2 Bft) 100,00 %
18.05.2016 16:19 17,2 C 49 % 1011,3 hPa 0,0 l/m 4,1 km/h (1 Bft) SW 232 1 min 0,000 mm 2,4 UV-I 644 W/m 6,4 C 17,2 C 6,4 km/h (2 Bft) 100,00 %
18.05.2016 16:20 17,3 C 49 % 1011,2 hPa 0,0 l/m 4,5 km/h (1 Bft) W-SW 250 1 min 0,000 mm 2,4 UV-I 637 W/m 6,5 C 17,3 C 8,0 km/h (2 Bft) 100,00 %
18.05.2016 16:21 17,4 C 47 % 1011,2 hPa 0,0 l/m 6,6 km/h (2 Bft) S 181 1 min 0,000 mm 2,4 UV-I 633 W/m 6,0 C 17,3 C 8,0 km/h (2 Bft) 95,65 %
18.05.2016 16:22 17,4 C 47 % 1011,2 hPa 0,0 l/m 4,3 km/h (1 Bft) S 182 1 min 0,000 mm 2,3 UV-I 628 W/m 6,0 C 17,4 C 6,4 km/h (2 Bft) 100,00 %
18.05.2016 16:23 17,4 C 51 % 1011,2 hPa 0,0 l/m 2,8 km/h (1 Bft) S 182 1 min 0,000 mm 2,3 UV-I 622 W/m 7,2 C 17,4 C 4,8 km/h (1 Bft) 100,00 %
18.05.2016 16:24 17,5 C 49 % 1011,2 hPa 0,0 l/m 0,2 km/h (0 Bft) S 182 1 min 0,000 mm 2,3 UV-I 613 W/m 6,7 C 17,5 C 1,6 km/h (1 Bft) 100,00 %
18.05.2016 16:25 17,6 C 52 % 1011,2 hPa 0,0 l/m 2,7 km/h (1 Bft) W 260 1 min 0,000 mm 2,1 UV-I 611 W/m 7,6 C 17,6 C 4,8 km/h (1 Bft) 100,00 %
18.05.2016 16:26 17,6 C 48 % 1011,2 hPa 0,0 l/m 5,7 km/h (1 Bft) W-SW 246 1 min 0,000 mm 2,2 UV-I 610 W/m 6,5 C 17,6 C 8,0 km/h (2 Bft) 100,00 %
18.05.2016 16:27 17,7 C 50 % 1011,1 hPa 0,0 l/m 5,7 km/h (1 Bft) W 267 1 min 0,000 mm 2,2 UV-I 606 W/m 7,1 C 17,7 C 11,3 km/h (2 Bft) 100,00 %
18.05.2016 16:28 17,8 C 47 % 1011,1 hPa 0,0 l/m 6,8 km/h (2 Bft) W-SW 254 1 min 0,000 mm 2,2 UV-I 596 W/m 6,3 C 17,6 C 9,7 km/h (2 Bft) 100,00 %
18.05.2016 16:29 17,8 C 48 % 1011,1 hPa 0,0 l/m 4,8 km/h (1 Bft) NW 326 1 min 0,000 mm 2,2 UV-I 601 W/m 6,6 C 17,8 C 9,7 km/h (2 Bft) 100,00 %
18.05.2016 16:30 17,8 C 47 % 1011,1 hPa 0,0 l/m 1,5 km/h (1 Bft) N 350 1 min 0,000 mm 2,2 UV-I 598 W/m 6,3 C 17,8 C 3,2 km/h (1 Bft) 100,00 %
18.05.2016 16:31 17,8 C 52 % 1011,1 hPa 0,0 l/m 0,7 km/h (0 Bft) N 350 1 min 0,000 mm 2,2 UV-I 596 W/m 7,8 C 17,8 C 1,6 km/h (1 Bft) 100,00 %
18.05.2016 16:32 17,9 C 48 % 1011,1 hPa 0,0 l/m 4,5 km/h (1 Bft) NW 304 1 min 0,000 mm 2,2 UV-I 595 W/m 6,7 C 17,9 C 8,0 km/h (2 Bft) 96,30 %
18.05.2016 16:33 17,9 C 50 % 1011,1 hPa 0,0 l/m 3,0 km/h (1 Bft) N-NW 327 1 min 0,000 mm 2,2 UV-I 594 W/m 7,3 C 17,9 C 8,0 km/h (2 Bft) 100,00 %
18.05.2016 16:34 17,9 C 53 % 1011,1 hPa 0,0 l/m 4,0 km/h (1 Bft) NW 305 1 min 0,000 mm 2,1 UV-I 592 W/m 8,2 C 17,9 C 6,4 km/h (2 Bft) 100,00 %
18.05.2016 16:35 17,8 C 47 % 1011,1 hPa 0,0 l/m 3,6 km/h (1 Bft) N-NW 333 1 min 0,000 mm 2,1 UV-I 587 W/m 6,3 C 17,8 C 4,8 km/h (1 Bft) 100,00 %
18.05.2016 16:36 17,8 C 49 % 1011,1 hPa 0,0 l/m 2,0 km/h (1 Bft) W-NW 287 1 min 0,000 mm 2,1 UV-I 589 W/m 6,9 C 17,8 C 4,8 km/h (1 Bft) 100,00 %
18.05.2016 16:37 17,8 C 47 % 1011,0 hPa 0,0 l/m 2,8 km/h (1 Bft) W-NW 300 1 min 0,000 mm 2,1 UV-I 586 W/m 6,3 C 17,8 C 4,8 km/h (1 Bft) 100,00 %
18.05.2016 16:38 17,8 C 51 % 1011,1 hPa 0,0 l/m 4,2 km/h (1 Bft) N 9 1 min 0,000 mm 2,0 UV-I 585 W/m 7,5 C 17,8 C 6,4 km/h (2 Bft) 100,00 %
18.05.2016 16:39 17,8 C 48 % 1011,1 hPa 0,0 l/m 3,0 km/h (1 Bft) N-NW 344 1 min 0,000 mm 2,0 UV-I 585 W/m 6,6 C 17,8 C 4,8 km/h (1 Bft) 96,67 %
18.05.2016 16:40 17,8 C 49 % 1011,1 hPa 0,0 l/m 2,9 km/h (1 Bft) NW 321 1 min 0,000 mm 2,0 UV-I 583 W/m 6,9 C 17,8 C 4,8 km/h (1 Bft) 100,00 %
18.05.2016 16:41 17,8 C 52 % 1011,0 hPa 0,0 l/m 2,5 km/h (1 Bft) NW 317 1 min 0,000 mm 2,0 UV-I 580 W/m 7,8 C 17,8 C 3,2 km/h (1 Bft) 100,00 %
18.05.2016 16:42 17,9 C 49 % 1011,0 hPa 0,0 l/m 1,5 km/h (1 Bft) NW 313 1 min 0,000 mm 2,0 UV-I 575 W/m 7,0 C 17,9 C 3,2 km/h (1 Bft) 100,00 %
18.05.2016 16:43 17,9 C 47 % 1011,0 hPa 0,0 l/m 1,5 km/h (1 Bft) NW 317 1 min 0,000 mm 2,0 UV-I 577 W/m 6,4 C 17,9 C 3,2 km/h (1 Bft) 100,00 %
18.05.2016 16:44 17,9 C 47 % 1011,0 hPa 0,0 l/m 1,6 km/h (1 Bft) NW 323 1 min 0,000 mm 2,0 UV-I 576 W/m 6,4 C 17,9 C 3,2 km/h (1 Bft) 100,00 %
18.05.2016 16:45 17,9 C 48 % 1011,0 hPa 0,0 l/m 1,9 km/h (1 Bft) NW 309 1 min 0,000 mm 2,0 UV-I 572 W/m 6,7 C 17,9 C 3,2 km/h (1 Bft) 100,00 %
18.05.2016 16:46 17,9 C 48 % 1011,0 hPa 0,0 l/m 2,7 km/h (1 Bft) W-NW 290 1 min 0,000 mm 1,9 UV-I 571 W/m 6,7 C 17,9 C 4,8 km/h (1 Bft) 95,65 %
18.05.2016 16:47 17,9 C 45 % 1010,9 hPa 0,0 l/m 2,3 km/h (1 Bft) W-NW 290 1 min 0,000 mm 1,9 UV-I 568 W/m 5,8 C 17,9 C 4,8 km/h (1 Bft) 100,00 %
18.05.2016 16:48 18,0 C 49 % 1010,9 hPa 0,0 l/m 2,7 km/h (1 Bft) W-NW 290 1 min 0,000 mm 1,9 UV-I 566 W/m 7,1 C 18,0 C 4,8 km/h (1 Bft) 100,00 %
18.05.2016 16:49 18,1 C 47 % 1010,9 hPa 0,0 l/m 3,0 km/h (1 Bft) W 262 1 min 0,000 mm 1,9 UV-I 563 W/m 6,6 C 18,1 C 4,8 km/h (1 Bft) 100,00 %
18.05.2016 16:50 18,1 C 47 % 1010,9 hPa 0,0 l/m 2,5 km/h (1 Bft) W-SW 252 1 min 0,000 mm 1,9 UV-I 557 W/m 6,6 C 18,1 C 6,4 km/h (2 Bft) 100,00 %
18.05.2016 16:51 18,0 C 45 % 1010,9 hPa 0,0 l/m 2,1 km/h (1 Bft) W-SW 237 1 min 0,000 mm 1,9 UV-I 553 W/m 5,9 C 18,0 C 3,2 km/h (1 Bft) 100,00 %
18.05.2016 16:52 17,9 C 47 % 1010,9 hPa 0,0 l/m 9,7 km/h (2 Bft) SW 227 1 min 0,000 mm 1,8 UV-I 549 W/m 6,4 C 16,4 C 12,9 km/h (3 Bft) 100,00 %
18.05.2016 16:53 17,9 C 46 % 1010,9 hPa 0,0 l/m 6,3 km/h (2 Bft) W-SW 243 1 min 0,000 mm 1,8 UV-I 547 W/m 6,1 C 17,9 C 8,0 km/h (2 Bft) 100,00 %
18.05.2016 16:54 17,9 C 48 % 1010,9 hPa 0,0 l/m 6,1 km/h (2 Bft) SW 226 1 min 0,000 mm 1,8 UV-I 542 W/m 6,7 C 17,9 C 8,0 km/h (2 Bft) 100,00 %
18.05.2016 16:55 17,8 C 45 % 1010,9 hPa 0,0 l/m 4,0 km/h (1 Bft) W-SW 242 1 min 0,000 mm 1,8 UV-I 539 W/m 5,7 C 17,8 C 6,4 km/h (2 Bft) 100,00 %
18.05.2016 16:56 17,8 C 46 % 1010,9 hPa 0,0 l/m 5,2 km/h (1 Bft) SW 216 1 min 0,000 mm 1,8 UV-I 535 W/m 6,0 C 17,8 C 6,4 km/h (2 Bft) 100,00 %
18.05.2016 16:57 17,7 C 46 % 1010,9 hPa 0,0 l/m 2,7 km/h (1 Bft) SW 216 1 min 0,000 mm 1,7 UV-I 535 W/m 5,9 C 17,7 C 4,8 km/h (1 Bft) 100,00 %
18.05.2016 16:58 17,7 C 48 % 1010,9 hPa 0,0 l/m 1,4 km/h (1 Bft) SW 216 1 min 0,000 mm 1,6 UV-I 534 W/m 6,6 C 17,7 C 3,2 km/h (1 Bft) 100,00 %
18.05.2016 16:59 17,7 C 47 % 1010,8 hPa 0,0 l/m 2,7 km/h (1 Bft) W-SW 241 1 min 0,000 mm 1,7 UV-I 531 W/m 6,2 C 17,7 C 3,2 km/h (1 Bft) 100,00 %
18.05.2016 17:00 17,7 C 45 % 1010,8 hPa 0,0 l/m 1,1 km/h (1 Bft) W-SW 241 1 min 0,331 mm 1,7 UV-I 526 W/m 5,6 C 17,7 C 3,2 km/h (1 Bft) 95,83 %
18.05.2016 17:01 17,7 C 45 % 1010,8 hPa 0,0 l/m 1,5 km/h (1 Bft) W-SW 241 1 min 0,000 mm 1,7 UV-I 523 W/m 5,6 C 17,7 C 3,2 km/h (1 Bft) 100,00 %
18.05.2016 17:02 17,6 C 45 % 1010,7 hPa 0,0 l/m 1,9 km/h (1 Bft) SW 233 1 min 0,000 mm 1,7 UV-I 520 W/m 5,5 C 17,6 C 3,2 km/h (1 Bft) 100,00 %
18.05.2016 17:03 17,6 C 46 % 1010,7 hPa 0,0 l/m 0,8 km/h (0 Bft) SW 232 1 min 0,000 mm 1,6 UV-I 518 W/m 5,8 C 17,6 C 3,2 km/h (1 Bft) 100,00 %
18.05.2016 17:04 17,6 C 47 % 1010,7 hPa 0,0 l/m 2,7 km/h (1 Bft) W 260 1 min 0,000 mm 1,4 UV-I 514 W/m 6,2 C 17,6 C 4,8 km/h (1 Bft) 100,00 %
18.05.2016 17:05 17,7 C 48 % 1010,6 hPa 0,0 l/m 2,2 km/h (1 Bft) N 5 1 min 0,000 mm 1,6 UV-I 510 W/m 6,6 C 17,7 C 4,8 km/h (1 Bft) 100,00 %
18.05.2016 17:06 17,8 C 56 % 1010,6 hPa 0,0 l/m 2,2 km/h (1 Bft) N-NO 22 1 min 0,000 mm 1,6 UV-I 508 W/m 8,9 C 17,8 C 3,2 km/h (1 Bft) 100,00 %
18.05.2016 17:07 17,8 C 52 % 1010,6 hPa 0,0 l/m 1,9 km/h (1 Bft) N 355 1 min 0,000 mm 1,6 UV-I 506 W/m 7,8 C 17,8 C 6,4 km/h (2 Bft) 100,00 %
18.05.2016 17:08 17,8 C 54 % 1010,6 hPa 0,0 l/m 2,3 km/h (1 Bft) W-NW 302 1 min 0,000 mm 1,6 UV-I 506 W/m 8,4 C 17,8 C 4,8 km/h (1 Bft) 100,00 %
18.05.2016 17:09 17,8 C 48 % 1010,6 hPa 0,0 l/m 3,6 km/h (1 Bft) N-NO 14 1 min 0,000 mm 1,5 UV-I 504 W/m 6,6 C 17,8 C 4,8 km/h (1 Bft) 100,00 %
18.05.2016 17:10 17,8 C 51 % 1010,6 hPa 0,0 l/m 3,3 km/h (1 Bft) N 11 1 min 0,000 mm 1,5 UV-I 501 W/m 7,5 C 17,8 C 4,8 km/h (1 Bft) 100,00 %
18.05.2016 17:11 17,8 C 52 % 1010,6 hPa 0,0 l/m 2,2 km/h (1 Bft) N-NO 27 1 min 0,000 mm 1,5 UV-I 497 W/m 7,8 C 17,8 C 4,8 km/h (1 Bft) 100,00 %
18.05.2016 17:12 17,8 C 50 % 1010,6 hPa 0,0 l/m 5,1 km/h (1 Bft) NO 35 1 min 0,000 mm 1,5 UV-I 496 W/m 7,2 C 17,8 C 6,4 km/h (2 Bft) 100,00 %
18.05.2016 17:13 17,8 C 51 % 1010,6 hPa 0,0 l/m 6,2 km/h (2 Bft) O-NO 58 1 min 0,000 mm 1,5 UV-I 495 W/m 7,5 C 17,8 C 8,0 km/h (2 Bft) 100,00 %
18.05.2016 17:14 17,8 C 48 % 1010,6 hPa 0,0 l/m 4,4 km/h (1 Bft) O-NO 59 1 min 0,000 mm 1,5 UV-I 492 W/m 6,6 C 17,8 C 6,4 km/h (2 Bft) 100,00 %
18.05.2016 17:15 17,8 C 47 % 1010,5 hPa 0,0 l/m 4,1 km/h (1 Bft) O-NO 59 1 min 0,000 mm 1,4 UV-I 489 W/m 6,3 C 17,8 C 4,8 km/h (1 Bft) 100,00 %
18.05.2016 17:16 17,9 C 47 % 1010,5 hPa 0,0 l/m 4,0 km/h (1 Bft) NO 40 1 min 0,000 mm 1,4 UV-I 489 W/m 6,4 C 17,9 C 4,8 km/h (1 Bft) 100,00 %
18.05.2016 17:17 17,9 C 49 % 1010,4 hPa 0,0 l/m 3,1 km/h (1 Bft) NO 40 1 min 0,000 mm 1,4 UV-I 486 W/m 7,0 C 17,9 C 4,8 km/h (1 Bft) 100,00 %
18.05.2016 17:18 18,0 C 50 % 1010,5 hPa 0,0 l/m 3,4 km/h (1 Bft) NO 36 1 min 0,000 mm 1,4 UV-I 482 W/m 7,4 C 18,0 C 6,4 km/h (2 Bft) 100,00 %
18.05.2016 17:19 18,0 C 49 % 1010,4 hPa 0,0 l/m 3,6 km/h (1 Bft) N-NO 15 1 min 0,000 mm 1,4 UV-I 474 W/m 7,1 C 18,0 C 6,4 km/h (2 Bft) 100,00 %
18.05.2016 17:20 18,0 C 54 % 1010,4 hPa 0,0 l/m 0,7 km/h (0 Bft) N-NO 15 1 min 0,000 mm 1,4 UV-I 474 W/m 8,6 C 18,0 C 1,6 km/h (1 Bft) 100,00 %
18.05.2016 17:21 18,0 C 47 % 1010,4 hPa 0,0 l/m 0,3 km/h (0 Bft) N-NO 15 1 min 0,000 mm 1,3 UV-I 408 W/m 6,5 C 18,0 C 1,6 km/h (1 Bft) 100,00 %
18.05.2016 17:22 17,9 C 53 % 1010,4 hPa 0,0 l/m 2,5 km/h (1 Bft) N-NO 12 1 min 0,000 mm 1,3 UV-I 465 W/m 8,2 C 17,9 C 4,8 km/h (1 Bft) 95,65 %
18.05.2016 17:23 17,9 C 51 % 1010,4 hPa 0,0 l/m 6,1 km/h (2 Bft) N-NO 19 1 min 0,000 mm 1,3 UV-I 457 W/m 7,6 C 17,9 C 8,0 km/h (2 Bft) 100,00 %
18.05.2016 17:24 17,9 C 51 % 1010,4 hPa 0,0 l/m 6,4 km/h (2 Bft) N-NO 16 1 min 0,000 mm 1,3 UV-I 437 W/m 7,6 C 17,9 C 8,0 km/h (2 Bft) 100,00 %
18.05.2016 17:25 17,9 C 52 % 1010,4 hPa 0,0 l/m 5,8 km/h (2 Bft) NO 40 1 min 0,000 mm 1,3 UV-I 464 W/m 7,9 C 17,9 C 8,0 km/h (2 Bft) 93,33 %
18.05.2016 17:26 17,9 C 47 % 1010,3 hPa 0,0 l/m 9,1 km/h (2 Bft) NO 48 1 min 0,000 mm 1,3 UV-I 418 W/m 6,4 C 16,7 C 11,3 km/h (2 Bft) 100,00 %
18.05.2016 17:27 17,9 C 46 % 1010,3 hPa 0,0 l/m 5,0 km/h (1 Bft) O-NO 60 1 min 0,000 mm 1,3 UV-I 450 W/m 6,1 C 17,9 C 9,7 km/h (2 Bft) 100,00 %
18.05.2016 17:28 17,9 C 46 % 1010,3 hPa 0,0 l/m 1,1 km/h (1 Bft) O-NO 60 1 min 0,000 mm 1,3 UV-I 459 W/m 6,1 C 17,9 C 1,6 km/h (1 Bft) 100,00 %
18.05.2016 17:29 17,8 C 48 % 1010,3 hPa 0,0 l/m 5,1 km/h (1 Bft) O-NO 67 1 min 0,000 mm 1,2 UV-I 454 W/m 6,6 C 17,8 C 6,4 km/h (2 Bft) 95,65 %
18.05.2016 17:30 17,9 C 47 % 1010,3 hPa 0,0 l/m 4,3 km/h (1 Bft) O-NO 61 1 min 0,000 mm 1,2 UV-I 451 W/m 6,4 C 17,9 C 6,4 km/h (2 Bft) 100,00 %
18.05.2016 17:31 17,9 C 47 % 1010,3 hPa 0,0 l/m 2,3 km/h (1 Bft) NO 53 1 min 0,000 mm 1,2 UV-I 447 W/m 6,4 C 17,9 C 4,8 km/h (1 Bft) 100,00 %
18.05.2016 17:32 17,9 C 51 % 1010,3 hPa 0,0 l/m 4,2 km/h (1 Bft) O-NO 59 1 min 0,000 mm 1,2 UV-I 446 W/m 7,6 C 17,9 C 4,8 km/h (1 Bft) 100,00 %
18.05.2016 17:33 18,1 C 51 % 1010,3 hPa 0,0 l/m 3,4 km/h (1 Bft) NO 56 1 min 0,000 mm 1,2 UV-I 446 W/m 7,8 C 18,1 C 4,8 km/h (1 Bft) 100,00 %
18.05.2016 17:34 18,1 C 49 % 1010,3 hPa 0,0 l/m 3,4 km/h (1 Bft) NO 56 1 min 0,000 mm 1,2 UV-I 441 W/m 7,2 C 18,1 C 4,8 km/h (1 Bft) 100,00 %
18.05.2016 17:35 18,1 C 50 % 1010,3 hPa 0,0 l/m 2,4 km/h (1 Bft) O-NO 63 1 min 0,000 mm 1,0 UV-I 424 W/m 7,5 C 18,1 C 4,8 km/h (1 Bft) 96,15 %
18.05.2016 17:36 18,1 C 48 % 1010,3 hPa 0,0 l/m 1,6 km/h (1 Bft) O-NO 63 1 min 0,000 mm 1,1 UV-I 435 W/m 6,9 C 18,1 C 3,2 km/h (1 Bft) 100,00 %
18.05.2016 17:37 18,0 C 49 % 1010,2 hPa 0,0 l/m 2,9 km/h (1 Bft) N-NO 28 1 min 0,000 mm 1,1 UV-I 433 W/m 7,1 C 18,0 C 6,4 km/h (2 Bft) 100,00 %
18.05.2016 17:38 18,0 C 51 % 1010,3 hPa 0,0 l/m 5,1 km/h (1 Bft) NO 49 1 min 0,000 mm 1,1 UV-I 430 W/m 7,7 C 18,0 C 6,4 km/h (2 Bft) 100,00 %
18.05.2016 17:39 18,1 C 55 % 1010,3 hPa 0,0 l/m 3,0 km/h (1 Bft) N 5 1 min 0,000 mm 1,1 UV-I 429 W/m 8,9 C 18,1 C 6,4 km/h (2 Bft) 100,00 %
18.05.2016 17:40 18,0 C 50 % 1010,2 hPa 0,0 l/m 2,7 km/h (1 Bft) N 9 1 min 0,000 mm 1,1 UV-I 428 W/m 7,4 C 18,0 C 4,8 km/h (1 Bft) 91,67 %
18.05.2016 17:41 17,9 C 50 % 1010,3 hPa 0,0 l/m 0,8 km/h (0 Bft) N-NW 348 1 min 0,000 mm 1,1 UV-I 412 W/m 7,3 C 17,9 C 1,6 km/h (1 Bft) 100,00 %
18.05.2016 17:42 17,8 C 49 % 1010,3 hPa 0,0 l/m 3,7 km/h (1 Bft) N 11 1 min 0,000 mm 1,1 UV-I 400 W/m 6,9 C 17,8 C 8,0 km/h (2 Bft) 95,83 %
18.05.2016 17:43 17,8 C 48 % 1010,2 hPa 0,0 l/m 1,8 km/h (1 Bft) W-NW 285 1 min 0,000 mm 1,0 UV-I 389 W/m 6,6 C 17,8 C 3,2 km/h (1 Bft) 96,55 %
18.05.2016 17:44 17,8 C 53 % 1010,2 hPa 0,0 l/m 6,9 km/h (2 Bft) NO 38 1 min 0,000 mm 0,9 UV-I 400 W/m 8,1 C 17,6 C 12,9 km/h (3 Bft) 95,83 %
18.05.2016 17:45 17,8 C 52 % 1010,2 hPa 0,0 l/m 6,2 km/h (2 Bft) NO 36 1 min 0,000 mm 0,9 UV-I 408 W/m 7,8 C 17,8 C 9,7 km/h (2 Bft) 100,00 %
18.05.2016 17:46 17,8 C 53 % 1010,2 hPa 0,0 l/m 7,7 km/h (2 Bft) N-NO 31 1 min 0,000 mm 0,9 UV-I 406 W/m 8,1 C 17,2 C 12,9 km/h (3 Bft) 97,14 %
18.05.2016 17:47 17,7 C 51 % 1010,2 hPa 0,0 l/m 7,1 km/h (2 Bft) NO 48 1 min 0,000 mm 0,9 UV-I 391 W/m 7,4 C 17,4 C 12,9 km/h (3 Bft) 100,00 %
18.05.2016 17:48 17,7 C 49 % 1010,2 hPa 0,0 l/m 8,1 km/h (2 Bft) NO 34 1 min 0,000 mm 0,8 UV-I 257 W/m 6,9 C 16,9 C 11,3 km/h (2 Bft) 96,15 %
18.05.2016 17:49 17,8 C 53 % 1010,2 hPa 0,0 l/m 9,0 km/h (2 Bft) N-NO 25 1 min 0,000 mm 0,9 UV-I 257 W/m 8,1 C 16,6 C 12,9 km/h (3 Bft) 96,55 %
18.05.2016 17:50 17,7 C 49 % 1010,2 hPa 0,0 l/m 2,5 km/h (1 Bft) N-NO 24 1 min 0,000 mm 0,9 UV-I 345 W/m 6,9 C 17,7 C 8,0 km/h (2 Bft) 100,00 %
18.05.2016 17:51 17,8 C 49 % 1010,2 hPa 0,0 l/m 0,9 km/h (0 Bft) N-NO 24 1 min 0,000 mm 0,9 UV-I 381 W/m 6,9 C 17,8 C 1,6 km/h (1 Bft) 95,83 %
18.05.2016 17:52 17,8 C 48 % 1010,1 hPa 0,0 l/m 5,7 km/h (1 Bft) N 11 1 min 0,000 mm 0,9 UV-I 362 W/m 6,6 C 17,8 C 14,5 km/h (3 Bft) 96,55 %
18.05.2016 17:53 17,8 C 54 % 1010,1 hPa 0,0 l/m 4,4 km/h (1 Bft) N 5 1 min 0,000 mm 0,9 UV-I 292 W/m 8,4 C 17,8 C 6,4 km/h (2 Bft) 100,00 %
18.05.2016 17:54 17,8 C 53 % 1010,1 hPa 0,0 l/m 3,4 km/h (1 Bft) N-NW 333 1 min 0,000 mm 0,9 UV-I 291 W/m 8,1 C 17,8 C 4,8 km/h (1 Bft) 92,31 %
18.05.2016 17:55 17,8 C 54 % 1010,1 hPa 0,0 l/m 4,5 km/h (1 Bft) N 11 1 min 0,000 mm 0,9 UV-I 339 W/m 8,4 C 17,8 C 8,0 km/h (2 Bft) 100,00 %
18.05.2016 17:56 17,7 C 55 % 1010,1 hPa 0,0 l/m 5,1 km/h (1 Bft) N-NO 15 1 min 0,000 mm 0,8 UV-I 351 W/m 8,5 C 17,7 C 8,0 km/h (2 Bft) 94,12 %
18.05.2016 17:57 17,6 C 51 % 1010,1 hPa 0,0 l/m 1,8 km/h (1 Bft) N-NW 345 1 min 0,000 mm 0,8 UV-I 340 W/m 7,3 C 17,6 C 4,8 km/h (1 Bft) 100,00 %
18.05.2016 17:58 17,6 C 52 % 1010,1 hPa 0,0 l/m 3,1 km/h (1 Bft) N-NO 15 1 min 0,000 mm 0,8 UV-I 314 W/m 7,6 C 17,6 C 6,4 km/h (2 Bft) 96,15 %
18.05.2016 17:59 17,5 C 53 % 1010,1 hPa 0,0 l/m 4,0 km/h (1 Bft) N 9 0 min 0,000 mm 0,8 UV-I 213 W/m 7,8 C 17,5 C 8,0 km/h (2 Bft) 100,00 %
18.05.2016 18:00 17,6 C 53 % 1010,1 hPa 0,0 l/m 1,9 km/h (1 Bft) N-NO 20 0 min 0,254 mm 0,8 UV-I 224 W/m 7,9 C 17,6 C 4,8 km/h (1 Bft) 95,65 %
18.05.2016 18:01 17,6 C 54 % 1010,1 hPa 0,0 l/m 3,7 km/h (1 Bft) N-NO 33 1 min 0,000 mm 0,8 UV-I 265 W/m 8,2 C 17,6 C 4,8 km/h (1 Bft) 95,83 %
18.05.2016 18:02 17,7 C 52 % 1010,1 hPa 0,0 l/m 3,8 km/h (1 Bft) N-NO 29 1 min 0,000 mm 0,7 UV-I 296 W/m 7,7 C 17,7 C 6,4 km/h (2 Bft) 100,00 %
18.05.2016 18:03 17,7 C 52 % 1010,1 hPa 0,0 l/m 4,1 km/h (1 Bft) N-NO 29 1 min 0,000 mm 0,7 UV-I 252 W/m 7,7 C 17,7 C 4,8 km/h (1 Bft) 100,00 %
18.05.2016 18:04 17,7 C 51 % 1010,1 hPa 0,0 l/m 2,3 km/h (1 Bft) N-NO 29 1 min 0,000 mm 0,7 UV-I 238 W/m 7,4 C 17,7 C 4,8 km/h (1 Bft) 96,15 %
18.05.2016 18:05 17,6 C 52 % 1010,1 hPa 0,0 l/m 0,1 km/h (0 Bft) N-NO 29 1 min 0,000 mm 0,7 UV-I 289 W/m 7,6 C 17,6 C 1,6 km/h (1 Bft) 95,83 %
18.05.2016 18:06 17,6 C 53 % 1010,1 hPa 0,0 l/m 0,3 km/h (0 Bft) N-NO 29 1 min 0,000 mm 0,7 UV-I 252 W/m 7,9 C 17,6 C 1,6 km/h (1 Bft) 100,00 %
18.05.2016 18:07 17,6 C 54 % 1010,1 hPa 0,0 l/m 3,0 km/h (1 Bft) N-NO 29 1 min 0,000 mm 0,7 UV-I 240 W/m 8,2 C 17,6 C 4,8 km/h (1 Bft) 93,33 %
18.05.2016 18:08 17,5 C 49 % 1010,0 hPa 0,0 l/m 0,7 km/h (0 Bft) N-NO 29 1 min 0,000 mm 0,6 UV-I 250 W/m 6,7 C 17,5 C 1,6 km/h (1 Bft) 100,00 %
18.05.2016 18:09 17,6 C 51 % 1010,0 hPa 0,0 l/m 0,7 km/h (0 Bft) N-NO 29 1 min 0,000 mm 0,6 UV-I 251 W/m 7,3 C 17,6 C 1,6 km/h (1 Bft) 91,30 %
18.05.2016 18:10 17,6 C 51 % 1010,0 hPa 0,0 l/m 2,6 km/h (1 Bft) N-NO 29 1 min 0,000 mm 0,6 UV-I 234 W/m 7,3 C 17,6 C 3,2 km/h (1 Bft) 95,83 %
18.05.2016 18:11 17,6 C 52 % 1010,0 hPa 0,0 l/m 2,4 km/h (1 Bft) N-NO 29 1 min 0,000 mm 0,6 UV-I 245 W/m 7,6 C 17,6 C 3,2 km/h (1 Bft) 96,15 %
18.05.2016 18:12 17,6 C 54 % 1010,0 hPa 0,0 l/m 1,8 km/h (1 Bft) N-NO 29 1 min 0,000 mm 0,6 UV-I 242 W/m 8,2 C 17,6 C 3,2 km/h (1 Bft) 100,00 %
18.05.2016 18:13 17,6 C 52 % 1010,0 hPa 0,0 l/m 0,6 km/h (0 Bft) N-NO 16 1 min 0,000 mm 0,6 UV-I 235 W/m 7,6 C 17,6 C 1,6 km/h (1 Bft) 97,37 %
18.05.2016 18:14 17,6 C 54 % 1009,9 hPa 0,0 l/m 2,7 km/h (1 Bft) N-NW 334 1 min 0,000 mm 0,6 UV-I 255 W/m 8,2 C 17,6 C 4,8 km/h (1 Bft) 100,00 %
18.05.2016 18:15 17,5 C 51 % 1009,9 hPa 0,0 l/m 0,6 km/h (0 Bft) N-NW 334 1 min 0,000 mm 0,6 UV-I 239 W/m 7,3 C 17,5 C 3,2 km/h (1 Bft) 95,65 %
18.05.2016 18:16 17,4 C 51 % 1009,9 hPa 0,0 l/m 3,1 km/h (1 Bft) N-NO 20 1 min 0,000 mm 0,6 UV-I 284 W/m 7,2 C 17,4 C 4,8 km/h (1 Bft) 100,00 %
18.05.2016 18:17 17,4 C 52 % 1009,9 hPa 0,0 l/m 1,4 km/h (1 Bft) N-NW 345 1 min 0,000 mm 0,6 UV-I 301 W/m 7,4 C 17,4 C 3,2 km/h (1 Bft) 100,00 %
18.05.2016 18:18 17,4 C 50 % 1009,9 hPa 0,0 l/m 1,1 km/h (1 Bft) N-NW 348 1 min 0,000 mm 0,6 UV-I 258 W/m 6,9 C 17,4 C 3,2 km/h (1 Bft) 91,67 %
18.05.2016 18:19 17,5 C 54 % 1009,9 hPa 0,0 l/m 0,3 km/h (0 Bft) N-NW 348 1 min 0,000 mm 0,6 UV-I 259 W/m 8,1 C 17,5 C 1,6 km/h (1 Bft) 100,00 %
18.05.2016 18:20 17,5 C 49 % 1009,9 hPa 0,0 l/m 0,5 km/h (0 Bft) N-NW 348 1 min 0,000 mm 0,6 UV-I 293 W/m 6,7 C 17,5 C 1,6 km/h (1 Bft) 87,50 %
18.05.2016 18:21 17,6 C 49 % 1009,9 hPa 0,0 l/m 2,8 km/h (1 Bft) N-NO 17 1 min 0,000 mm 0,5 UV-I 285 W/m 6,8 C 17,6 C 6,4 km/h (2 Bft) 100,00 %
18.05.2016 18:22 17,6 C 52 % 1009,9 hPa 0,0 l/m 5,3 km/h (1 Bft) N-NO 30 1 min 0,000 mm 0,5 UV-I 283 W/m 7,6 C 17,6 C 8,0 km/h (2 Bft) 100,00 %
18.05.2016 18:23 17,5 C 56 % 1009,9 hPa 0,0 l/m 7,1 km/h (2 Bft) N-NO 24 1 min 0,000 mm 0,5 UV-I 289 W/m 8,6 C 17,2 C 9,7 km/h (2 Bft) 100,00 %
18.05.2016 18:24 17,5 C 54 % 1009,9 hPa 0,0 l/m 5,7 km/h (1 Bft) N-NO 23 1 min 0,000 mm 0,5 UV-I 291 W/m 8,1 C 17,5 C 8,0 km/h (2 Bft) 100,00 %
18.05.2016 18:25 17,4 C 52 % 1009,9 hPa 0,0 l/m 2,7 km/h (1 Bft) N-NO 26 1 min 0,000 mm 0,5 UV-I 293 W/m 7,4 C 17,4 C 4,8 km/h (1 Bft) 100,00 %
18.05.2016 18:26 17,5 C 53 % 1009,9 hPa 0,0 l/m 5,4 km/h (1 Bft) N 11 1 min 0,000 mm 0,5 UV-I 292 W/m 7,8 C 17,5 C 12,9 km/h (3 Bft) 100,00 %
18.05.2016 18:27 17,4 C 54 % 1009,9 hPa 0,0 l/m 5,9 km/h (2 Bft) N-NO 32 1 min 0,000 mm 0,5 UV-I 295 W/m 8,0 C 17,4 C 8,0 km/h (2 Bft) 98,76 %
18.05.2016 18:28 17,4 C 53 % 1009,9 hPa 0,0 l/m 7,8 km/h (2 Bft) N-NO 22 1 min 0,000 mm 0,5 UV-I 293 W/m 7,7 C 16,7 C 9,7 km/h (2 Bft) 100,00 %
18.05.2016 18:29 17,4 C 52 % 1009,9 hPa 0,0 l/m 1,9 km/h (1 Bft) N-NO 26 1 min 0,000 mm 0,5 UV-I 288 W/m 7,4 C 17,4 C 3,2 km/h (1 Bft) 95,83 %
18.05.2016 18:30 17,3 C 55 % 1009,9 hPa 0,0 l/m 2,0 km/h (1 Bft) N 360 1 min 0,000 mm 0,5 UV-I 282 W/m 8,2 C 17,3 C 3,2 km/h (1 Bft) 100,00 %
18.05.2016 18:31 17,2 C 56 % 1009,9 hPa 0,0 l/m 2,3 km/h (1 Bft) N 5 1 min 0,000 mm 0,5 UV-I 268 W/m 8,3 C 17,2 C 4,8 km/h (1 Bft) 100,00 %
18.05.2016 18:32 17,1 C 55 % 1009,8 hPa 0,0 l/m 1,4 km/h (1 Bft) S 179 1 min 0,000 mm 0,5 UV-I 234 W/m 8,0 C 17,1 C 3,2 km/h (1 Bft) 100,00 %
18.05.2016 18:33 17,1 C 54 % 1009,9 hPa 0,0 l/m 0,7 km/h (0 Bft) S 178 1 min 0,000 mm 0,1 UV-I 238 W/m 7,7 C 17,1 C 1,6 km/h (1 Bft) 95,83 %
18.05.2016 18:34 17,1 C 56 % 1009,9 hPa 0,0 l/m 1,0 km/h (0 Bft) N-NO 24 1 min 0,000 mm 0,0 UV-I 245 W/m 8,3 C 17,1 C 3,2 km/h (1 Bft) 100,00 %
18.05.2016 18:35 17,1 C 56 % 1009,8 hPa 0,0 l/m 0,5 km/h (0 Bft) N-NO 19 1 min 0,000 mm 0,0 UV-I 231 W/m 8,3 C 17,1 C 1,6 km/h (1 Bft) 96,30 %
18.05.2016 18:36 17,1 C 56 % 1009,8 hPa 0,0 l/m 0,4 km/h (0 Bft) N-NW 340 1 min 0,000 mm 0,0 UV-I 215 W/m 8,3 C 17,1 C 1,6 km/h (1 Bft) 100,00 %
18.05.2016 18:37 17,1 C 57 % 1009,8 hPa 0,0 l/m 1,8 km/h (1 Bft) N 355 1 min 0,000 mm 0,0 UV-I 192 W/m 8,5 C 17,1 C 3,2 km/h (1 Bft) 100,00 %
18.05.2016 18:38 17,0 C 57 % 1009,8 hPa 0,0 l/m 0,3 km/h (0 Bft) N-NW 348 1 min 0,000 mm 0,0 UV-I 192 W/m 8,4 C 17,0 C 1,6 km/h (1 Bft) 88,24 %
18.05.2016 18:39 16,9 C 56 % 1009,8 hPa 0,0 l/m 0,8 km/h (0 Bft) N-NW 334 1 min 0,000 mm 0,0 UV-I 188 W/m 8,1 C 16,9 C 1,6 km/h (1 Bft) 100,00 %
18.05.2016 18:40 16,9 C 56 % 1009,9 hPa 0,0 l/m 1,8 km/h (1 Bft) N-NW 336 1 min 0,000 mm 0,0 UV-I 179 W/m 8,1 C 16,9 C 3,2 km/h (1 Bft) 92,86 %
18.05.2016 18:41 16,8 C 53 % 1009,8 hPa 0,0 l/m 0,5 km/h (0 Bft) N-NW 336 1 min 0,000 mm 0,0 UV-I 178 W/m 7,2 C 16,8 C 1,6 km/h (1 Bft) 100,00 %
18.05.2016 18:42 16,9 C 52 % 1009,8 hPa 0,0 l/m 0,7 km/h (0 Bft) N-NW 347 1 min 0,000 mm 0,0 UV-I 186 W/m 7,0 C 16,9 C 3,2 km/h (1 Bft) 100,00 %
18.05.2016 18:43 16,9 C 52 % 1009,8 hPa 0,0 l/m 3,6 km/h (1 Bft) N 355 1 min 0,000 mm 0,0 UV-I 198 W/m 7,0 C 16,9 C 4,8 km/h (1 Bft) 100,00 %
18.05.2016 18:44 17,0 C 55 % 1009,8 hPa 0,0 l/m 2,9 km/h (1 Bft) N 355 1 min 0,000 mm 0,0 UV-I 195 W/m 7,9 C 17,0 C 4,8 km/h (1 Bft) 96,15 %
18.05.2016 18:45 17,1 C 55 % 1009,8 hPa 0,0 l/m 5,0 km/h (1 Bft) NO 42 1 min 0,000 mm 0,0 UV-I 188 W/m 8,0 C 17,1 C 6,4 km/h (2 Bft) 100,00 %
18.05.2016 18:46 17,1 C 54 % 1009,8 hPa 0,0 l/m 6,2 km/h (2 Bft) NO 43 1 min 0,000 mm 0,0 UV-I 170 W/m 7,7 C 17,1 C 8,0 km/h (2 Bft) 100,00 %
18.05.2016 18:47 17,1 C 55 % 1009,8 hPa 0,0 l/m 5,0 km/h (1 Bft) NO 36 1 min 0,000 mm 0,0 UV-I 164 W/m 8,0 C 17,1 C 6,4 km/h (2 Bft) 100,00 %
18.05.2016 18:48 16,9 C 56 % 1009,8 hPa 0,0 l/m 2,8 km/h (1 Bft) NO 36 1 min 0,000 mm 0,0 UV-I 160 W/m 8,1 C 16,9 C 4,8 km/h (1 Bft) 95,65 %
18.05.2016 18:49 16,9 C 54 % 1009,8 hPa 0,0 l/m 4,8 km/h (1 Bft) NO 50 0 min 0,000 mm 0,0 UV-I 150 W/m 7,5 C 16,9 C 6,4 km/h (2 Bft) 100,00 %
18.05.2016 18:50 17,0 C 53 % 1009,8 hPa 0,0 l/m 4,1 km/h (1 Bft) O-NO 58 1 min 0,000 mm 0,0 UV-I 170 W/m 7,4 C 17,0 C 4,8 km/h (1 Bft) 100,00 %
18.05.2016 18:51 17,1 C 53 % 1009,8 hPa 0,0 l/m 4,2 km/h (1 Bft) O-NO 57 1 min 0,000 mm 0,0 UV-I 197 W/m 7,4 C 17,1 C 6,4 km/h (2 Bft) 100,00 %
18.05.2016 18:52 17,2 C 54 % 1009,8 hPa 0,0 l/m 5,1 km/h (1 Bft) NO 46 1 min 0,000 mm 0,0 UV-I 185 W/m 7,8 C 17,2 C 6,4 km/h (2 Bft) 100,00 %
18.05.2016 18:53 17,3 C 53 % 1009,8 hPa 0,0 l/m 4,8 km/h (1 Bft) NO 49 1 min 0,000 mm 0,0 UV-I 178 W/m 7,6 C 17,3 C 6,4 km/h (2 Bft) 98,76 %
18.05.2016 18:54 17,3 C 52 % 1009,8 hPa 0,0 l/m 5,8 km/h (2 Bft) NO 49 1 min 0,000 mm 0,0 UV-I 204 W/m 7,3 C 17,3 C 8,0 km/h (2 Bft) 100,00 %
18.05.2016 18:55 17,3 C 53 % 1009,8 hPa 0,0 l/m 5,0 km/h (1 Bft) NO 49 1 min 0,000 mm 0,0 UV-I 206 W/m 7,6 C 17,3 C 6,4 km/h (2 Bft) 96,55 %
18.05.2016 18:56 17,4 C 52 % 1009,8 hPa 0,0 l/m 3,3 km/h (1 Bft) NO 49 1 min 0,000 mm 0,0 UV-I 186 W/m 7,4 C 17,4 C 4,8 km/h (1 Bft) 100,00 %
18.05.2016 18:57 17,4 C 51 % 1009,8 hPa 0,0 l/m 2,3 km/h (1 Bft) NO 49 1 min 0,000 mm 0,0 UV-I 187 W/m 7,2 C 17,4 C 3,2 km/h (1 Bft) 100,00 %
18.05.2016 18:58 17,4 C 53 % 1009,8 hPa 0,0 l/m 4,6 km/h (1 Bft) O-NO 74 1 min 0,000 mm 0,0 UV-I 190 W/m 7,7 C 17,4 C 6,4 km/h (2 Bft) 100,00 %
18.05.2016 18:59 17,4 C 53 % 1009,8 hPa 0,0 l/m 4,1 km/h (1 Bft) NO 53 1 min 0,000 mm 0,0 UV-I 192 W/m 7,7 C 17,4 C 4,8 km/h (1 Bft) 100,00 %
18.05.2016 19:00 17,4 C 52 % 1009,8 hPa 0,0 l/m 2,9 km/h (1 Bft) NO 53 1 min 0,000 mm 0,0 UV-I 189 W/m 7,4 C 17,4 C 4,8 km/h (1 Bft) 100,00 %
18.05.2016 19:02 17,4 C 55 % 1009,8 hPa 0,0 l/m 4,0 km/h (1 Bft) NO 41 2 min 0,152 mm 0,0 UV-I 166 W/m 8,3 C 17,4 C 6,4 km/h (2 Bft) 100,00 %
18.05.2016 19:03 17,3 C 56 % 1009,7 hPa 0,0 l/m 5,6 km/h (1 Bft) NO 44 0 min 0,000 mm 0,0 UV-I 124 W/m 8,4 C 17,3 C 6,4 km/h (2 Bft) 100,00 %
18.05.2016 19:04 17,2 C 55 % 1009,7 hPa 0,0 l/m 6,3 km/h (2 Bft) NO 42 0 min 0,000 mm 0,0 UV-I 116 W/m 8,1 C 17,2 C 8,0 km/h (2 Bft) 100,00 %
18.05.2016 19:05 17,1 C 56 % 1009,7 hPa 0,0 l/m 5,9 km/h (2 Bft) NO 37 0 min 0,000 mm 0,0 UV-I 110 W/m 8,3 C 17,1 C 8,0 km/h (2 Bft) 100,00 %
18.05.2016 19:06 16,9 C 57 % 1009,7 hPa 0,0 l/m 5,3 km/h (1 Bft) O-NO 63 0 min 0,000 mm 0,0 UV-I 124 W/m 8,3 C 16,9 C 6,4 km/h (2 Bft) 100,00 %
18.05.2016 19:07 16,9 C 56 % 1009,7 hPa 0,0 l/m 5,5 km/h (1 Bft) NO 38 1 min 0,000 mm 0,0 UV-I 131 W/m 8,1 C 16,9 C 8,0 km/h (2 Bft) 95,65 %
18.05.2016 19:08 16,8 C 57 % 1009,7 hPa 0,0 l/m 7,7 km/h (2 Bft) O-NO 63 1 min 0,000 mm 0,0 UV-I 135 W/m 8,2 C 16,1 C 12,9 km/h (3 Bft) 100,00 %
18.05.2016 19:09 16,7 C 56 % 1009,7 hPa 0,0 l/m 8,7 km/h (2 Bft) NO 43 1 min 0,000 mm 0,0 UV-I 136 W/m 7,9 C 15,6 C 12,9 km/h (3 Bft) 100,00 %
18.05.2016 19:10 16,7 C 57 % 1009,7 hPa 0,0 l/m 7,8 km/h (2 Bft) NO 40 1 min 0,000 mm 0,0 UV-I 142 W/m 8,1 C 16,0 C 11,3 km/h (2 Bft) 100,00 %
18.05.2016 19:11 16,7 C 56 % 1009,7 hPa 0,0 l/m 7,3 km/h (2 Bft) NO 51 1 min 0,000 mm 0,0 UV-I 125 W/m 7,9 C 16,2 C 11,3 km/h (2 Bft) 100,00 %
18.05.2016 19:12 16,7 C 57 % 1009,7 hPa 0,0 l/m 4,8 km/h (1 Bft) O-NO 61 0 min 0,000 mm 0,0 UV-I 105 W/m 8,1 C 16,7 C 6,4 km/h (2 Bft) 100,00 %
18.05.2016 19:13 16,7 C 57 % 1009,7 hPa 0,0 l/m 7,4 km/h (2 Bft) O-NO 57 0 min 0,000 mm 0,0 UV-I 116 W/m 8,1 C 16,2 C 9,7 km/h (2 Bft) 100,00 %
18.05.2016 19:14 16,8 C 55 % 1009,6 hPa 0,0 l/m 7,4 km/h (2 Bft) O-NO 61 1 min 0,000 mm 0,0 UV-I 120 W/m 7,7 C 16,3 C 9,7 km/h (2 Bft) 95,65 %
18.05.2016 19:15 16,8 C 55 % 1009,6 hPa 0,0 l/m 8,0 km/h (2 Bft) O-NO 62 1 min 0,000 mm 0,0 UV-I 129 W/m 7,7 C 16,0 C 11,3 km/h (2 Bft) 100,00 %
18.05.2016 19:16 16,8 C 56 % 1009,7 hPa 0,0 l/m 6,4 km/h (2 Bft) O-NO 57 1 min 0,000 mm 0,0 UV-I 124 W/m 8,0 C 16,8 C 9,7 km/h (2 Bft) 100,00 %
18.05.2016 19:17 16,8 C 55 % 1009,6 hPa 0,0 l/m 7,2 km/h (2 Bft) O-NO 63 1 min 0,000 mm 0,0 UV-I 122 W/m 7,7 C 16,4 C 9,7 km/h (2 Bft) 100,00 %
18.05.2016 19:18 16,8 C 55 % 1009,6 hPa 0,0 l/m 6,5 km/h (2 Bft) NO 53 1 min 0,000 mm 0,0 UV-I 119 W/m 7,7 C 16,8 C 9,7 km/h (2 Bft) 100,00 %
18.05.2016 19:19 16,9 C 55 % 1009,6 hPa 0,0 l/m 6,8 km/h (2 Bft) NO 49 1 min 0,000 mm 0,0 UV-I 111 W/m 7,8 C 16,7 C 9,7 km/h (2 Bft) 100,00 %
18.05.2016 19:20 16,8 C 55 % 1009,6 hPa 0,0 l/m 5,6 km/h (1 Bft) NO 46 0 min 0,000 mm 0,0 UV-I 97 W/m 7,7 C 16,8 C 6,4 km/h (2 Bft) 100,00 %
18.05.2016 19:21 16,8 C 55 % 1009,6 hPa 0,0 l/m 5,2 km/h (1 Bft) NO 46 0 min 0,000 mm 0,0 UV-I 92 W/m 7,7 C 16,8 C 6,4 km/h (2 Bft) 100,00 %
18.05.2016 19:22 16,8 C 56 % 1009,6 hPa 0,0 l/m 4,0 km/h (1 Bft) NO 56 0 min 0,000 mm 0,0 UV-I 98 W/m 8,0 C 16,8 C 4,8 km/h (1 Bft) 100,00 %
18.05.2016 19:23 16,7 C 57 % 1009,6 hPa 0,0 l/m 4,3 km/h (1 Bft) NO 55 0 min 0,000 mm 0,0 UV-I 94 W/m 8,1 C 16,7 C 6,4 km/h (2 Bft) 98,79 %
18.05.2016 19:24 16,7 C 58 % 1009,7 hPa 0,0 l/m 3,5 km/h (1 Bft) NO 53 0 min 0,000 mm 0,0 UV-I 74 W/m 8,4 C 16,7 C 4,8 km/h (1 Bft) 100,00 %
18.05.2016 19:25 16,6 C 57 % 1009,6 hPa 0,0 l/m 4,2 km/h (1 Bft) NO 53 0 min 0,000 mm 0,0 UV-I 75 W/m 8,0 C 16,6 C 4,8 km/h (1 Bft) 100,00 %
18.05.2016 19:26 16,6 C 57 % 1009,6 hPa 0,0 l/m 3,8 km/h (1 Bft) NO 53 0 min 0,000 mm 0,0 UV-I 68 W/m 8,0 C 16,6 C 4,8 km/h (1 Bft) 100,00 %
18.05.2016 19:27 16,5 C 57 % 1009,6 hPa 0,0 l/m 4,4 km/h (1 Bft) O-NO 66 0 min 0,000 mm 0,0 UV-I 54 W/m 8,0 C 16,5 C 6,4 km/h (2 Bft) 100,00 %
18.05.2016 19:28 16,5 C 57 % 1009,6 hPa 0,0 l/m 4,7 km/h (1 Bft) O-NO 61 0 min 0,000 mm 0,0 UV-I 43 W/m 8,0 C 16,5 C 6,4 km/h (2 Bft) 100,00 %
18.05.2016 19:29 16,5 C 57 % 1009,6 hPa 0,0 l/m 5,0 km/h (1 Bft) NO 42 0 min 0,000 mm 0,0 UV-I 38 W/m 8,0 C 16,5 C 6,4 km/h (2 Bft) 100,00 %
18.05.2016 19:30 16,4 C 58 % 1009,5 hPa 0,0 l/m 3,3 km/h (1 Bft) NO 42 0 min 0,000 mm 0,0 UV-I 37 W/m 8,1 C 16,4 C 4,8 km/h (1 Bft) 100,00 %
18.05.2016 19:31 16,4 C 59 % 1009,5 hPa 0,0 l/m 2,8 km/h (1 Bft) NO 42 0 min 0,000 mm 0,0 UV-I 33 W/m 8,4 C 16,4 C 4,8 km/h (1 Bft) 100,00 %
18.05.2016 19:32 16,3 C 59 % 1009,7 hPa 0,0 l/m 2,9 km/h (1 Bft) NO 42 0 min 0,000 mm 0,0 UV-I 33 W/m 8,3 C 16,3 C 4,8 km/h (1 Bft) 100,00 %
18.05.2016 19:33 16,2 C 60 % 1009,6 hPa 0,0 l/m 3,2 km/h (1 Bft) NO 46 0 min 0,000 mm 0,0 UV-I 31 W/m 8,4 C 16,2 C 4,8 km/h (1 Bft) 100,00 %
18.05.2016 19:34 16,2 C 57 % 1009,6 hPa 0,0 l/m 4,1 km/h (1 Bft) O-NO 64 0 min 0,000 mm 0,0 UV-I 30 W/m 7,7 C 16,2 C 6,4 km/h (2 Bft) 100,00 %
18.05.2016 19:35 16,2 C 57 % 1009,6 hPa 0,0 l/m 3,0 km/h (1 Bft) O-NO 64 0 min 0,000 mm 0,0 UV-I 29 W/m 7,7 C 16,2 C 3,2 km/h (1 Bft) 100,00 %
18.05.2016 19:36 16,1 C 58 % 1009,6 hPa 0,0 l/m 2,4 km/h (1 Bft) O-NO 64 0 min 0,000 mm 0,0 UV-I 28 W/m 7,8 C 16,1 C 3,2 km/h (1 Bft) 100,00 %
18.05.2016 19:37 16,1 C 59 % 1009,6 hPa 0,0 l/m 4,1 km/h (1 Bft) NO 53 0 min 0,000 mm 0,0 UV-I 26 W/m 8,1 C 16,1 C 6,4 km/h (2 Bft) 96,55 %
18.05.2016 19:38 15,9 C 59 % 1009,6 hPa 0,0 l/m 2,8 km/h (1 Bft) NO 53 0 min 0,000 mm 0,0 UV-I 26 W/m 7,9 C 15,9 C 4,8 km/h (1 Bft) 100,00 %
18.05.2016 19:39 15,9 C 59 % 1009,6 hPa 0,0 l/m 1,8 km/h (1 Bft) NO 53 0 min 0,000 mm 0,0 UV-I 25 W/m 7,9 C 15,9 C 3,2 km/h (1 Bft) 100,00 %
18.05.2016 19:40 15,8 C 61 % 1009,6 hPa 0,0 l/m 3,2 km/h (1 Bft) NO 45 0 min 0,000 mm 0,0 UV-I 26 W/m 8,3 C 15,8 C 6,4 km/h (2 Bft) 100,00 %
18.05.2016 19:43 15,7 C 59 % 1009,6 hPa 0,0 l/m 0,8 km/h (0 Bft) NO 53 0 min 0,000 mm 0,0 UV-I 24 W/m 7,7 C 15,7 C 1,6 km/h (1 Bft) 97,78 %
18.05.2016 19:44 15,7 C 60 % 1009,6 hPa 0,0 l/m 1,3 km/h (1 Bft) NO 53 0 min 0,000 mm 0,0 UV-I 23 W/m 8,0 C 15,7 C 1,6 km/h (1 Bft) 96,43 %
18.05.2016 19:45 15,7 C 59 % 1009,6 hPa 0,0 l/m 1,8 km/h (1 Bft) NO 53 0 min 0,000 mm 0,0 UV-I 23 W/m 7,7 C 15,7 C 3,2 km/h (1 Bft) 100,00 %
18.05.2016 19:46 15,7 C 61 % 1009,5 hPa 0,0 l/m 2,1 km/h (1 Bft) NO 53 0 min 0,000 mm 0,0 UV-I 23 W/m 8,2 C 15,7 C 3,2 km/h (1 Bft) 91,30 %
18.05.2016 19:49 15,5 C 62 % 1009,6 hPa 0,0 l/m 1,6 km/h (1 Bft) NO 53 0 min 0,000 mm 0,0 UV-I 22 W/m 8,3 C 15,5 C 1,6 km/h (1 Bft) 97,06 %
18.05.2016 19:50 15,4 C 63 % 1009,6 hPa 0,0 l/m 1,1 km/h (1 Bft) NO 53 0 min 0,000 mm 0,0 UV-I 21 W/m 8,4 C 15,4 C 1,6 km/h (1 Bft) 100,00 %
18.05.2016 19:51 15,4 C 63 % 1009,6 hPa 0,0 l/m 1,3 km/h (1 Bft) NO 53 0 min 0,000 mm 0,0 UV-I 21 W/m 8,4 C 15,4 C 1,6 km/h (1 Bft) 91,67 %
18.05.2016 19:52 15,4 C 62 % 1009,6 hPa 0,0 l/m 1,0 km/h (0 Bft) NO 53 0 min 0,000 mm 0,0 UV-I 21 W/m 8,2 C 15,4 C 1,6 km/h (1 Bft) 100,00 %
18.05.2016 19:55 15,3 C 63 % 1009,6 hPa 0,0 l/m 1,6 km/h (1 Bft) NO 45 0 min 0,000 mm 0,0 UV-I 20 W/m 8,3 C 15,3 C 3,2 km/h (1 Bft) 100,00 %
18.05.2016 19:57 15,3 C 62 % 1009,6 hPa 0,0 l/m 1,6 km/h (1 Bft) NO 53 0 min 0,000 mm 0,0 UV-I 20 W/m 8,1 C 15,3 C 1,6 km/h (1 Bft) 96,67 %
18.05.2016 19:58 15,3 C 61 % 1009,6 hPa 0,0 l/m 1,5 km/h (1 Bft) NO 53 0 min 0,000 mm 0,0 UV-I 19 W/m 7,8 C 15,3 C 1,6 km/h (1 Bft) 96,67 %
18.05.2016 19:59 15,2 C 61 % 1009,6 hPa 0,0 l/m 1,7 km/h (1 Bft) NO 53 0 min 0,000 mm 0,0 UV-I 19 W/m 7,7 C 15,2 C 3,2 km/h (1 Bft) 100,00 %
18.05.2016 20:00 15,2 C 62 % 1009,5 hPa 0,0 l/m 1,7 km/h (1 Bft) NO 53 0 min 0,000 mm 0,0 UV-I 19 W/m 8,0 C 15,2 C 3,2 km/h (1 Bft) 93,33 %
18.05.2016 20:01 15,1 C 62 % 1009,5 hPa 0,0 l/m 2,1 km/h (1 Bft) NO 53 0 min 0,051 mm 0,0 UV-I 19 W/m 7,9 C 15,1 C 3,2 km/h (1 Bft) 100,00 %
18.05.2016 20:02 15,0 C 62 % 1009,6 hPa 0,0 l/m 1,8 km/h (1 Bft) NO 53 0 min 0,000 mm 0,0 UV-I 19 W/m 7,8 C 15,0 C 3,2 km/h (1 Bft) 95,83 %
18.05.2016 20:03 14,9 C 62 % 1009,5 hPa 0,0 l/m 1,9 km/h (1 Bft) NO 53 0 min 0,000 mm 0,0 UV-I 20 W/m 7,7 C 14,9 C 3,2 km/h (1 Bft) 100,00 %
18.05.2016 20:04 14,9 C 63 % 1009,5 hPa 0,0 l/m 2,1 km/h (1 Bft) NO 53 0 min 0,000 mm 0,0 UV-I 21 W/m 7,9 C 14,9 C 3,2 km/h (1 Bft) 96,30 %
18.05.2016 20:05 14,8 C 63 % 1009,5 hPa 0,0 l/m 1,9 km/h (1 Bft) NO 53 0 min 0,000 mm 0,0 UV-I 21 W/m 7,8 C 14,8 C 3,2 km/h (1 Bft) 92,86 %
18.05.2016 20:06 14,8 C 62 % 1009,5 hPa 0,0 l/m 2,1 km/h (1 Bft) NO 53 0 min 0,000 mm 0,0 UV-I 21 W/m 7,6 C 14,8 C 3,2 km/h (1 Bft) 95,83 %
18.05.2016 20:07 14,8 C 63 % 1009,5 hPa 0,0 l/m 1,9 km/h (1 Bft) NO 53 0 min 0,000 mm 0,0 UV-I 19 W/m 7,8 C 14,8 C 3,2 km/h (1 Bft) 95,65 %
18.05.2016 20:08 14,7 C 62 % 1009,5 hPa 0,0 l/m 1,7 km/h (1 Bft) NO 53 0 min 0,000 mm 0,0 UV-I 19 W/m 7,5 C 14,7 C 3,2 km/h (1 Bft) 100,00 %
18.05.2016 20:09 14,7 C 63 % 1009,5 hPa 0,0 l/m 1,9 km/h (1 Bft) NO 53 0 min 0,000 mm 0,0 UV-I 19 W/m 7,7 C 14,7 C 3,2 km/h (1 Bft) 86,96 %
18.05.2016 20:10 14,7 C 63 % 1009,5 hPa 0,0 l/m 1,3 km/h (1 Bft) NO 53 0 min 0,000 mm 0,0 UV-I 19 W/m 7,7 C 14,7 C 1,6 km/h (1 Bft) 100,00 %
18.05.2016 20:11 14,8 C 62 % 1009,5 hPa 0,0 l/m 0,9 km/h (0 Bft) NO 53 0 min 0,000 mm 0,0 UV-I 19 W/m 7,6 C 14,8 C 1,6 km/h (1 Bft) 95,65 %
18.05.2016 20:12 14,8 C 63 % 1009,5 hPa 0,0 l/m 0,3 km/h (0 Bft) NO 53 0 min 0,000 mm 0,0 UV-I 18 W/m 7,8 C 14,8 C 1,6 km/h (1 Bft) 100,00 %
18.05.2016 20:13 14,8 C 62 % 1009,5 hPa 0,0 l/m 0,1 km/h (0 Bft) NO 53 0 min 0,000 mm 0,0 UV-I 18 W/m 7,6 C 14,8 C 1,6 km/h (1 Bft) 92,31 %
18.05.2016 20:14 14,8 C 63 % 1009,5 hPa 0,0 l/m 0,0 km/h (0 Bft) NO 53 0 min 0,000 mm 0,0 UV-I 18 W/m 7,8 C 14,8 C 0,0 km/h (0 Bft) 96,30 %
18.05.2016 20:15 14,8 C 62 % 1009,5 hPa 0,0 l/m 0,2 km/h (0 Bft) NO 53 0 min 0,000 mm 0,0 UV-I 17 W/m 7,6 C 14,8 C 1,6 km/h (1 Bft) 100,00 %
18.05.2016 20:16 14,8 C 63 % 1009,5 hPa 0,0 l/m 0,7 km/h (0 Bft) NO 53 0 min 0,000 mm 0,0 UV-I 16 W/m 7,8 C 14,8 C 1,6 km/h (1 Bft) 96,30 %
18.05.2016 20:17 14,7 C 63 % 1009,5 hPa 0,0 l/m 0,9 km/h (0 Bft) NO 53 0 min 0,000 mm 0,0 UV-I 16 W/m 7,7 C 14,7 C 3,2 km/h (1 Bft) 100,00 %
18.05.2016 20:18 14,6 C 63 % 1009,5 hPa 0,0 l/m 2,0 km/h (1 Bft) NO 53 0 min 0,000 mm 0,0 UV-I 16 W/m 7,6 C 14,6 C 3,2 km/h (1 Bft) 100,00 %
18.05.2016 20:19 14,4 C 65 % 1009,5 hPa 0,0 l/m 2,3 km/h (1 Bft) NO 53 0 min 0,000 mm 0,0 UV-I 16 W/m 7,9 C 14,4 C 3,2 km/h (1 Bft) 100,00 %
18.05.2016 20:20 14,3 C 65 % 1009,5 hPa 0,0 l/m 2,7 km/h (1 Bft) NO 53 0 min 0,000 mm 0,0 UV-I 14 W/m 7,8 C 14,3 C 4,8 km/h (1 Bft) 96,15 %
18.05.2016 20:21 14,2 C 66 % 1009,5 hPa 0,0 l/m 2,7 km/h (1 Bft) NO 53 0 min 0,000 mm 0,0 UV-I 13 W/m 7,9 C 14,2 C 3,2 km/h (1 Bft) 100,00 %
18.05.2016 20:22 14,1 C 64 % 1009,5 hPa 0,0 l/m 3,9 km/h (1 Bft) NO 56 0 min 0,000 mm 0,0 UV-I 12 W/m 7,4 C 14,1 C 4,8 km/h (1 Bft) 95,65 %
18.05.2016 20:23 14,2 C 64 % 1009,5 hPa 0,0 l/m 3,3 km/h (1 Bft) NO 56 0 min 0,000 mm 0,0 UV-I 11 W/m 7,5 C 14,2 C 4,8 km/h (1 Bft) 95,83 %
18.05.2016 20:24 14,2 C 63 % 1009,5 hPa 0,0 l/m 3,8 km/h (1 Bft) O-NO 59 0 min 0,000 mm 0,0 UV-I 11 W/m 7,3 C 14,2 C 4,8 km/h (1 Bft) 95,65 %
18.05.2016 20:25 14,3 C 63 % 1009,5 hPa 0,0 l/m 3,1 km/h (1 Bft) O-NO 59 0 min 0,000 mm 0,0 UV-I 11 W/m 7,4 C 14,3 C 4,8 km/h (1 Bft) 100,00 %
18.05.2016 20:26 14,3 C 63 % 1009,5 hPa 0,0 l/m 3,3 km/h (1 Bft) O-NO 59 0 min 0,000 mm 0,0 UV-I 9 W/m 7,4 C 14,3 C 4,8 km/h (1 Bft) 100,00 %
18.05.2016 20:27 14,3 C 63 % 1009,4 hPa 0,0 l/m 3,9 km/h (1 Bft) O-NO 68 0 min 0,000 mm 0,0 UV-I 9 W/m 7,4 C 14,3 C 6,4 km/h (2 Bft) 100,00 %
18.05.2016 20:28 14,3 C 62 % 1009,4 hPa 0,0 l/m 3,1 km/h (1 Bft) O-NO 68 0 min 0,000 mm 0,0 UV-I 8 W/m 7,1 C 14,3 C 4,8 km/h (1 Bft) 100,00 %
18.05.2016 20:29 14,4 C 63 % 1009,5 hPa 0,0 l/m 3,6 km/h (1 Bft) O-NO 68 0 min 0,000 mm 0,0 UV-I 7 W/m 7,4 C 14,4 C 4,8 km/h (1 Bft) 100,00 %
18.05.2016 20:30 14,3 C 63 % 1009,4 hPa 0,0 l/m 3,8 km/h (1 Bft) O-NO 68 0 min 0,000 mm 0,0 UV-I 7 W/m 7,4 C 14,3 C 4,8 km/h (1 Bft) 100,00 %
18.05.2016 20:31 14,3 C 62 % 1009,4 hPa 0,0 l/m 4,1 km/h (1 Bft) O-NO 68 0 min 0,000 mm 0,0 UV-I 7 W/m 7,1 C 14,3 C 4,8 km/h (1 Bft) 100,00 %
18.05.2016 20:32 14,3 C 63 % 1009,5 hPa 0,0 l/m 3,5 km/h (1 Bft) O-NO 68 0 min 0,000 mm 0,0 UV-I 7 W/m 7,4 C 14,3 C 4,8 km/h (1 Bft) 100,00 %
18.05.2016 20:33 14,3 C 63 % 1009,4 hPa 0,0 l/m 2,7 km/h (1 Bft) O-NO 68 0 min 0,000 mm 0,0 UV-I 7 W/m 7,4 C 14,3 C 4,8 km/h (1 Bft) 100,00 %
18.05.2016 20:34 14,3 C 63 % 1009,4 hPa 0,0 l/m 3,8 km/h (1 Bft) O-NO 68 0 min 0,000 mm 0,0 UV-I 5 W/m 7,4 C 14,3 C 4,8 km/h (1 Bft) 100,00 %
18.05.2016 20:35 14,3 C 62 % 1009,4 hPa 0,0 l/m 3,6 km/h (1 Bft) O-NO 68 0 min 0,000 mm 0,0 UV-I 5 W/m 7,1 C 14,3 C 4,8 km/h (1 Bft) 100,00 %
18.05.2016 20:36 14,3 C 63 % 1009,4 hPa 0,0 l/m 3,8 km/h (1 Bft) O-NO 68 0 min 0,000 mm 0,0 UV-I 5 W/m 7,4 C 14,3 C 4,8 km/h (1 Bft) 100,00 %
18.05.2016 20:37 14,3 C 63 % 1009,4 hPa 0,0 l/m 3,6 km/h (1 Bft) O-NO 68 0 min 0,000 mm 0,0 UV-I 5 W/m 7,4 C 14,3 C 4,8 km/h (1 Bft) 100,00 %
18.05.2016 20:38 14,3 C 63 % 1009,4 hPa 0,0 l/m 3,2 km/h (1 Bft) O-NO 68 0 min 0,000 mm 0,0 UV-I 5 W/m 7,4 C 14,3 C 4,8 km/h (1 Bft) 95,65 %
18.05.2016 20:39 14,2 C 63 % 1009,4 hPa 0,0 l/m 3,5 km/h (1 Bft) O-NO 68 0 min 0,000 mm 0,0 UV-I 5 W/m 7,3 C 14,2 C 4,8 km/h (1 Bft) 100,00 %
18.05.2016 20:40 14,2 C 63 % 1009,4 hPa 0,0 l/m 2,9 km/h (1 Bft) O-NO 68 0 min 0,000 mm 0,0 UV-I 1 W/m 7,3 C 14,2 C 4,8 km/h (1 Bft) 100,00 %
18.05.2016 20:41 14,2 C 63 % 1009,4 hPa 0,0 l/m 3,0 km/h (1 Bft) O-NO 68 0 min 0,000 mm 0,0 UV-I 0 W/m 7,3 C 14,2 C 3,2 km/h (1 Bft) 100,00 %
18.05.2016 20:42 14,2 C 63 % 1009,4 hPa 0,0 l/m 3,3 km/h (1 Bft) O-NO 68 0 min 0,000 mm 0,0 UV-I 0 W/m 7,3 C 14,2 C 4,8 km/h (1 Bft) 95,83 %
18.05.2016 20:43 14,2 C 63 % 1009,4 hPa 0,0 l/m 2,9 km/h (1 Bft) O-NO 68 0 min 0,000 mm 0,0 UV-I 0 W/m 7,3 C 14,2 C 3,2 km/h (1 Bft) 100,00 %
18.05.2016 20:44 14,2 C 63 % 1009,4 hPa 0,0 l/m 3,4 km/h (1 Bft) O-NO 68 0 min 0,000 mm 0,0 UV-I 0 W/m 7,3 C 14,2 C 4,8 km/h (1 Bft) 100,00 %
18.05.2016 20:45 14,2 C 63 % 1009,4 hPa 0,0 l/m 3,4 km/h (1 Bft) O-NO 68 0 min 0,000 mm 0,0 UV-I 0 W/m 7,3 C 14,2 C 4,8 km/h (1 Bft) 92,31 %
18.05.2016 20:46 14,1 C 64 % 1009,4 hPa 0,0 l/m 3,5 km/h (1 Bft) O-NO 68 0 min 0,000 mm 0,0 UV-I 0 W/m 7,4 C 14,1 C 4,8 km/h (1 Bft) 100,00 %
18.05.2016 20:47 14,1 C 64 % 1009,4 hPa 0,0 l/m 4,1 km/h (1 Bft) O-NO 68 0 min 0,000 mm 0,0 UV-I 0 W/m 7,4 C 14,1 C 4,8 km/h (1 Bft) 100,00 %
18.05.2016 20:48 14,1 C 64 % 1009,4 hPa 0,0 l/m 3,3 km/h (1 Bft) O-NO 68 0 min 0,000 mm 0,0 UV-I 0 W/m 7,4 C 14,1 C 4,8 km/h (1 Bft) 100,00 %
18.05.2016 20:49 14,1 C 64 % 1009,4 hPa 0,0 l/m 3,8 km/h (1 Bft) O-NO 68 0 min 0,000 mm 0,0 UV-I 0 W/m 7,4 C 14,1 C 4,8 km/h (1 Bft) 100,00 %
18.05.2016 20:50 14,0 C 64 % 1009,4 hPa 0,0 l/m 3,6 km/h (1 Bft) O-NO 68 0 min 0,000 mm 0,0 UV-I 0 W/m 7,3 C 14,0 C 4,8 km/h (1 Bft) 100,00 %
18.05.2016 20:51 14,0 C 64 % 1009,3 hPa 0,0 l/m 3,7 km/h (1 Bft) O-NO 68 0 min 0,000 mm 0,0 UV-I 0 W/m 7,3 C 14,0 C 4,8 km/h (1 Bft) 100,00 %
18.05.2016 20:52 14,0 C 64 % 1009,4 hPa 0,0 l/m 3,6 km/h (1 Bft) O-NO 68 0 min 0,000 mm 0,0 UV-I 0 W/m 7,3 C 14,0 C 4,8 km/h (1 Bft) 100,00 %
18.05.2016 20:53 14,0 C 64 % 1009,4 hPa 0,0 l/m 2,5 km/h (1 Bft) O-NO 68 0 min 0,000 mm 0,0 UV-I 0 W/m 7,3 C 14,0 C 3,2 km/h (1 Bft) 100,00 %
18.05.2016 20:54 13,9 C 64 % 1009,4 hPa 0,0 l/m 3,2 km/h (1 Bft) O-NO 68 0 min 0,000 mm 0,0 UV-I 0 W/m 7,2 C 13,9 C 3,2 km/h (1 Bft) 100,00 %
18.05.2016 20:55 13,9 C 64 % 1009,4 hPa 0,0 l/m 3,5 km/h (1 Bft) O-NO 68 0 min 0,000 mm 0,0 UV-I 0 W/m 7,2 C 13,9 C 4,8 km/h (1 Bft) 100,00 %
18.05.2016 20:56 13,9 C 64 % 1009,4 hPa 0,0 l/m 3,1 km/h (1 Bft) O-NO 68 0 min 0,000 mm 0,0 UV-I 0 W/m 7,2 C 13,9 C 3,2 km/h (1 Bft) 100,00 %
18.05.2016 20:57 13,9 C 65 % 1009,4 hPa 0,0 l/m 3,4 km/h (1 Bft) O-NO 68 0 min 0,000 mm 0,0 UV-I 0 W/m 7,4 C 13,9 C 4,8 km/h (1 Bft) 100,00 %
18.05.2016 20:58 13,9 C 64 % 1009,3 hPa 0,0 l/m 3,6 km/h (1 Bft) O-NO 68 0 min 0,000 mm 0,0 UV-I 0 W/m 7,2 C 13,9 C 4,8 km/h (1 Bft) 100,00 %
18.05.2016 20:59 13,9 C 64 % 1009,3 hPa 0,0 l/m 3,1 km/h (1 Bft) O-NO 68 0 min 0,000 mm 0,0 UV-I 0 W/m 7,2 C 13,9 C 3,2 km/h (1 Bft) 100,00 %
18.05.2016 21:00 13,9 C 65 % 1009,3 hPa 0,0 l/m 3,5 km/h (1 Bft) O-NO 68 0 min 0,025 mm 0,0 UV-I 0 W/m 7,4 C 13,9 C 4,8 km/h (1 Bft) 100,00 %
18.05.2016 21:02 13,8 C 65 % 1009,4 hPa 0,0 l/m 3,5 km/h (1 Bft) O-NO 68 0 min 0,000 mm 0,0 UV-I 0 W/m 7,3 C 13,8 C 4,8 km/h (1 Bft) 100,00 %
18.05.2016 21:03 13,7 C 66 % 1009,4 hPa 0,0 l/m 3,6 km/h (1 Bft) O-NO 68 0 min 0,000 mm 0,0 UV-I 0 W/m 7,5 C 13,7 C 4,8 km/h (1 Bft) 95,83 %
18.05.2016 21:04 13,5 C 68 % 1009,3 hPa 0,0 l/m 3,6 km/h (1 Bft) O-NO 68 0 min 0,000 mm 0,0 UV-I 0 W/m 7,7 C 13,5 C 4,8 km/h (1 Bft) 100,00 %
18.05.2016 21:05 13,3 C 68 % 1009,3 hPa 0,0 l/m 3,7 km/h (1 Bft) O-NO 68 0 min 0,000 mm 0,0 UV-I 0 W/m 7,5 C 13,3 C 4,8 km/h (1 Bft) 100,00 %
18.05.2016 21:06 13,2 C 68 % 1009,4 hPa 0,0 l/m 2,8 km/h (1 Bft) O-NO 68 0 min 0,000 mm 0,0 UV-I 0 W/m 7,4 C 13,2 C 4,8 km/h (1 Bft) 100,00 %
18.05.2016 21:07 13,0 C 69 % 1009,3 hPa 0,0 l/m 2,4 km/h (1 Bft) O-NO 68 0 min 0,000 mm 0,0 UV-I 0 W/m 7,4 C 13,0 C 3,2 km/h (1 Bft) 100,00 %
18.05.2016 21:08 12,9 C 70 % 1009,3 hPa 0,0 l/m 3,1 km/h (1 Bft) O-NO 68 0 min 0,000 mm 0,0 UV-I 0 W/m 7,6 C 12,9 C 3,2 km/h (1 Bft) 92,86 %
18.05.2016 21:09 12,8 C 70 % 1009,3 hPa 0,0 l/m 3,2 km/h (1 Bft) O-NO 68 0 min 0,000 mm 0,0 UV-I 0 W/m 7,5 C 12,8 C 4,8 km/h (1 Bft) 95,83 %
18.05.2016 21:10 12,7 C 70 % 1009,3 hPa 0,0 l/m 2,8 km/h (1 Bft) O-NO 68 0 min 0,000 mm 0,0 UV-I 0 W/m 7,4 C 12,7 C 4,8 km/h (1 Bft) 100,00 %
18.05.2016 21:11 12,6 C 70 % 1009,3 hPa 0,0 l/m 1,9 km/h (1 Bft) O-NO 68 0 min 0,000 mm 0,0 UV-I 0 W/m 7,3 C 12,6 C 3,2 km/h (1 Bft) 100,00 %
18.05.2016 21:12 12,6 C 72 % 1009,3 hPa 0,0 l/m 1,6 km/h (1 Bft) O-NO 68 0 min 0,000 mm 0,0 UV-I 0 W/m 7,7 C 12,6 C 1,6 km/h (1 Bft) 100,00 %
18.05.2016 21:13 12,6 C 72 % 1009,3 hPa 0,0 l/m 1,8 km/h (1 Bft) O-NO 68 0 min 0,000 mm 0,0 UV-I 0 W/m 7,7 C 12,6 C 3,2 km/h (1 Bft) 100,00 %
18.05.2016 21:14 12,6 C 72 % 1009,3 hPa 0,0 l/m 0,9 km/h (0 Bft) O-NO 68 0 min 0,000 mm 0,0 UV-I 0 W/m 7,7 C 12,6 C 3,2 km/h (1 Bft) 100,00 %
18.05.2016 21:15 12,5 C 73 % 1009,3 hPa 0,0 l/m 0,1 km/h (0 Bft) O-NO 68 0 min 0,000 mm 0,0 UV-I 0 W/m 7,8 C 12,5 C 1,6 km/h (1 Bft) 100,00 %
18.05.2016 21:16 12,4 C 73 % 1009,3 hPa 0,0 l/m 0,0 km/h (0 Bft) O-NO 68 0 min 0,000 mm 0,0 UV-I 0 W/m 7,7 C 12,4 C 0,0 km/h (0 Bft) 100,00 %
18.05.2016 21:17 12,4 C 73 % 1009,3 hPa 0,0 l/m 0,0 km/h (0 Bft) O-NO 68 0 min 0,000 mm 0,0 UV-I 0 W/m 7,7 C 12,4 C 0,0 km/h (0 Bft) 100,00 %
18.05.2016 21:18 12,4 C 73 % 1009,3 hPa 0,0 l/m 0,0 km/h (0 Bft) O-NO 68 0 min 0,000 mm 0,0 UV-I 0 W/m 7,7 C 12,4 C 0,0 km/h (0 Bft) 100,00 %
18.05.2016 21:19 12,3 C 73 % 1009,3 hPa 0,0 l/m 0,0 km/h (0 Bft) O-NO 68 0 min 0,000 mm 0,0 UV-I 0 W/m 7,6 C 12,3 C 0,0 km/h (0 Bft) 100,00 %
18.05.2016 21:20 12,3 C 73 % 1009,3 hPa 0,0 l/m 0,0 km/h (0 Bft) O-NO 68 0 min 0,000 mm 0,0 UV-I 0 W/m 7,6 C 12,3 C 0,0 km/h (0 Bft) 100,00 %
18.05.2016 21:21 12,3 C 73 % 1009,4 hPa 0,0 l/m 0,0 km/h (0 Bft) O-NO 68 0 min 0,000 mm 0,0 UV-I 0 W/m 7,6 C 12,3 C 0,0 km/h (0 Bft) 100,00 %
18.05.2016 21:22 12,3 C 73 % 1009,4 hPa 0,0 l/m 0,0 km/h (0 Bft) O-NO 68 0 min 0,000 mm 0,0 UV-I 0 W/m 7,6 C 12,3 C 0,0 km/h (0 Bft) 100,00 %
18.05.2016 21:23 12,3 C 73 % 1009,4 hPa 0,0 l/m 0,0 km/h (0 Bft) O-NO 68 0 min 0,000 mm 0,0 UV-I 0 W/m 7,6 C 12,3 C 0,0 km/h (0 Bft) 100,00 %
18.05.2016 21:24 12,3 C 73 % 1009,4 hPa 0,0 l/m 0,1 km/h (0 Bft) O-NO 68 0 min 0,000 mm 0,0 UV-I 0 W/m 7,6 C 12,3 C 1,6 km/h (1 Bft) 100,00 %
18.05.2016 21:25 12,3 C 73 % 1009,4 hPa 0,0 l/m 1,4 km/h (1 Bft) O-NO 68 0 min 0,000 mm 0,0 UV-I 0 W/m 7,6 C 12,3 C 3,2 km/h (1 Bft) 100,00 %
18.05.2016 21:26 12,3 C 74 % 1009,4 hPa 0,0 l/m 1,3 km/h (1 Bft) O-NO 68 0 min 0,000 mm 0,0 UV-I 0 W/m 7,8 C 12,3 C 1,6 km/h (1 Bft) 100,00 %
18.05.2016 21:27 12,3 C 74 % 1009,4 hPa 0,0 l/m 2,0 km/h (1 Bft) O-NO 68 0 min 0,000 mm 0,0 UV-I 0 W/m 7,8 C 12,3 C 3,2 km/h (1 Bft) 100,00 %
18.05.2016 21:28 12,2 C 73 % 1009,4 hPa 0,0 l/m 0,7 km/h (0 Bft) O-NO 68 0 min 0,000 mm 0,0 UV-I 0 W/m 7,5 C 12,2 C 1,6 km/h (1 Bft) 100,00 %
18.05.2016 21:29 12,2 C 73 % 1009,4 hPa 0,0 l/m 1,9 km/h (1 Bft) O-NO 68 0 min 0,000 mm 0,0 UV-I 0 W/m 7,5 C 12,2 C 3,2 km/h (1 Bft) 100,00 %
18.05.2016 21:30 12,2 C 73 % 1009,4 hPa 0,0 l/m 1,7 km/h (1 Bft) O-NO 68 0 min 0,000 mm 0,0 UV-I 0 W/m 7,5 C 12,2 C 3,2 km/h (1 Bft) 100,00 %
18.05.2016 21:31 12,2 C 74 % 1009,4 hPa 0,0 l/m 0,2 km/h (0 Bft) O-NO 68 0 min 0,000 mm 0,0 UV-I 0 W/m 7,7 C 12,2 C 1,6 km/h (1 Bft) 100,00 %
18.05.2016 21:32 12,1 C 72 % 1009,3 hPa 0,0 l/m 0,2 km/h (0 Bft) O-NO 68 0 min 0,000 mm 0,0 UV-I 0 W/m 7,2 C 12,1 C 1,6 km/h (1 Bft) 100,00 %
18.05.2016 21:33 12,1 C 72 % 1009,4 hPa 0,0 l/m 0,9 km/h (0 Bft) O-NO 68 0 min 0,000 mm 0,0 UV-I 0 W/m 7,2 C 12,1 C 1,6 km/h (1 Bft) 100,00 %
18.05.2016 21:34 12,1 C 74 % 1009,3 hPa 0,0 l/m 1,2 km/h (1 Bft) O-NO 68 0 min 0,000 mm 0,0 UV-I 0 W/m 7,6 C 12,1 C 1,6 km/h (1 Bft) 100,00 %
18.05.2016 21:35 12,1 C 75 % 1009,4 hPa 0,0 l/m 2,6 km/h (1 Bft) O-NO 68 0 min 0,000 mm 0,0 UV-I 0 W/m 7,8 C 12,1 C 3,2 km/h (1 Bft) 100,00 %
18.05.2016 21:36 12,0 C 74 % 1009,4 hPa 0,0 l/m 3,3 km/h (1 Bft) O-NO 68 0 min 0,000 mm 0,0 UV-I 0 W/m 7,5 C 12,0 C 4,8 km/h (1 Bft) 100,00 %
18.05.2016 21:37 11,9 C 76 % 1009,4 hPa 0,0 l/m 2,2 km/h (1 Bft) O-NO 68 0 min 0,000 mm 0,0 UV-I 0 W/m 7,8 C 11,9 C 3,2 km/h (1 Bft) 95,83 %
18.05.2016 21:38 11,9 C 79 % 1009,4 hPa 0,0 l/m 2,4 km/h (1 Bft) O-NO 68 0 min 0,000 mm 0,0 UV-I 0 W/m 8,4 C 11,9 C 3,2 km/h (1 Bft) 96,15 %
18.05.2016 21:39 11,8 C 79 % 1009,4 hPa 0,0 l/m 3,4 km/h (1 Bft) O-NO 68 0 min 0,000 mm 0,0 UV-I 0 W/m 8,3 C 11,8 C 4,8 km/h (1 Bft) 100,00 %
18.05.2016 21:40 11,8 C 79 % 1009,4 hPa 0,0 l/m 4,2 km/h (1 Bft) O-NO 68 0 min 0,000 mm 0,0 UV-I 0 W/m 8,3 C 11,8 C 6,4 km/h (2 Bft) 95,65 %
18.05.2016 21:41 11,7 C 79 % 1009,4 hPa 0,0 l/m 3,4 km/h (1 Bft) O-NO 68 0 min 0,000 mm 0,0 UV-I 0 W/m 8,2 C 11,7 C 4,8 km/h (1 Bft) 100,00 %
18.05.2016 21:42 11,7 C 78 % 1009,4 hPa 0,0 l/m 3,2 km/h (1 Bft) O-NO 68 0 min 0,000 mm 0,0 UV-I 0 W/m 8,0 C 11,7 C 4,8 km/h (1 Bft) 92,86 %
18.05.2016 21:43 11,6 C 77 % 1009,4 hPa 0,0 l/m 4,6 km/h (1 Bft) O-NO 69 0 min 0,000 mm 0,0 UV-I 0 W/m 7,7 C 11,6 C 8,0 km/h (2 Bft) 100,00 %
18.05.2016 21:44 11,6 C 78 % 1009,4 hPa 0,0 l/m 2,5 km/h (1 Bft) O-NO 69 0 min 0,000 mm 0,0 UV-I 0 W/m 7,9 C 11,6 C 3,2 km/h (1 Bft) 100,00 %
18.05.2016 21:45 11,6 C 78 % 1009,3 hPa 0,0 l/m 2,7 km/h (1 Bft) O-NO 69 0 min 0,000 mm 0,0 UV-I 0 W/m 7,9 C 11,6 C 3,2 km/h (1 Bft) 100,00 %
18.05.2016 21:46 11,6 C 78 % 1009,3 hPa 0,0 l/m 3,1 km/h (1 Bft) O-NO 78 0 min 0,000 mm 0,0 UV-I 0 W/m 7,9 C 11,6 C 6,4 km/h (2 Bft) 100,00 %
18.05.2016 21:47 11,6 C 77 % 1009,3 hPa 0,0 l/m 3,1 km/h (1 Bft) O-NO 78 0 min 0,000 mm 0,0 UV-I 0 W/m 7,7 C 11,6 C 4,8 km/h (1 Bft) 96,30 %
18.05.2016 21:48 11,6 C 76 % 1009,3 hPa 0,0 l/m 2,2 km/h (1 Bft) O-NO 78 0 min 0,000 mm 0,0 UV-I 0 W/m 7,5 C 11,6 C 3,2 km/h (1 Bft) 95,65 %
18.05.2016 21:49 11,6 C 76 % 1009,3 hPa 0,0 l/m 3,1 km/h (1 Bft) O-NO 78 0 min 0,000 mm 0,0 UV-I 0 W/m 7,5 C 11,6 C 4,8 km/h (1 Bft) 100,00 %
18.05.2016 21:50 11,6 C 76 % 1009,3 hPa 0,0 l/m 3,4 km/h (1 Bft) O 82 0 min 0,000 mm 0,0 UV-I 0 W/m 7,5 C 11,6 C 4,8 km/h (1 Bft) 100,00 %
18.05.2016 21:51 11,6 C 76 % 1009,3 hPa 0,0 l/m 3,8 km/h (1 Bft) O 89 0 min 0,000 mm 0,0 UV-I 0 W/m 7,5 C 11,6 C 4,8 km/h (1 Bft) 100,00 %
18.05.2016 21:52 11,6 C 75 % 1009,4 hPa 0,0 l/m 3,5 km/h (1 Bft) O 89 0 min 0,000 mm 0,0 UV-I 0 W/m 7,3 C 11,6 C 4,8 km/h (1 Bft) 96,15 %
18.05.2016 21:53 11,5 C 76 % 1009,3 hPa 0,0 l/m 3,3 km/h (1 Bft) O 89 0 min 0,000 mm 0,0 UV-I 0 W/m 7,4 C 11,5 C 4,8 km/h (1 Bft) 100,00 %
18.05.2016 21:54 11,4 C 76 % 1009,3 hPa 0,0 l/m 2,9 km/h (1 Bft) O 89 0 min 0,000 mm 0,0 UV-I 0 W/m 7,3 C 11,4 C 3,2 km/h (1 Bft) 95,65 %
18.05.2016 21:55 11,4 C 76 % 1009,4 hPa 0,0 l/m 4,2 km/h (1 Bft) O-SO 107 0 min 0,000 mm 0,0 UV-I 0 W/m 7,3 C 11,4 C 4,8 km/h (1 Bft) 96,30 %
18.05.2016 21:56 11,4 C 76 % 1009,3 hPa 0,0 l/m 4,7 km/h (1 Bft) O 86 0 min 0,000 mm 0,0 UV-I 0 W/m 7,3 C 11,4 C 9,7 km/h (2 Bft) 100,00 %
18.05.2016 21:57 11,4 C 77 % 1009,3 hPa 0,0 l/m 2,8 km/h (1 Bft) O 86 0 min 0,000 mm 0,0 UV-I 0 W/m 7,5 C 11,4 C 4,8 km/h (1 Bft) 96,15 %
18.05.2016 21:58 11,4 C 77 % 1009,3 hPa 0,0 l/m 4,2 km/h (1 Bft) O 86 0 min 0,000 mm 0,0 UV-I 0 W/m 7,5 C 11,4 C 4,8 km/h (1 Bft) 100,00 %
18.05.2016 21:59 11,5 C 76 % 1009,3 hPa 0,0 l/m 4,0 km/h (1 Bft) O-NO 65 0 min 0,000 mm 0,0 UV-I 0 W/m 7,4 C 11,5 C 6,4 km/h (2 Bft) 95,65 %
18.05.2016 22:00 11,6 C 77 % 1009,3 hPa 0,0 l/m 5,1 km/h (1 Bft) O 94 0 min 0,000 mm 0,0 UV-I 0 W/m 7,7 C 11,6 C 6,4 km/h (2 Bft) 95,83 %
18.05.2016 22:02 11,6 C 75 % 1009,3 hPa 0,0 l/m 6,3 km/h (2 Bft) O 80 0 min 0,000 mm 0,0 UV-I 0 W/m 7,3 C 11,6 C 11,3 km/h (2 Bft) 96,23 %
18.05.2016 22:03 11,6 C 76 % 1009,3 hPa 0,0 l/m 4,5 km/h (1 Bft) O-NO 70 0 min 0,000 mm 0,0 UV-I 0 W/m 7,5 C 11,6 C 6,4 km/h (2 Bft) 100,00 %
18.05.2016 22:04 11,7 C 74 % 1009,3 hPa 0,0 l/m 4,5 km/h (1 Bft) O 80 0 min 0,000 mm 0,0 UV-I 0 W/m 7,2 C 11,7 C 6,4 km/h (2 Bft) 95,83 %
18.05.2016 22:05 11,8 C 75 % 1009,3 hPa 0,0 l/m 2,3 km/h (1 Bft) O 80 0 min 0,000 mm 0,0 UV-I 0 W/m 7,5 C 11,8 C 3,2 km/h (1 Bft) 95,65 %
18.05.2016 22:06 11,8 C 75 % 1009,3 hPa 0,0 l/m 3,5 km/h (1 Bft) O 101 0 min 0,000 mm 0,0 UV-I 0 W/m 7,5 C 11,8 C 6,4 km/h (2 Bft) 100,00 %
18.05.2016 22:07 11,9 C 74 % 1009,2 hPa 0,0 l/m 3,3 km/h (1 Bft) O 97 0 min 0,000 mm 0,0 UV-I 0 W/m 7,4 C 11,9 C 4,8 km/h (1 Bft) 91,30 %
18.05.2016 22:08 11,9 C 75 % 1009,3 hPa 0,0 l/m 3,0 km/h (1 Bft) O 97 0 min 0,000 mm 0,0 UV-I 0 W/m 7,6 C 11,9 C 4,8 km/h (1 Bft) 100,00 %
18.05.2016 22:09 11,8 C 76 % 1009,2 hPa 0,0 l/m 2,1 km/h (1 Bft) O 97 0 min 0,000 mm 0,0 UV-I 0 W/m 7,7 C 11,8 C 3,2 km/h (1 Bft) 95,65 %
18.05.2016 22:10 11,7 C 77 % 1009,2 hPa 0,0 l/m 3,0 km/h (1 Bft) O 92 0 min 0,000 mm 0,0 UV-I 0 W/m 7,8 C 11,7 C 6,4 km/h (2 Bft) 100,00 %
18.05.2016 22:11 11,7 C 77 % 1009,2 hPa 0,0 l/m 3,3 km/h (1 Bft) O 92 0 min 0,000 mm 0,0 UV-I 0 W/m 7,8 C 11,7 C 4,8 km/h (1 Bft) 92,86 %
18.05.2016 22:12 11,6 C 77 % 1009,2 hPa 0,0 l/m 3,1 km/h (1 Bft) O 96 0 min 0,000 mm 0,0 UV-I 0 W/m 7,7 C 11,6 C 6,4 km/h (2 Bft) 100,00 %
18.05.2016 22:13 11,4 C 77 % 1009,2 hPa 0,0 l/m 4,8 km/h (1 Bft) O 96 0 min 0,000 mm 0,0 UV-I 0 W/m 7,5 C 11,4 C 6,4 km/h (2 Bft) 92,31 %
18.05.2016 22:14 11,4 C 78 % 1009,2 hPa 0,0 l/m 3,5 km/h (1 Bft) O 96 0 min 0,000 mm 0,0 UV-I 0 W/m 7,7 C 11,4 C 4,8 km/h (1 Bft) 96,30 %
18.05.2016 22:15 11,4 C 77 % 1009,2 hPa 0,0 l/m 3,8 km/h (1 Bft) O 96 0 min 0,000 mm 0,0 UV-I 0 W/m 7,5 C 11,4 C 4,8 km/h (1 Bft) 100,00 %
18.05.2016 22:16 11,4 C 77 % 1009,2 hPa 0,0 l/m 2,9 km/h (1 Bft) O-SO 107 0 min 0,000 mm 0,0 UV-I 0 W/m 7,5 C 11,4 C 6,4 km/h (2 Bft) 95,65 %
18.05.2016 22:17 11,4 C 76 % 1009,2 hPa 0,0 l/m 5,7 km/h (1 Bft) O 94 0 min 0,000 mm 0,0 UV-I 0 W/m 7,3 C 11,4 C 11,3 km/h (2 Bft) 100,00 %
18.05.2016 22:18 11,4 C 76 % 1009,2 hPa 0,0 l/m 3,3 km/h (1 Bft) O 94 0 min 0,000 mm 0,0 UV-I 0 W/m 7,3 C 11,4 C 4,8 km/h (1 Bft) 96,15 %
18.05.2016 22:19 11,4 C 77 % 1009,2 hPa 0,0 l/m 3,7 km/h (1 Bft) O-SO 106 0 min 0,000 mm 0,0 UV-I 0 W/m 7,5 C 11,4 C 6,4 km/h (2 Bft) 100,00 %
18.05.2016 22:20 11,4 C 76 % 1009,2 hPa 0,0 l/m 2,3 km/h (1 Bft) O-SO 106 0 min 0,000 mm 0,0 UV-I 0 W/m 7,3 C 11,4 C 3,2 km/h (1 Bft) 97,37 %
18.05.2016 22:21 11,4 C 76 % 1009,2 hPa 0,0 l/m 2,5 km/h (1 Bft) O-SO 106 0 min 0,000 mm 0,0 UV-I 0 W/m 7,3 C 11,4 C 4,8 km/h (1 Bft) 91,67 %
18.05.2016 22:22 11,3 C 76 % 1009,2 hPa 0,0 l/m 2,3 km/h (1 Bft) O-SO 107 0 min 0,000 mm 0,0 UV-I 0 W/m 7,2 C 11,3 C 3,2 km/h (1 Bft) 100,00 %
18.05.2016 22:23 11,3 C 77 % 1009,2 hPa 0,0 l/m 2,1 km/h (1 Bft) O-SO 107 0 min 0,000 mm 0,0 UV-I 0 W/m 7,4 C 11,3 C 3,2 km/h (1 Bft) 100,00 %
18.05.2016 22:24 11,2 C 76 % 1009,2 hPa 0,0 l/m 1,8 km/h (1 Bft) O-SO 110 0 min 0,000 mm 0,0 UV-I 0 W/m 7,1 C 11,2 C 3,2 km/h (1 Bft) 95,65 %
18.05.2016 22:25 11,2 C 75 % 1009,1 hPa 0,0 l/m 1,3 km/h (1 Bft) O-SO 110 0 min 0,000 mm 0,0 UV-I 0 W/m 6,9 C 11,2 C 3,2 km/h (1 Bft) 96,67 %
18.05.2016 22:26 11,2 C 75 % 1009,1 hPa 0,0 l/m 1,6 km/h (1 Bft) O-SO 110 0 min 0,000 mm 0,0 UV-I 0 W/m 6,9 C 11,2 C 4,8 km/h (1 Bft) 100,00 %
18.05.2016 22:27 11,2 C 76 % 1009,2 hPa 0,0 l/m 3,9 km/h (1 Bft) O-SO 113 0 min 0,000 mm 0,0 UV-I 0 W/m 7,1 C 11,2 C 6,4 km/h (2 Bft) 96,30 %
18.05.2016 22:28 11,2 C 77 % 1009,1 hPa 0,0 l/m 2,5 km/h (1 Bft) O-SO 113 0 min 0,000 mm 0,0 UV-I 0 W/m 7,3 C 11,2 C 4,8 km/h (1 Bft) 100,00 %
18.05.2016 22:29 11,2 C 77 % 1009,2 hPa 0,0 l/m 2,1 km/h (1 Bft) O-SO 113 0 min 0,000 mm 0,0 UV-I 0 W/m 7,3 C 11,2 C 4,8 km/h (1 Bft) 96,30 %
18.05.2016 22:30 11,1 C 77 % 1009,1 hPa 0,0 l/m 1,9 km/h (1 Bft) SO 125 0 min 0,000 mm 0,0 UV-I 0 W/m 7,2 C 11,1 C 3,2 km/h (1 Bft) 96,15 %
18.05.2016 22:31 11,1 C 77 % 1009,1 hPa 0,0 l/m 2,1 km/h (1 Bft) SO 125 0 min 0,000 mm 0,0 UV-I 0 W/m 7,2 C 11,1 C 4,8 km/h (1 Bft) 100,00 %
18.05.2016 22:32 11,1 C 77 % 1009,2 hPa 0,0 l/m 2,1 km/h (1 Bft) SO 125 0 min 0,000 mm 0,0 UV-I 0 W/m 7,2 C 11,1 C 3,2 km/h (1 Bft) 98,71 %
18.05.2016 22:33 11,1 C 76 % 1009,2 hPa 0,0 l/m 2,7 km/h (1 Bft) SO 125 0 min 0,000 mm 0,0 UV-I 0 W/m 7,0 C 11,1 C 3,2 km/h (1 Bft) 95,12 %
18.05.2016 22:34 11,1 C 77 % 1009,1 hPa 0,0 l/m 1,3 km/h (1 Bft) SO 125 0 min 0,000 mm 0,0 UV-I 0 W/m 7,2 C 11,1 C 3,2 km/h (1 Bft) 96,15 %
18.05.2016 22:35 11,0 C 78 % 1009,2 hPa 0,0 l/m 2,6 km/h (1 Bft) SO 125 0 min 0,000 mm 0,0 UV-I 0 W/m 7,3 C 11,0 C 3,2 km/h (1 Bft) 100,00 %
18.05.2016 22:36 10,9 C 78 % 1009,2 hPa 0,0 l/m 3,4 km/h (1 Bft) SO 125 0 min 0,000 mm 0,0 UV-I 0 W/m 7,2 C 10,9 C 4,8 km/h (1 Bft) 100,00 %
18.05.2016 22:37 10,9 C 78 % 1009,1 hPa 0,0 l/m 2,6 km/h (1 Bft) SO 125 0 min 0,000 mm 0,0 UV-I 0 W/m 7,2 C 10,9 C 3,2 km/h (1 Bft) 100,00 %
18.05.2016 22:38 10,8 C 79 % 1009,1 hPa 0,0 l/m 3,0 km/h (1 Bft) SO 125 0 min 0,000 mm 0,0 UV-I 0 W/m 7,3 C 10,8 C 3,2 km/h (1 Bft) 91,67 %
18.05.2016 22:39 10,8 C 79 % 1009,1 hPa 0,0 l/m 2,5 km/h (1 Bft) SO 125 0 min 0,000 mm 0,0 UV-I 0 W/m 7,3 C 10,8 C 4,8 km/h (1 Bft) 96,55 %
18.05.2016 22:40 10,8 C 79 % 1009,1 hPa 0,0 l/m 2,5 km/h (1 Bft) SO 125 0 min 0,000 mm 0,0 UV-I 0 W/m 7,3 C 10,8 C 3,2 km/h (1 Bft) 100,00 %
18.05.2016 22:41 10,8 C 79 % 1009,1 hPa 0,0 l/m 1,9 km/h (1 Bft) SO 125 0 min 0,000 mm 0,0 UV-I 0 W/m 7,3 C 10,8 C 3,2 km/h (1 Bft) 100,00 %
18.05.2016 22:42 10,8 C 79 % 1009,1 hPa 0,0 l/m 2,3 km/h (1 Bft) SO 125 0 min 0,000 mm 0,0 UV-I 0 W/m 7,3 C 10,8 C 3,2 km/h (1 Bft) 100,00 %
18.05.2016 22:43 10,8 C 79 % 1009,1 hPa 0,0 l/m 3,0 km/h (1 Bft) SO 125 0 min 0,000 mm 0,0 UV-I 0 W/m 7,3 C 10,8 C 4,8 km/h (1 Bft) 100,00 %
18.05.2016 22:44 10,8 C 79 % 1009,1 hPa 0,0 l/m 3,1 km/h (1 Bft) SO 125 0 min 0,000 mm 0,0 UV-I 0 W/m 7,3 C 10,8 C 4,8 km/h (1 Bft) 96,30 %
18.05.2016 22:45 10,8 C 80 % 1009,1 hPa 0,0 l/m 2,7 km/h (1 Bft) O-SO 122 0 min 0,000 mm 0,0 UV-I 0 W/m 7,5 C 10,8 C 4,8 km/h (1 Bft) 100,00 %
18.05.2016 22:46 10,8 C 80 % 1009,1 hPa 0,0 l/m 3,2 km/h (1 Bft) O-SO 122 0 min 0,000 mm 0,0 UV-I 0 W/m 7,5 C 10,8 C 4,8 km/h (1 Bft) 100,00 %
18.05.2016 22:47 10,8 C 80 % 1009,1 hPa 0,0 l/m 3,6 km/h (1 Bft) SO 127 0 min 0,000 mm 0,0 UV-I 0 W/m 7,5 C 10,8 C 6,4 km/h (2 Bft) 92,86 %
18.05.2016 22:48 10,8 C 81 % 1009,1 hPa 0,0 l/m 2,7 km/h (1 Bft) SO 127 0 min 0,000 mm 0,0 UV-I 0 W/m 7,7 C 10,8 C 3,2 km/h (1 Bft) 100,00 %
18.05.2016 22:49 10,8 C 80 % 1009,1 hPa 0,0 l/m 2,5 km/h (1 Bft) SO 125 0 min 0,000 mm 0,0 UV-I 0 W/m 7,5 C 10,8 C 4,8 km/h (1 Bft) 100,00 %
18.05.2016 22:50 10,8 C 80 % 1009,2 hPa 0,0 l/m 2,6 km/h (1 Bft) SO 125 0 min 0,000 mm 0,0 UV-I 0 W/m 7,5 C 10,8 C 3,2 km/h (1 Bft) 100,00 %
18.05.2016 22:51 10,8 C 81 % 1009,1 hPa 0,0 l/m 3,5 km/h (1 Bft) SO 137 0 min 0,000 mm 0,0 UV-I 0 W/m 7,7 C 10,8 C 4,8 km/h (1 Bft) 100,00 %
18.05.2016 22:52 10,8 C 81 % 1009,1 hPa 0,0 l/m 3,4 km/h (1 Bft) SO 137 0 min 0,000 mm 0,0 UV-I 0 W/m 7,7 C 10,8 C 4,8 km/h (1 Bft) 100,00 %
18.05.2016 22:53 10,8 C 80 % 1009,1 hPa 0,0 l/m 3,5 km/h (1 Bft) SO 134 0 min 0,000 mm 0,0 UV-I 0 W/m 7,5 C 10,8 C 6,4 km/h (2 Bft) 100,00 %
18.05.2016 22:54 10,8 C 81 % 1009,1 hPa 0,0 l/m 3,6 km/h (1 Bft) SO 132 0 min 0,000 mm 0,0 UV-I 0 W/m 7,7 C 10,8 C 4,8 km/h (1 Bft) 100,00 %
18.05.2016 22:55 10,8 C 80 % 1009,1 hPa 0,0 l/m 2,4 km/h (1 Bft) O-SO 121 0 min 0,000 mm 0,0 UV-I 0 W/m 7,5 C 10,8 C 6,4 km/h (2 Bft) 100,00 %
18.05.2016 22:56 10,7 C 80 % 1009,1 hPa 0,0 l/m 2,6 km/h (1 Bft) O-SO 121 0 min 0,000 mm 0,0 UV-I 0 W/m 7,4 C 10,7 C 3,2 km/h (1 Bft) 95,65 %
18.05.2016 22:57 10,7 C 80 % 1009,1 hPa 0,0 l/m 2,8 km/h (1 Bft) O-SO 121 0 min 0,000 mm 0,0 UV-I 0 W/m 7,4 C 10,7 C 4,8 km/h (1 Bft) 100,00 %
18.05.2016 22:58 10,7 C 81 % 1009,0 hPa 0,0 l/m 2,7 km/h (1 Bft) O-SO 121 0 min 0,000 mm 0,0 UV-I 0 W/m 7,6 C 10,7 C 4,8 km/h (1 Bft) 100,00 %
18.05.2016 22:59 10,6 C 81 % 1009,1 hPa 0,0 l/m 2,9 km/h (1 Bft) O-SO 121 0 min 0,000 mm 0,0 UV-I 0 W/m 7,5 C 10,6 C 4,8 km/h (1 Bft) 100,00 %
18.05.2016 23:00 10,6 C 80 % 1009,1 hPa 0,0 l/m 2,1 km/h (1 Bft) SO 124 0 min 0,000 mm 0,0 UV-I 0 W/m 7,3 C 10,6 C 3,2 km/h (1 Bft) 100,00 %
18.05.2016 23:02 10,6 C 80 % 1009,1 hPa 0,0 l/m 1,6 km/h (1 Bft) SO 126 0 min 0,000 mm 0,0 UV-I 0 W/m 7,3 C 10,6 C 4,8 km/h (1 Bft) 100,00 %
18.05.2016 23:03 10,5 C 80 % 1009,1 hPa 0,0 l/m 2,1 km/h (1 Bft) SO 127 0 min 0,000 mm 0,0 UV-I 0 W/m 7,2 C 10,5 C 3,2 km/h (1 Bft) 100,00 %
18.05.2016 23:04 10,5 C 80 % 1009,1 hPa 0,0 l/m 3,8 km/h (1 Bft) O-SO 120 0 min 0,000 mm 0,0 UV-I 0 W/m 7,2 C 10,5 C 6,4 km/h (2 Bft) 100,00 %
18.05.2016 23:05 10,4 C 80 % 1009,1 hPa 0,0 l/m 1,7 km/h (1 Bft) SO 140 0 min 0,000 mm 0,0 UV-I 0 W/m 7,1 C 10,4 C 4,8 km/h (1 Bft) 100,00 %
18.05.2016 23:06 10,4 C 80 % 1009,0 hPa 0,0 l/m 1,3 km/h (1 Bft) SO 140 0 min 0,000 mm 0,0 UV-I 0 W/m 7,1 C 10,4 C 3,2 km/h (1 Bft) 96,15 %
18.05.2016 23:07 10,3 C 81 % 1009,0 hPa 0,0 l/m 2,8 km/h (1 Bft) SO 140 0 min 0,000 mm 0,0 UV-I 0 W/m 7,2 C 10,3 C 4,8 km/h (1 Bft) 100,00 %
18.05.2016 23:08 10,3 C 81 % 1009,0 hPa 0,0 l/m 2,0 km/h (1 Bft) SO 140 0 min 0,000 mm 0,0 UV-I 0 W/m 7,2 C 10,3 C 3,2 km/h (1 Bft) 100,00 %
18.05.2016 23:09 10,3 C 81 % 1009,0 hPa 0,0 l/m 1,8 km/h (1 Bft) SO 140 0 min 0,000 mm 0,0 UV-I 0 W/m 7,2 C 10,3 C 3,2 km/h (1 Bft) 96,30 %
18.05.2016 23:10 10,3 C 81 % 1009,0 hPa 0,0 l/m 1,5 km/h (1 Bft) SO 140 0 min 0,000 mm 0,0 UV-I 0 W/m 7,2 C 10,3 C 3,2 km/h (1 Bft) 100,00 %
18.05.2016 23:11 10,3 C 82 % 1009,0 hPa 0,0 l/m 1,8 km/h (1 Bft) SO 140 0 min 0,000 mm 0,0 UV-I 0 W/m 7,4 C 10,3 C 3,2 km/h (1 Bft) 100,00 %
18.05.2016 23:12 10,2 C 82 % 1009,0 hPa 0,0 l/m 1,9 km/h (1 Bft) SO 140 0 min 0,000 mm 0,0 UV-I 0 W/m 7,3 C 10,2 C 4,8 km/h (1 Bft) 100,00 %
18.05.2016 23:13 10,2 C 82 % 1009,0 hPa 0,0 l/m 2,5 km/h (1 Bft) SO 142 0 min 0,000 mm 0,0 UV-I 0 W/m 7,3 C 10,2 C 3,2 km/h (1 Bft) 100,00 %
18.05.2016 23:14 10,2 C 82 % 1009,0 hPa 0,0 l/m 2,5 km/h (1 Bft) SO 142 0 min 0,000 mm 0,0 UV-I 0 W/m 7,3 C 10,2 C 3,2 km/h (1 Bft) 100,00 %
18.05.2016 23:15 10,2 C 82 % 1009,0 hPa 0,0 l/m 2,1 km/h (1 Bft) SO 142 0 min 0,000 mm 0,0 UV-I 0 W/m 7,3 C 10,2 C 3,2 km/h (1 Bft) 100,00 %
18.05.2016 23:16 10,2 C 82 % 1009,0 hPa 0,0 l/m 1,9 km/h (1 Bft) SO 142 0 min 0,000 mm 0,0 UV-I 0 W/m 7,3 C 10,2 C 3,2 km/h (1 Bft) 100,00 %
18.05.2016 23:17 10,2 C 83 % 1009,0 hPa 0,0 l/m 2,4 km/h (1 Bft) SO 142 0 min 0,000 mm 0,0 UV-I 0 W/m 7,4 C 10,2 C 4,8 km/h (1 Bft) 100,00 %
18.05.2016 23:18 10,1 C 84 % 1008,9 hPa 0,0 l/m 1,9 km/h (1 Bft) SO 142 0 min 0,000 mm 0,0 UV-I 0 W/m 7,5 C 10,1 C 3,2 km/h (1 Bft) 100,00 %
18.05.2016 23:19 10,1 C 84 % 1008,9 hPa 0,0 l/m 1,9 km/h (1 Bft) SO 142 0 min 0,000 mm 0,0 UV-I 0 W/m 7,5 C 10,1 C 3,2 km/h (1 Bft) 100,00 %
18.05.2016 23:20 10,1 C 84 % 1008,8 hPa 0,0 l/m 2,8 km/h (1 Bft) SO 142 0 min 0,000 mm 0,0 UV-I 0 W/m 7,5 C 10,1 C 3,2 km/h (1 Bft) 100,00 %
18.05.2016 23:21 10,1 C 84 % 1008,9 hPa 0,0 l/m 3,1 km/h (1 Bft) SO 142 0 min 0,000 mm 0,0 UV-I 0 W/m 7,5 C 10,1 C 3,2 km/h (1 Bft) 100,00 %
18.05.2016 23:22 10,1 C 83 % 1008,9 hPa 0,0 l/m 3,0 km/h (1 Bft) SO 142 0 min 0,000 mm 0,0 UV-I 0 W/m 7,3 C 10,1 C 3,2 km/h (1 Bft) 95,83 %
18.05.2016 23:23 10,1 C 83 % 1008,9 hPa 0,0 l/m 3,5 km/h (1 Bft) SO 142 0 min 0,000 mm 0,0 UV-I 0 W/m 7,3 C 10,1 C 4,8 km/h (1 Bft) 100,00 %
18.05.2016 23:24 10,1 C 83 % 1008,8 hPa 0,0 l/m 3,2 km/h (1 Bft) SO 142 0 min 0,000 mm 0,0 UV-I 0 W/m 7,3 C 10,1 C 4,8 km/h (1 Bft) 100,00 %
18.05.2016 23:25 10,1 C 83 % 1008,8 hPa 0,0 l/m 3,0 km/h (1 Bft) SO 142 0 min 0,000 mm 0,0 UV-I 0 W/m 7,3 C 10,1 C 4,8 km/h (1 Bft) 100,00 %
18.05.2016 23:26 10,2 C 82 % 1008,8 hPa 0,0 l/m 2,4 km/h (1 Bft) SO 142 0 min 0,000 mm 0,0 UV-I 0 W/m 7,3 C 10,2 C 3,2 km/h (1 Bft) 95,83 %
18.05.2016 23:27 10,3 C 81 % 1008,8 hPa 0,0 l/m 2,3 km/h (1 Bft) SO 142 0 min 0,000 mm 0,0 UV-I 0 W/m 7,2 C 10,3 C 3,2 km/h (1 Bft) 95,65 %
18.05.2016 23:28 10,4 C 82 % 1008,8 hPa 0,0 l/m 1,8 km/h (1 Bft) SO 142 0 min 0,000 mm 0,0 UV-I 0 W/m 7,5 C 10,4 C 3,2 km/h (1 Bft) 100,00 %
18.05.2016 23:29 10,5 C 82 % 1008,8 hPa 0,0 l/m 1,1 km/h (1 Bft) SO 142 0 min 0,000 mm 0,0 UV-I 0 W/m 7,6 C 10,5 C 3,2 km/h (1 Bft) 100,00 %
18.05.2016 23:30 10,5 C 82 % 1008,8 hPa 0,0 l/m 0,0 km/h (0 Bft) SO 142 0 min 0,000 mm 0,0 UV-I 0 W/m 7,6 C 10,5 C 0,0 km/h (0 Bft) 100,00 %
18.05.2016 23:31 10,5 C 82 % 1008,8 hPa 0,0 l/m 0,1 km/h (0 Bft) SO 142 0 min 0,000 mm 0,0 UV-I 0 W/m 7,6 C 10,5 C 1,6 km/h (1 Bft) 100,00 %
18.05.2016 23:32 10,4 C 82 % 1008,8 hPa 0,0 l/m 0,4 km/h (0 Bft) SO 142 0 min 0,000 mm 0,0 UV-I 0 W/m 7,5 C 10,4 C 1,6 km/h (1 Bft) 100,00 %
18.05.2016 23:33 10,3 C 82 % 1008,8 hPa 0,0 l/m 0,0 km/h (0 Bft) SO 142 0 min 0,000 mm 0,0 UV-I 0 W/m 7,4 C 10,3 C 0,0 km/h (0 Bft) 95,65 %
18.05.2016 23:34 10,2 C 81 % 1008,8 hPa 0,0 l/m 0,0 km/h (0 Bft) SO 142 0 min 0,000 mm 0,0 UV-I 0 W/m 7,1 C 10,2 C 0,0 km/h (0 Bft) 100,00 %
18.05.2016 23:35 10,2 C 82 % 1008,8 hPa 0,0 l/m 0,1 km/h (0 Bft) SO 142 0 min 0,000 mm 0,0 UV-I 0 W/m 7,3 C 10,2 C 1,6 km/h (1 Bft) 95,65 %
18.05.2016 23:36 10,1 C 83 % 1008,8 hPa 0,0 l/m 0,0 km/h (0 Bft) SO 142 0 min 0,000 mm 0,0 UV-I 0 W/m 7,3 C 10,1 C 0,0 km/h (0 Bft) 95,83 %
18.05.2016 23:37 10,1 C 83 % 1008,8 hPa 0,0 l/m 0,0 km/h (0 Bft) SO 142 0 min 0,000 mm 0,0 UV-I 0 W/m 7,3 C 10,1 C 0,0 km/h (0 Bft) 100,00 %
18.05.2016 23:38 10,1 C 83 % 1008,8 hPa 0,0 l/m 0,1 km/h (0 Bft) SO 142 0 min 0,000 mm 0,0 UV-I 0 W/m 7,3 C 10,1 C 1,6 km/h (1 Bft) 100,00 %
18.05.2016 23:39 10,1 C 83 % 1008,8 hPa 0,0 l/m 0,1 km/h (0 Bft) SO 142 0 min 0,000 mm 0,0 UV-I 0 W/m 7,3 C 10,1 C 1,6 km/h (1 Bft) 100,00 %
18.05.2016 23:40 10,1 C 83 % 1008,8 hPa 0,0 l/m 0,0 km/h (0 Bft) SO 142 0 min 0,000 mm 0,0 UV-I 0 W/m 7,3 C 10,1 C 0,0 km/h (0 Bft) 100,00 %
18.05.2016 23:41 10,1 C 82 % 1008,8 hPa 0,0 l/m 0,5 km/h (0 Bft) SO 142 0 min 0,000 mm 0,0 UV-I 0 W/m 7,2 C 10,1 C 1,6 km/h (1 Bft) 100,00 %
18.05.2016 23:42 10,2 C 82 % 1008,8 hPa 0,0 l/m 0,0 km/h (0 Bft) SO 142 0 min 0,000 mm 0,0 UV-I 0 W/m 7,3 C 10,2 C 0,0 km/h (0 Bft) 100,00 %
18.05.2016 23:43 10,3 C 81 % 1008,8 hPa 0,0 l/m 0,0 km/h (0 Bft) SO 142 0 min 0,000 mm 0,0 UV-I 0 W/m 7,2 C 10,3 C 0,0 km/h (0 Bft) 100,00 %
18.05.2016 23:44 10,3 C 82 % 1008,8 hPa 0,0 l/m 0,0 km/h (0 Bft) SO 142 0 min 0,000 mm 0,0 UV-I 0 W/m 7,4 C 10,3 C 0,0 km/h (0 Bft) 100,00 %
18.05.2016 23:45 10,4 C 81 % 1008,8 hPa 0,0 l/m 0,0 km/h (0 Bft) SO 142 0 min 0,000 mm 0,0 UV-I 0 W/m 7,3 C 10,4 C 0,0 km/h (0 Bft) 100,00 %
18.05.2016 23:46 10,5 C 81 % 1008,8 hPa 0,0 l/m 0,0 km/h (0 Bft) SO 142 0 min 0,000 mm 0,0 UV-I 0 W/m 7,4 C 10,5 C 0,0 km/h (0 Bft) 100,00 %
18.05.2016 23:47 10,6 C 81 % 1008,8 hPa 0,0 l/m 0,0 km/h (0 Bft) SO 142 0 min 0,000 mm 0,0 UV-I 0 W/m 7,5 C 10,6 C 0,0 km/h (0 Bft) 100,00 %
18.05.2016 23:48 10,6 C 81 % 1008,8 hPa 0,0 l/m 0,0 km/h (0 Bft) SO 142 0 min 0,000 mm 0,0 UV-I 0 W/m 7,5 C 10,6 C 0,0 km/h (0 Bft) 100,00 %
18.05.2016 23:49 10,6 C 81 % 1008,8 hPa 0,0 l/m 0,0 km/h (0 Bft) SO 142 0 min 0,000 mm 0,0 UV-I 0 W/m 7,5 C 10,6 C 0,0 km/h (0 Bft) 100,00 %
18.05.2016 23:50 10,6 C 82 % 1008,8 hPa 0,0 l/m 0,0 km/h (0 Bft) SO 142 0 min 0,000 mm 0,0 UV-I 0 W/m 7,7 C 10,6 C 0,0 km/h (0 Bft) 100,00 %
18.05.2016 23:51 10,5 C 82 % 1008,8 hPa 0,0 l/m 0,0 km/h (0 Bft) SO 142 0 min 0,000 mm 0,0 UV-I 0 W/m 7,6 C 10,5 C 0,0 km/h (0 Bft) 100,00 %
18.05.2016 23:52 10,5 C 82 % 1008,8 hPa 0,0 l/m 0,0 km/h (0 Bft) SO 142 0 min 0,000 mm 0,0 UV-I 0 W/m 7,6 C 10,5 C 0,0 km/h (0 Bft) 100,00 %
18.05.2016 23:53 10,4 C 82 % 1008,8 hPa 0,0 l/m 0,0 km/h (0 Bft) SO 142 0 min 0,000 mm 0,0 UV-I 0 W/m 7,5 C 10,4 C 0,0 km/h (0 Bft) 100,00 %
18.05.2016 23:54 10,4 C 83 % 1008,8 hPa 0,0 l/m 0,0 km/h (0 Bft) SO 142 0 min 0,000 mm 0,0 UV-I 0 W/m 7,6 C 10,4 C 0,0 km/h (0 Bft) 100,00 %
18.05.2016 23:55 10,4 C 83 % 1008,8 hPa 0,0 l/m 0,0 km/h (0 Bft) SO 142 0 min 0,000 mm 0,0 UV-I 0 W/m 7,6 C 10,4 C 0,0 km/h (0 Bft) 100,00 %
18.05.2016 23:56 10,3 C 83 % 1008,8 hPa 0,0 l/m 0,0 km/h (0 Bft) SO 142 0 min 0,000 mm 0,0 UV-I 0 W/m 7,5 C 10,3 C 0,0 km/h (0 Bft) 100,00 %
18.05.2016 23:57 10,4 C 83 % 1008,7 hPa 0,0 l/m 0,0 km/h (0 Bft) SO 142 0 min 0,000 mm 0,0 UV-I 0 W/m 7,6 C 10,4 C 0,0 km/h (0 Bft) 100,00 %
18.05.2016 23:58 10,4 C 84 % 1008,8 hPa 0,0 l/m 0,0 km/h (0 Bft) SO 142 0 min 0,000 mm 0,0 UV-I 0 W/m 7,8 C 10,4 C 0,0 km/h (0 Bft) 100,00 %
18.05.2016 23:59 10,3 C 83 % 1008,7 hPa 0,0 l/m 0,0 km/h (0 Bft) SO 142 0 min 0,000 mm 0,0 UV-I 0 W/m 7,5 C 10,3 C 0,0 km/h (0 Bft) 100,00 %
_ Min-Zeit 05:13 12:58 23:57 - 07:03 - - - - - - 12:25 02:58 07:03 12:14
Minimum _ 7,8 C 45 % 1008,7 hPa - 0,0 km/h (0 Bft) - - - - - - 4,1 C 7,4 C 0,0 km/h (0 Bft) 86,67 %
_ Max-Zeit 15:53 05:16 00:00 00:00 13:04 - - 10:02 12:00 12:49 12:49 15:16 15:53 15:09 00:03
Maximum _ 18,2 C 91 % 1017,4 hPa 0,0 l/m 12,9 km/h
W-SW (3 Bft)
- - 2 min 0,432 mm 5,2 UV-I 1139 W/m 9,5 C 18,2 C 19,3 km/h
N-NO (3 Bft)
100,00 %
Durchschnitt _ 12,6 C 70 % 1013,3 hPa #0,0 l/m 3,7 km/h (1 Bft) S-SW - #9:30 h #3,759 mm 2,7 UV-I 440 W/m 6,9 C 12,6 C 5,8 km/h (1 Bft) 98,73 %